<?xml version="1.0" encoding="UTF-8" standalone="no" ?>
<gpx xmlns="http://www.topografix.com/GPX/1/1" xmlns:xsi="http://www.w3.org/2001/XMLSchema-instance" xsi:schemaLocation="http://www.topografix.com/GPX/1/1 http://www.topografix.com/GPX/1/1/gpx.xsd" version="1.1" creator="VisuGPX - https://www.visugpx.com">
  <metadata>
    <name>2021-02-05-Cima Durand valle Ellero</name>
  </metadata>
  <trk>
    <name><![CDATA[2021-02-05 16:33:52]]></name>
    <trkseg>
      <trkpt lat="44.267" lon="7.73607">
        <ele>770.15</ele>
        <time>2021-02-05T07:44:42Z</time>
      </trkpt>
      <trkpt lat="44.26702" lon="7.73609">
        <ele>769.67</ele>
        <time>2021-02-05T07:45:03Z</time>
      </trkpt>
      <trkpt lat="44.26699" lon="7.73608">
        <ele>769.19</ele>
        <time>2021-02-05T07:45:21Z</time>
      </trkpt>
      <trkpt lat="44.26699" lon="7.73608">
        <ele>768.71</ele>
        <time>2021-02-05T07:45:23Z</time>
      </trkpt>
      <trkpt lat="44.26702" lon="7.73593">
        <ele>809.57</ele>
        <time>2021-02-05T07:45:34Z</time>
      </trkpt>
      <trkpt lat="44.26706" lon="7.73591">
        <ele>810.53</ele>
        <time>2021-02-05T07:45:45Z</time>
      </trkpt>
      <trkpt lat="44.26711" lon="7.73585">
        <ele>811.97</ele>
        <time>2021-02-05T07:45:54Z</time>
      </trkpt>
      <trkpt lat="44.26713" lon="7.73585">
        <ele>811.97</ele>
        <time>2021-02-05T07:46:10Z</time>
      </trkpt>
      <trkpt lat="44.26713" lon="7.73584">
        <ele>811.01</ele>
        <time>2021-02-05T07:46:26Z</time>
      </trkpt>
      <trkpt lat="44.26712" lon="7.73584">
        <ele>811.97</ele>
        <time>2021-02-05T07:46:36Z</time>
      </trkpt>
      <trkpt lat="44.26712" lon="7.73584">
        <ele>812.93</ele>
        <time>2021-02-05T07:46:53Z</time>
      </trkpt>
      <trkpt lat="44.26712" lon="7.73583">
        <ele>814.37</ele>
        <time>2021-02-05T07:47:06Z</time>
      </trkpt>
      <trkpt lat="44.26714" lon="7.73584">
        <ele>813.89</ele>
        <time>2021-02-05T07:47:14Z</time>
      </trkpt>
      <trkpt lat="44.26711" lon="7.73581">
        <ele>814.85</ele>
        <time>2021-02-05T07:47:26Z</time>
      </trkpt>
      <trkpt lat="44.26709" lon="7.73581">
        <ele>815.34</ele>
        <time>2021-02-05T07:47:28Z</time>
      </trkpt>
      <trkpt lat="44.26707" lon="7.73582">
        <ele>814.85</ele>
        <time>2021-02-05T07:47:33Z</time>
      </trkpt>
      <trkpt lat="44.26711" lon="7.73581">
        <ele>814.37</ele>
        <time>2021-02-05T07:47:44Z</time>
      </trkpt>
      <trkpt lat="44.26711" lon="7.73584">
        <ele>814.37</ele>
        <time>2021-02-05T07:47:54Z</time>
      </trkpt>
      <trkpt lat="44.26711" lon="7.73584">
        <ele>814.37</ele>
        <time>2021-02-05T07:48:09Z</time>
      </trkpt>
      <trkpt lat="44.26713" lon="7.73584">
        <ele>816.78</ele>
        <time>2021-02-05T07:48:26Z</time>
      </trkpt>
      <trkpt lat="44.26712" lon="7.73584">
        <ele>817.26</ele>
        <time>2021-02-05T07:48:38Z</time>
      </trkpt>
      <trkpt lat="44.26712" lon="7.73582">
        <ele>816.78</ele>
        <time>2021-02-05T07:48:49Z</time>
      </trkpt>
      <trkpt lat="44.26711" lon="7.7358">
        <ele>816.3</ele>
        <time>2021-02-05T07:48:51Z</time>
      </trkpt>
      <trkpt lat="44.26707" lon="7.73579">
        <ele>817.74</ele>
        <time>2021-02-05T07:48:57Z</time>
      </trkpt>
      <trkpt lat="44.26705" lon="7.73575">
        <ele>818.22</ele>
        <time>2021-02-05T07:49:07Z</time>
      </trkpt>
      <trkpt lat="44.26703" lon="7.73567">
        <ele>818.7</ele>
        <time>2021-02-05T07:49:19Z</time>
      </trkpt>
      <trkpt lat="44.26702" lon="7.73567">
        <ele>817.74</ele>
        <time>2021-02-05T07:49:31Z</time>
      </trkpt>
      <trkpt lat="44.26702" lon="7.73565">
        <ele>817.74</ele>
        <time>2021-02-05T07:49:42Z</time>
      </trkpt>
      <trkpt lat="44.26701" lon="7.73567">
        <ele>816.3</ele>
        <time>2021-02-05T07:49:55Z</time>
      </trkpt>
      <trkpt lat="44.26701" lon="7.73568">
        <ele>816.3</ele>
        <time>2021-02-05T07:50:14Z</time>
      </trkpt>
      <trkpt lat="44.267" lon="7.7357">
        <ele>817.74</ele>
        <time>2021-02-05T07:50:26Z</time>
      </trkpt>
      <trkpt lat="44.267" lon="7.73576">
        <ele>817.26</ele>
        <time>2021-02-05T07:50:38Z</time>
      </trkpt>
      <trkpt lat="44.267" lon="7.73583">
        <ele>818.7</ele>
        <time>2021-02-05T07:50:50Z</time>
      </trkpt>
      <trkpt lat="44.26699" lon="7.73587">
        <ele>821.1</ele>
        <time>2021-02-05T07:51:02Z</time>
      </trkpt>
      <trkpt lat="44.26699" lon="7.73593">
        <ele>821.1</ele>
        <time>2021-02-05T07:51:15Z</time>
      </trkpt>
      <trkpt lat="44.26699" lon="7.73597">
        <ele>821.58</ele>
        <time>2021-02-05T07:51:25Z</time>
      </trkpt>
      <trkpt lat="44.26703" lon="7.73612">
        <ele>820.62</ele>
        <time>2021-02-05T07:51:40Z</time>
      </trkpt>
      <trkpt lat="44.26705" lon="7.73619">
        <ele>819.66</ele>
        <time>2021-02-05T07:51:55Z</time>
      </trkpt>
      <trkpt lat="44.26706" lon="7.73629">
        <ele>818.22</ele>
        <time>2021-02-05T07:52:07Z</time>
      </trkpt>
      <trkpt lat="44.2671" lon="7.73637">
        <ele>817.74</ele>
        <time>2021-02-05T07:52:16Z</time>
      </trkpt>
      <trkpt lat="44.2671" lon="7.73641">
        <ele>817.26</ele>
        <time>2021-02-05T07:52:22Z</time>
      </trkpt>
      <trkpt lat="44.2671" lon="7.73648">
        <ele>817.26</ele>
        <time>2021-02-05T07:52:31Z</time>
      </trkpt>
      <trkpt lat="44.26712" lon="7.73651">
        <ele>816.3</ele>
        <time>2021-02-05T07:52:35Z</time>
      </trkpt>
      <trkpt lat="44.26719" lon="7.73663">
        <ele>815.34</ele>
        <time>2021-02-05T07:52:46Z</time>
      </trkpt>
      <trkpt lat="44.26716" lon="7.73671">
        <ele>815.34</ele>
        <time>2021-02-05T07:52:57Z</time>
      </trkpt>
      <trkpt lat="44.26711" lon="7.73679">
        <ele>817.26</ele>
        <time>2021-02-05T07:53:10Z</time>
      </trkpt>
      <trkpt lat="44.26707" lon="7.73689">
        <ele>818.22</ele>
        <time>2021-02-05T07:53:21Z</time>
      </trkpt>
      <trkpt lat="44.26705" lon="7.737">
        <ele>820.14</ele>
        <time>2021-02-05T07:53:33Z</time>
      </trkpt>
      <trkpt lat="44.26705" lon="7.73707">
        <ele>822.06</ele>
        <time>2021-02-05T07:53:42Z</time>
      </trkpt>
      <trkpt lat="44.26707" lon="7.73715">
        <ele>822.55</ele>
        <time>2021-02-05T07:53:49Z</time>
      </trkpt>
      <trkpt lat="44.2671" lon="7.73721">
        <ele>822.55</ele>
        <time>2021-02-05T07:53:54Z</time>
      </trkpt>
      <trkpt lat="44.26717" lon="7.73735">
        <ele>822.55</ele>
        <time>2021-02-05T07:54:08Z</time>
      </trkpt>
      <trkpt lat="44.26723" lon="7.73743">
        <ele>823.51</ele>
        <time>2021-02-05T07:54:18Z</time>
      </trkpt>
      <trkpt lat="44.26729" lon="7.73751">
        <ele>823.99</ele>
        <time>2021-02-05T07:54:26Z</time>
      </trkpt>
      <trkpt lat="44.2674" lon="7.73764">
        <ele>823.51</ele>
        <time>2021-02-05T07:54:40Z</time>
      </trkpt>
      <trkpt lat="44.26749" lon="7.73775">
        <ele>823.51</ele>
        <time>2021-02-05T07:54:52Z</time>
      </trkpt>
      <trkpt lat="44.26762" lon="7.73787">
        <ele>824.95</ele>
        <time>2021-02-05T07:55:06Z</time>
      </trkpt>
      <trkpt lat="44.26763" lon="7.73788">
        <ele>825.43</ele>
        <time>2021-02-05T07:55:08Z</time>
      </trkpt>
      <trkpt lat="44.26771" lon="7.73793">
        <ele>827.35</ele>
        <time>2021-02-05T07:55:17Z</time>
      </trkpt>
      <trkpt lat="44.26778" lon="7.73801">
        <ele>827.83</ele>
        <time>2021-02-05T07:55:24Z</time>
      </trkpt>
      <trkpt lat="44.26784" lon="7.73808">
        <ele>827.35</ele>
        <time>2021-02-05T07:55:30Z</time>
      </trkpt>
      <trkpt lat="44.26787" lon="7.73811">
        <ele>827.83</ele>
        <time>2021-02-05T07:55:34Z</time>
      </trkpt>
      <trkpt lat="44.2679" lon="7.73815">
        <ele>826.87</ele>
        <time>2021-02-05T07:55:39Z</time>
      </trkpt>
      <trkpt lat="44.26794" lon="7.73819">
        <ele>827.35</ele>
        <time>2021-02-05T07:55:44Z</time>
      </trkpt>
      <trkpt lat="44.26798" lon="7.73821">
        <ele>827.35</ele>
        <time>2021-02-05T07:55:48Z</time>
      </trkpt>
      <trkpt lat="44.26801" lon="7.73826">
        <ele>827.35</ele>
        <time>2021-02-05T07:55:53Z</time>
      </trkpt>
      <trkpt lat="44.26809" lon="7.73831">
        <ele>828.79</ele>
        <time>2021-02-05T07:56:04Z</time>
      </trkpt>
      <trkpt lat="44.26819" lon="7.73842">
        <ele>828.79</ele>
        <time>2021-02-05T07:56:16Z</time>
      </trkpt>
      <trkpt lat="44.26828" lon="7.73851">
        <ele>829.27</ele>
        <time>2021-02-05T07:56:29Z</time>
      </trkpt>
      <trkpt lat="44.26832" lon="7.73855">
        <ele>830.24</ele>
        <time>2021-02-05T07:56:36Z</time>
      </trkpt>
      <trkpt lat="44.26836" lon="7.73859">
        <ele>830.24</ele>
        <time>2021-02-05T07:56:40Z</time>
      </trkpt>
      <trkpt lat="44.26845" lon="7.73864">
        <ele>830.24</ele>
        <time>2021-02-05T07:56:50Z</time>
      </trkpt>
      <trkpt lat="44.26853" lon="7.7387">
        <ele>831.68</ele>
        <time>2021-02-05T07:56:59Z</time>
      </trkpt>
      <trkpt lat="44.26856" lon="7.73873">
        <ele>832.16</ele>
        <time>2021-02-05T07:57:03Z</time>
      </trkpt>
      <trkpt lat="44.2686" lon="7.73878">
        <ele>833.12</ele>
        <time>2021-02-05T07:57:08Z</time>
      </trkpt>
      <trkpt lat="44.26865" lon="7.73885">
        <ele>833.12</ele>
        <time>2021-02-05T07:57:14Z</time>
      </trkpt>
      <trkpt lat="44.26871" lon="7.73895">
        <ele>832.16</ele>
        <time>2021-02-05T07:57:24Z</time>
      </trkpt>
      <trkpt lat="44.26873" lon="7.73899">
        <ele>832.16</ele>
        <time>2021-02-05T07:57:28Z</time>
      </trkpt>
      <trkpt lat="44.26878" lon="7.73904">
        <ele>832.64</ele>
        <time>2021-02-05T07:57:33Z</time>
      </trkpt>
      <trkpt lat="44.26886" lon="7.73913">
        <ele>833.6</ele>
        <time>2021-02-05T07:57:43Z</time>
      </trkpt>
      <trkpt lat="44.26894" lon="7.73922">
        <ele>833.6</ele>
        <time>2021-02-05T07:57:53Z</time>
      </trkpt>
      <trkpt lat="44.26899" lon="7.73926">
        <ele>833.6</ele>
        <time>2021-02-05T07:57:58Z</time>
      </trkpt>
      <trkpt lat="44.26907" lon="7.73937">
        <ele>833.6</ele>
        <time>2021-02-05T07:58:11Z</time>
      </trkpt>
      <trkpt lat="44.26908" lon="7.73939">
        <ele>833.6</ele>
        <time>2021-02-05T07:58:13Z</time>
      </trkpt>
      <trkpt lat="44.26912" lon="7.73943">
        <ele>835.04</ele>
        <time>2021-02-05T07:58:19Z</time>
      </trkpt>
      <trkpt lat="44.26917" lon="7.73948">
        <ele>835.52</ele>
        <time>2021-02-05T07:58:26Z</time>
      </trkpt>
      <trkpt lat="44.26926" lon="7.73959">
        <ele>836.96</ele>
        <time>2021-02-05T07:58:40Z</time>
      </trkpt>
      <trkpt lat="44.26935" lon="7.73969">
        <ele>838.41</ele>
        <time>2021-02-05T07:58:53Z</time>
      </trkpt>
      <trkpt lat="44.26937" lon="7.73972">
        <ele>838.89</ele>
        <time>2021-02-05T07:58:57Z</time>
      </trkpt>
      <trkpt lat="44.26942" lon="7.7398">
        <ele>839.37</ele>
        <time>2021-02-05T07:59:08Z</time>
      </trkpt>
      <trkpt lat="44.26946" lon="7.73989">
        <ele>842.73</ele>
        <time>2021-02-05T07:59:21Z</time>
      </trkpt>
      <trkpt lat="44.26951" lon="7.73999">
        <ele>842.73</ele>
        <time>2021-02-05T07:59:32Z</time>
      </trkpt>
      <trkpt lat="44.26955" lon="7.74007">
        <ele>844.18</ele>
        <time>2021-02-05T07:59:41Z</time>
      </trkpt>
      <trkpt lat="44.26958" lon="7.74016">
        <ele>845.14</ele>
        <time>2021-02-05T07:59:53Z</time>
      </trkpt>
      <trkpt lat="44.26961" lon="7.74022">
        <ele>846.58</ele>
        <time>2021-02-05T08:00:03Z</time>
      </trkpt>
      <trkpt lat="44.26963" lon="7.74024">
        <ele>847.06</ele>
        <time>2021-02-05T08:00:06Z</time>
      </trkpt>
      <trkpt lat="44.26968" lon="7.74037">
        <ele>847.06</ele>
        <time>2021-02-05T08:00:18Z</time>
      </trkpt>
      <trkpt lat="44.26973" lon="7.74051">
        <ele>848.02</ele>
        <time>2021-02-05T08:00:30Z</time>
      </trkpt>
      <trkpt lat="44.26976" lon="7.74056">
        <ele>848.5</ele>
        <time>2021-02-05T08:00:35Z</time>
      </trkpt>
      <trkpt lat="44.26979" lon="7.74059">
        <ele>849.94</ele>
        <time>2021-02-05T08:00:40Z</time>
      </trkpt>
      <trkpt lat="44.26984" lon="7.74067">
        <ele>851.87</ele>
        <time>2021-02-05T08:00:53Z</time>
      </trkpt>
      <trkpt lat="44.26991" lon="7.74077">
        <ele>852.83</ele>
        <time>2021-02-05T08:01:05Z</time>
      </trkpt>
      <trkpt lat="44.26995" lon="7.74083">
        <ele>854.75</ele>
        <time>2021-02-05T08:01:17Z</time>
      </trkpt>
      <trkpt lat="44.26996" lon="7.74093">
        <ele>859.08</ele>
        <time>2021-02-05T08:01:29Z</time>
      </trkpt>
      <trkpt lat="44.26996" lon="7.74101">
        <ele>864.36</ele>
        <time>2021-02-05T08:01:44Z</time>
      </trkpt>
      <trkpt lat="44.26996" lon="7.74111">
        <ele>868.69</ele>
        <time>2021-02-05T08:01:59Z</time>
      </trkpt>
      <trkpt lat="44.26992" lon="7.74121">
        <ele>871.09</ele>
        <time>2021-02-05T08:02:11Z</time>
      </trkpt>
      <trkpt lat="44.26988" lon="7.74127">
        <ele>872.53</ele>
        <time>2021-02-05T08:02:22Z</time>
      </trkpt>
      <trkpt lat="44.26987" lon="7.74128">
        <ele>873.5</ele>
        <time>2021-02-05T08:02:27Z</time>
      </trkpt>
      <trkpt lat="44.26981" lon="7.74132">
        <ele>875.9</ele>
        <time>2021-02-05T08:02:42Z</time>
      </trkpt>
      <trkpt lat="44.26978" lon="7.74133">
        <ele>877.82</ele>
        <time>2021-02-05T08:02:51Z</time>
      </trkpt>
      <trkpt lat="44.2698" lon="7.74135">
        <ele>875.42</ele>
        <time>2021-02-05T08:02:59Z</time>
      </trkpt>
      <trkpt lat="44.26976" lon="7.74134">
        <ele>874.46</ele>
        <time>2021-02-05T08:03:21Z</time>
      </trkpt>
      <trkpt lat="44.26977" lon="7.74133">
        <ele>877.34</ele>
        <time>2021-02-05T08:03:35Z</time>
      </trkpt>
      <trkpt lat="44.26979" lon="7.74132">
        <ele>875.42</ele>
        <time>2021-02-05T08:03:54Z</time>
      </trkpt>
      <trkpt lat="44.26976" lon="7.74133">
        <ele>875.42</ele>
        <time>2021-02-05T08:04:12Z</time>
      </trkpt>
      <trkpt lat="44.26975" lon="7.74132">
        <ele>873.01</ele>
        <time>2021-02-05T08:04:25Z</time>
      </trkpt>
      <trkpt lat="44.26975" lon="7.74132">
        <ele>873.5</ele>
        <time>2021-02-05T08:04:28Z</time>
      </trkpt>
      <trkpt lat="44.26972" lon="7.74132">
        <ele>875.9</ele>
        <time>2021-02-05T08:04:46Z</time>
      </trkpt>
      <trkpt lat="44.26975" lon="7.74133">
        <ele>876.38</ele>
        <time>2021-02-05T08:05:03Z</time>
      </trkpt>
      <trkpt lat="44.26966" lon="7.74139">
        <ele>877.82</ele>
        <time>2021-02-05T08:05:15Z</time>
      </trkpt>
      <trkpt lat="44.26958" lon="7.74144">
        <ele>880.22</ele>
        <time>2021-02-05T08:05:31Z</time>
      </trkpt>
      <trkpt lat="44.26953" lon="7.74147">
        <ele>882.63</ele>
        <time>2021-02-05T08:05:43Z</time>
      </trkpt>
      <trkpt lat="44.26945" lon="7.74152">
        <ele>884.55</ele>
        <time>2021-02-05T08:05:56Z</time>
      </trkpt>
      <trkpt lat="44.26941" lon="7.74156">
        <ele>885.51</ele>
        <time>2021-02-05T08:06:03Z</time>
      </trkpt>
      <trkpt lat="44.26933" lon="7.74162">
        <ele>886.95</ele>
        <time>2021-02-05T08:06:14Z</time>
      </trkpt>
      <trkpt lat="44.2693" lon="7.74164">
        <ele>887.43</ele>
        <time>2021-02-05T08:06:19Z</time>
      </trkpt>
      <trkpt lat="44.26923" lon="7.74169">
        <ele>888.88</ele>
        <time>2021-02-05T08:06:32Z</time>
      </trkpt>
      <trkpt lat="44.26919" lon="7.74173">
        <ele>890.8</ele>
        <time>2021-02-05T08:06:46Z</time>
      </trkpt>
      <trkpt lat="44.26916" lon="7.74178">
        <ele>893.2</ele>
        <time>2021-02-05T08:06:57Z</time>
      </trkpt>
      <trkpt lat="44.26912" lon="7.74185">
        <ele>895.12</ele>
        <time>2021-02-05T08:07:09Z</time>
      </trkpt>
      <trkpt lat="44.26908" lon="7.74191">
        <ele>897.05</ele>
        <time>2021-02-05T08:07:24Z</time>
      </trkpt>
      <trkpt lat="44.26904" lon="7.74197">
        <ele>899.45</ele>
        <time>2021-02-05T08:07:35Z</time>
      </trkpt>
      <trkpt lat="44.26897" lon="7.74209">
        <ele>902.33</ele>
        <time>2021-02-05T08:07:52Z</time>
      </trkpt>
      <trkpt lat="44.26892" lon="7.74217">
        <ele>903.3</ele>
        <time>2021-02-05T08:08:04Z</time>
      </trkpt>
      <trkpt lat="44.26885" lon="7.74234">
        <ele>905.7</ele>
        <time>2021-02-05T08:08:19Z</time>
      </trkpt>
      <trkpt lat="44.26882" lon="7.74241">
        <ele>907.14</ele>
        <time>2021-02-05T08:08:27Z</time>
      </trkpt>
      <trkpt lat="44.26881" lon="7.74245">
        <ele>907.62</ele>
        <time>2021-02-05T08:08:32Z</time>
      </trkpt>
      <trkpt lat="44.26873" lon="7.74255">
        <ele>909.06</ele>
        <time>2021-02-05T08:08:45Z</time>
      </trkpt>
      <trkpt lat="44.26868" lon="7.74267">
        <ele>911.95</ele>
        <time>2021-02-05T08:08:59Z</time>
      </trkpt>
      <trkpt lat="44.26861" lon="7.74279">
        <ele>913.39</ele>
        <time>2021-02-05T08:09:14Z</time>
      </trkpt>
      <trkpt lat="44.26855" lon="7.74291">
        <ele>915.31</ele>
        <time>2021-02-05T08:09:27Z</time>
      </trkpt>
      <trkpt lat="44.26853" lon="7.74296">
        <ele>915.79</ele>
        <time>2021-02-05T08:09:32Z</time>
      </trkpt>
      <trkpt lat="44.2685" lon="7.74301">
        <ele>915.79</ele>
        <time>2021-02-05T08:09:38Z</time>
      </trkpt>
      <trkpt lat="44.26846" lon="7.74315">
        <ele>918.2</ele>
        <time>2021-02-05T08:09:53Z</time>
      </trkpt>
      <trkpt lat="44.26843" lon="7.74321">
        <ele>919.16</ele>
        <time>2021-02-05T08:10:00Z</time>
      </trkpt>
      <trkpt lat="44.26835" lon="7.74332">
        <ele>920.6</ele>
        <time>2021-02-05T08:10:15Z</time>
      </trkpt>
      <trkpt lat="44.26827" lon="7.74338">
        <ele>922.04</ele>
        <time>2021-02-05T08:10:30Z</time>
      </trkpt>
      <trkpt lat="44.2682" lon="7.74345">
        <ele>924.45</ele>
        <time>2021-02-05T08:10:43Z</time>
      </trkpt>
      <trkpt lat="44.26812" lon="7.74353">
        <ele>926.37</ele>
        <time>2021-02-05T08:10:58Z</time>
      </trkpt>
      <trkpt lat="44.26803" lon="7.74358">
        <ele>928.29</ele>
        <time>2021-02-05T08:11:13Z</time>
      </trkpt>
      <trkpt lat="44.26796" lon="7.74363">
        <ele>930.69</ele>
        <time>2021-02-05T08:11:25Z</time>
      </trkpt>
      <trkpt lat="44.26787" lon="7.7437">
        <ele>932.62</ele>
        <time>2021-02-05T08:11:40Z</time>
      </trkpt>
      <trkpt lat="44.26786" lon="7.74371">
        <ele>932.62</ele>
        <time>2021-02-05T08:11:41Z</time>
      </trkpt>
      <trkpt lat="44.26782" lon="7.74381">
        <ele>933.1</ele>
        <time>2021-02-05T08:11:55Z</time>
      </trkpt>
      <trkpt lat="44.26779" lon="7.74383">
        <ele>934.06</ele>
        <time>2021-02-05T08:12:00Z</time>
      </trkpt>
      <trkpt lat="44.26771" lon="7.74395">
        <ele>935.98</ele>
        <time>2021-02-05T08:12:16Z</time>
      </trkpt>
      <trkpt lat="44.26769" lon="7.74406">
        <ele>936.94</ele>
        <time>2021-02-05T08:12:28Z</time>
      </trkpt>
      <trkpt lat="44.26765" lon="7.74417">
        <ele>938.86</ele>
        <time>2021-02-05T08:12:45Z</time>
      </trkpt>
      <trkpt lat="44.2676" lon="7.74428">
        <ele>940.79</ele>
        <time>2021-02-05T08:12:59Z</time>
      </trkpt>
      <trkpt lat="44.26756" lon="7.74439">
        <ele>944.15</ele>
        <time>2021-02-05T08:13:14Z</time>
      </trkpt>
      <trkpt lat="44.26753" lon="7.74452">
        <ele>947.52</ele>
        <time>2021-02-05T08:13:32Z</time>
      </trkpt>
      <trkpt lat="44.26747" lon="7.74464">
        <ele>949.92</ele>
        <time>2021-02-05T08:13:49Z</time>
      </trkpt>
      <trkpt lat="44.26734" lon="7.74476">
        <ele>946.56</ele>
        <time>2021-02-05T08:14:04Z</time>
      </trkpt>
      <trkpt lat="44.26729" lon="7.74484">
        <ele>947.52</ele>
        <time>2021-02-05T08:14:18Z</time>
      </trkpt>
      <trkpt lat="44.26721" lon="7.7449">
        <ele>951.84</ele>
        <time>2021-02-05T08:14:36Z</time>
      </trkpt>
      <trkpt lat="44.26714" lon="7.74496">
        <ele>953.77</ele>
        <time>2021-02-05T08:14:49Z</time>
      </trkpt>
      <trkpt lat="44.26704" lon="7.74501">
        <ele>957.13</ele>
        <time>2021-02-05T08:15:05Z</time>
      </trkpt>
      <trkpt lat="44.26698" lon="7.74503">
        <ele>959.53</ele>
        <time>2021-02-05T08:15:22Z</time>
      </trkpt>
      <trkpt lat="44.26692" lon="7.74508">
        <ele>960.49</ele>
        <time>2021-02-05T08:15:34Z</time>
      </trkpt>
      <trkpt lat="44.26684" lon="7.74514">
        <ele>962.42</ele>
        <time>2021-02-05T08:15:49Z</time>
      </trkpt>
      <trkpt lat="44.26676" lon="7.74522">
        <ele>964.82</ele>
        <time>2021-02-05T08:16:04Z</time>
      </trkpt>
      <trkpt lat="44.26668" lon="7.74529">
        <ele>967.22</ele>
        <time>2021-02-05T08:16:21Z</time>
      </trkpt>
      <trkpt lat="44.26661" lon="7.74539">
        <ele>970.11</ele>
        <time>2021-02-05T08:16:35Z</time>
      </trkpt>
      <trkpt lat="44.26658" lon="7.74547">
        <ele>973.47</ele>
        <time>2021-02-05T08:16:48Z</time>
      </trkpt>
      <trkpt lat="44.26657" lon="7.7456">
        <ele>975.88</ele>
        <time>2021-02-05T08:17:02Z</time>
      </trkpt>
      <trkpt lat="44.26657" lon="7.74571">
        <ele>977.8</ele>
        <time>2021-02-05T08:17:15Z</time>
      </trkpt>
      <trkpt lat="44.26653" lon="7.74584">
        <ele>981.64</ele>
        <time>2021-02-05T08:17:31Z</time>
      </trkpt>
      <trkpt lat="44.26647" lon="7.74596">
        <ele>982.6</ele>
        <time>2021-02-05T08:17:44Z</time>
      </trkpt>
      <trkpt lat="44.26644" lon="7.74607">
        <ele>983.57</ele>
        <time>2021-02-05T08:17:57Z</time>
      </trkpt>
      <trkpt lat="44.26638" lon="7.74615">
        <ele>985.49</ele>
        <time>2021-02-05T08:18:08Z</time>
      </trkpt>
      <trkpt lat="44.26632" lon="7.74623">
        <ele>988.37</ele>
        <time>2021-02-05T08:18:23Z</time>
      </trkpt>
      <trkpt lat="44.26626" lon="7.74631">
        <ele>990.3</ele>
        <time>2021-02-05T08:18:37Z</time>
      </trkpt>
      <trkpt lat="44.2662" lon="7.74638">
        <ele>991.26</ele>
        <time>2021-02-05T08:18:49Z</time>
      </trkpt>
      <trkpt lat="44.26612" lon="7.74642">
        <ele>993.18</ele>
        <time>2021-02-05T08:19:01Z</time>
      </trkpt>
      <trkpt lat="44.26605" lon="7.74648">
        <ele>996.54</ele>
        <time>2021-02-05T08:19:15Z</time>
      </trkpt>
      <trkpt lat="44.26599" lon="7.74653">
        <ele>997.99</ele>
        <time>2021-02-05T08:19:28Z</time>
      </trkpt>
      <trkpt lat="44.2659" lon="7.74657">
        <ele>999.91</ele>
        <time>2021-02-05T08:19:41Z</time>
      </trkpt>
      <trkpt lat="44.26582" lon="7.74662">
        <ele>1002.79</ele>
        <time>2021-02-05T08:19:54Z</time>
      </trkpt>
      <trkpt lat="44.26576" lon="7.74668">
        <ele>1003.27</ele>
        <time>2021-02-05T08:20:07Z</time>
      </trkpt>
      <trkpt lat="44.26572" lon="7.74674">
        <ele>1003.75</ele>
        <time>2021-02-05T08:20:18Z</time>
      </trkpt>
      <trkpt lat="44.26566" lon="7.74683">
        <ele>1004.72</ele>
        <time>2021-02-05T08:20:35Z</time>
      </trkpt>
      <trkpt lat="44.26559" lon="7.74692">
        <ele>1005.2</ele>
        <time>2021-02-05T08:20:50Z</time>
      </trkpt>
      <trkpt lat="44.26549" lon="7.74698">
        <ele>1005.2</ele>
        <time>2021-02-05T08:21:05Z</time>
      </trkpt>
      <trkpt lat="44.26542" lon="7.74703">
        <ele>1006.64</ele>
        <time>2021-02-05T08:21:18Z</time>
      </trkpt>
      <trkpt lat="44.26534" lon="7.74708">
        <ele>1009.04</ele>
        <time>2021-02-05T08:21:31Z</time>
      </trkpt>
      <trkpt lat="44.26525" lon="7.74717">
        <ele>1011.93</ele>
        <time>2021-02-05T08:21:47Z</time>
      </trkpt>
      <trkpt lat="44.26518" lon="7.74723">
        <ele>1015.29</ele>
        <time>2021-02-05T08:22:02Z</time>
      </trkpt>
      <trkpt lat="44.26512" lon="7.74731">
        <ele>1017.21</ele>
        <time>2021-02-05T08:22:15Z</time>
      </trkpt>
      <trkpt lat="44.26505" lon="7.7474">
        <ele>1023.46</ele>
        <time>2021-02-05T08:22:35Z</time>
      </trkpt>
      <trkpt lat="44.26498" lon="7.74751">
        <ele>1027.79</ele>
        <time>2021-02-05T08:22:53Z</time>
      </trkpt>
      <trkpt lat="44.26492" lon="7.74761">
        <ele>1031.15</ele>
        <time>2021-02-05T08:23:08Z</time>
      </trkpt>
      <trkpt lat="44.26484" lon="7.74772">
        <ele>1032.11</ele>
        <time>2021-02-05T08:23:24Z</time>
      </trkpt>
      <trkpt lat="44.26476" lon="7.74781">
        <ele>1033.55</ele>
        <time>2021-02-05T08:23:41Z</time>
      </trkpt>
      <trkpt lat="44.26468" lon="7.74788">
        <ele>1034.52</ele>
        <time>2021-02-05T08:23:55Z</time>
      </trkpt>
      <trkpt lat="44.26461" lon="7.74795">
        <ele>1034.04</ele>
        <time>2021-02-05T08:24:11Z</time>
      </trkpt>
      <trkpt lat="44.26452" lon="7.74801">
        <ele>1033.07</ele>
        <time>2021-02-05T08:24:25Z</time>
      </trkpt>
      <trkpt lat="44.26445" lon="7.74806">
        <ele>1034.04</ele>
        <time>2021-02-05T08:24:37Z</time>
      </trkpt>
      <trkpt lat="44.26438" lon="7.74808">
        <ele>1035</ele>
        <time>2021-02-05T08:24:49Z</time>
      </trkpt>
      <trkpt lat="44.26438" lon="7.74808">
        <ele>1035</ele>
        <time>2021-02-05T08:25:07Z</time>
      </trkpt>
      <trkpt lat="44.26436" lon="7.7481">
        <ele>1035.96</ele>
        <time>2021-02-05T08:25:21Z</time>
      </trkpt>
      <trkpt lat="44.26427" lon="7.74812">
        <ele>1037.4</ele>
        <time>2021-02-05T08:25:33Z</time>
      </trkpt>
      <trkpt lat="44.26417" lon="7.74812">
        <ele>1039.32</ele>
        <time>2021-02-05T08:25:47Z</time>
      </trkpt>
      <trkpt lat="44.26409" lon="7.74811">
        <ele>1041.73</ele>
        <time>2021-02-05T08:26:00Z</time>
      </trkpt>
      <trkpt lat="44.264" lon="7.74811">
        <ele>1046.05</ele>
        <time>2021-02-05T08:26:15Z</time>
      </trkpt>
      <trkpt lat="44.2639" lon="7.74808">
        <ele>1047.97</ele>
        <time>2021-02-05T08:26:28Z</time>
      </trkpt>
      <trkpt lat="44.26383" lon="7.74808">
        <ele>1051.82</ele>
        <time>2021-02-05T08:26:43Z</time>
      </trkpt>
      <trkpt lat="44.26377" lon="7.74806">
        <ele>1054.7</ele>
        <time>2021-02-05T08:26:54Z</time>
      </trkpt>
      <trkpt lat="44.26371" lon="7.74804">
        <ele>1059.51</ele>
        <time>2021-02-05T08:27:07Z</time>
      </trkpt>
      <trkpt lat="44.26368" lon="7.74802">
        <ele>1064.32</ele>
        <time>2021-02-05T08:27:20Z</time>
      </trkpt>
      <trkpt lat="44.26354" lon="7.748">
        <ele>1064.8</ele>
        <time>2021-02-05T08:27:35Z</time>
      </trkpt>
      <trkpt lat="44.26352" lon="7.748">
        <ele>1064.8</ele>
        <time>2021-02-05T08:27:37Z</time>
      </trkpt>
      <trkpt lat="44.26344" lon="7.74797">
        <ele>1065.28</ele>
        <time>2021-02-05T08:27:48Z</time>
      </trkpt>
      <trkpt lat="44.26336" lon="7.74793">
        <ele>1066.72</ele>
        <time>2021-02-05T08:28:04Z</time>
      </trkpt>
      <trkpt lat="44.26328" lon="7.74793">
        <ele>1066.24</ele>
        <time>2021-02-05T08:28:18Z</time>
      </trkpt>
      <trkpt lat="44.26322" lon="7.7479">
        <ele>1068.64</ele>
        <time>2021-02-05T08:28:32Z</time>
      </trkpt>
      <trkpt lat="44.26315" lon="7.74786">
        <ele>1070.08</ele>
        <time>2021-02-05T08:28:44Z</time>
      </trkpt>
      <trkpt lat="44.26307" lon="7.74783">
        <ele>1075.37</ele>
        <time>2021-02-05T08:28:59Z</time>
      </trkpt>
      <trkpt lat="44.26298" lon="7.74781">
        <ele>1077.29</ele>
        <time>2021-02-05T08:29:12Z</time>
      </trkpt>
      <trkpt lat="44.26291" lon="7.74778">
        <ele>1077.78</ele>
        <time>2021-02-05T08:29:24Z</time>
      </trkpt>
      <trkpt lat="44.26287" lon="7.74778">
        <ele>1080.66</ele>
        <time>2021-02-05T08:29:35Z</time>
      </trkpt>
      <trkpt lat="44.2628" lon="7.74778">
        <ele>1083.06</ele>
        <time>2021-02-05T08:29:49Z</time>
      </trkpt>
      <trkpt lat="44.26276" lon="7.74779">
        <ele>1083.54</ele>
        <time>2021-02-05T08:30:03Z</time>
      </trkpt>
      <trkpt lat="44.26274" lon="7.74778">
        <ele>1083.54</ele>
        <time>2021-02-05T08:30:19Z</time>
      </trkpt>
      <trkpt lat="44.26267" lon="7.74778">
        <ele>1084.99</ele>
        <time>2021-02-05T08:30:30Z</time>
      </trkpt>
      <trkpt lat="44.26259" lon="7.74777">
        <ele>1087.87</ele>
        <time>2021-02-05T08:30:44Z</time>
      </trkpt>
      <trkpt lat="44.26255" lon="7.74779">
        <ele>1089.79</ele>
        <time>2021-02-05T08:30:57Z</time>
      </trkpt>
      <trkpt lat="44.26248" lon="7.74781">
        <ele>1090.27</ele>
        <time>2021-02-05T08:31:10Z</time>
      </trkpt>
      <trkpt lat="44.26241" lon="7.74783">
        <ele>1093.64</ele>
        <time>2021-02-05T08:31:26Z</time>
      </trkpt>
      <trkpt lat="44.26235" lon="7.74787">
        <ele>1093.16</ele>
        <time>2021-02-05T08:31:38Z</time>
      </trkpt>
      <trkpt lat="44.26229" lon="7.74791">
        <ele>1094.6</ele>
        <time>2021-02-05T08:31:49Z</time>
      </trkpt>
      <trkpt lat="44.26226" lon="7.74794">
        <ele>1095.08</ele>
        <time>2021-02-05T08:32:04Z</time>
      </trkpt>
      <trkpt lat="44.2622" lon="7.74797">
        <ele>1097.48</ele>
        <time>2021-02-05T08:32:18Z</time>
      </trkpt>
      <trkpt lat="44.26213" lon="7.74802">
        <ele>1100.37</ele>
        <time>2021-02-05T08:32:31Z</time>
      </trkpt>
      <trkpt lat="44.26209" lon="7.74806">
        <ele>1102.29</ele>
        <time>2021-02-05T08:32:44Z</time>
      </trkpt>
      <trkpt lat="44.26205" lon="7.74811">
        <ele>1104.21</ele>
        <time>2021-02-05T08:32:55Z</time>
      </trkpt>
      <trkpt lat="44.262" lon="7.74815">
        <ele>1106.61</ele>
        <time>2021-02-05T08:33:10Z</time>
      </trkpt>
      <trkpt lat="44.26196" lon="7.74817">
        <ele>1108.54</ele>
        <time>2021-02-05T08:33:21Z</time>
      </trkpt>
      <trkpt lat="44.2619" lon="7.7482">
        <ele>1110.94</ele>
        <time>2021-02-05T08:33:34Z</time>
      </trkpt>
      <trkpt lat="44.26184" lon="7.74824">
        <ele>1113.34</ele>
        <time>2021-02-05T08:33:46Z</time>
      </trkpt>
      <trkpt lat="44.26179" lon="7.74828">
        <ele>1114.31</ele>
        <time>2021-02-05T08:33:59Z</time>
      </trkpt>
      <trkpt lat="44.26174" lon="7.74832">
        <ele>1116.23</ele>
        <time>2021-02-05T08:34:14Z</time>
      </trkpt>
      <trkpt lat="44.26169" lon="7.74836">
        <ele>1120.07</ele>
        <time>2021-02-05T08:34:29Z</time>
      </trkpt>
      <trkpt lat="44.26161" lon="7.74839">
        <ele>1122.48</ele>
        <time>2021-02-05T08:34:42Z</time>
      </trkpt>
      <trkpt lat="44.26154" lon="7.74842">
        <ele>1124.88</ele>
        <time>2021-02-05T08:34:58Z</time>
      </trkpt>
      <trkpt lat="44.26148" lon="7.74844">
        <ele>1125.84</ele>
        <time>2021-02-05T08:35:11Z</time>
      </trkpt>
      <trkpt lat="44.26141" lon="7.74848">
        <ele>1126.8</ele>
        <time>2021-02-05T08:35:24Z</time>
      </trkpt>
      <trkpt lat="44.26134" lon="7.7485">
        <ele>1129.21</ele>
        <time>2021-02-05T08:35:37Z</time>
      </trkpt>
      <trkpt lat="44.26127" lon="7.74852">
        <ele>1130.65</ele>
        <time>2021-02-05T08:35:51Z</time>
      </trkpt>
      <trkpt lat="44.26119" lon="7.74853">
        <ele>1132.57</ele>
        <time>2021-02-05T08:36:06Z</time>
      </trkpt>
      <trkpt lat="44.26113" lon="7.74857">
        <ele>1136.9</ele>
        <time>2021-02-05T08:36:23Z</time>
      </trkpt>
      <trkpt lat="44.26106" lon="7.74861">
        <ele>1138.34</ele>
        <time>2021-02-05T08:36:35Z</time>
      </trkpt>
      <trkpt lat="44.261" lon="7.74865">
        <ele>1140.26</ele>
        <time>2021-02-05T08:36:49Z</time>
      </trkpt>
      <trkpt lat="44.26093" lon="7.74869">
        <ele>1142.66</ele>
        <time>2021-02-05T08:37:03Z</time>
      </trkpt>
      <trkpt lat="44.26087" lon="7.74871">
        <ele>1145.55</ele>
        <time>2021-02-05T08:37:14Z</time>
      </trkpt>
      <trkpt lat="44.26082" lon="7.74873">
        <ele>1145.55</ele>
        <time>2021-02-05T08:37:27Z</time>
      </trkpt>
      <trkpt lat="44.26077" lon="7.74876">
        <ele>1146.99</ele>
        <time>2021-02-05T08:37:39Z</time>
      </trkpt>
      <trkpt lat="44.26071" lon="7.74881">
        <ele>1150.84</ele>
        <time>2021-02-05T08:37:54Z</time>
      </trkpt>
      <trkpt lat="44.26065" lon="7.74884">
        <ele>1150.84</ele>
        <time>2021-02-05T08:38:03Z</time>
      </trkpt>
      <trkpt lat="44.26061" lon="7.74886">
        <ele>1153.24</ele>
        <time>2021-02-05T08:38:16Z</time>
      </trkpt>
      <trkpt lat="44.26059" lon="7.74888">
        <ele>1154.68</ele>
        <time>2021-02-05T08:38:29Z</time>
      </trkpt>
      <trkpt lat="44.26055" lon="7.7489">
        <ele>1155.16</ele>
        <time>2021-02-05T08:38:47Z</time>
      </trkpt>
      <trkpt lat="44.26049" lon="7.74894">
        <ele>1158.05</ele>
        <time>2021-02-05T08:39:01Z</time>
      </trkpt>
      <trkpt lat="44.26043" lon="7.74897">
        <ele>1160.45</ele>
        <time>2021-02-05T08:39:14Z</time>
      </trkpt>
      <trkpt lat="44.26037" lon="7.74899">
        <ele>1161.89</ele>
        <time>2021-02-05T08:39:27Z</time>
      </trkpt>
      <trkpt lat="44.26031" lon="7.74902">
        <ele>1164.77</ele>
        <time>2021-02-05T08:39:42Z</time>
      </trkpt>
      <trkpt lat="44.26026" lon="7.74907">
        <ele>1166.7</ele>
        <time>2021-02-05T08:39:55Z</time>
      </trkpt>
      <trkpt lat="44.2602" lon="7.74911">
        <ele>1169.1</ele>
        <time>2021-02-05T08:40:09Z</time>
      </trkpt>
      <trkpt lat="44.26014" lon="7.74913">
        <ele>1170.06</ele>
        <time>2021-02-05T08:40:21Z</time>
      </trkpt>
      <trkpt lat="44.26008" lon="7.74917">
        <ele>1171.98</ele>
        <time>2021-02-05T08:40:34Z</time>
      </trkpt>
      <trkpt lat="44.26005" lon="7.74921">
        <ele>1173.43</ele>
        <time>2021-02-05T08:40:45Z</time>
      </trkpt>
      <trkpt lat="44.26" lon="7.74924">
        <ele>1176.31</ele>
        <time>2021-02-05T08:40:57Z</time>
      </trkpt>
      <trkpt lat="44.25994" lon="7.74928">
        <ele>1178.23</ele>
        <time>2021-02-05T08:41:09Z</time>
      </trkpt>
      <trkpt lat="44.2599" lon="7.74932">
        <ele>1180.64</ele>
        <time>2021-02-05T08:41:23Z</time>
      </trkpt>
      <trkpt lat="44.25986" lon="7.74933">
        <ele>1182.56</ele>
        <time>2021-02-05T08:41:40Z</time>
      </trkpt>
      <trkpt lat="44.25986" lon="7.74936">
        <ele>1182.56</ele>
        <time>2021-02-05T08:42:02Z</time>
      </trkpt>
      <trkpt lat="44.2598" lon="7.74942">
        <ele>1183.04</ele>
        <time>2021-02-05T08:42:13Z</time>
      </trkpt>
      <trkpt lat="44.25976" lon="7.74945">
        <ele>1184.96</ele>
        <time>2021-02-05T08:42:25Z</time>
      </trkpt>
      <trkpt lat="44.25971" lon="7.74949">
        <ele>1187.37</ele>
        <time>2021-02-05T08:42:37Z</time>
      </trkpt>
      <trkpt lat="44.25966" lon="7.74953">
        <ele>1190.25</ele>
        <time>2021-02-05T08:42:51Z</time>
      </trkpt>
      <trkpt lat="44.25962" lon="7.74958">
        <ele>1193.13</ele>
        <time>2021-02-05T08:43:04Z</time>
      </trkpt>
      <trkpt lat="44.25957" lon="7.74963">
        <ele>1196.02</ele>
        <time>2021-02-05T08:43:17Z</time>
      </trkpt>
      <trkpt lat="44.25953" lon="7.74965">
        <ele>1197.46</ele>
        <time>2021-02-05T08:43:30Z</time>
      </trkpt>
      <trkpt lat="44.2595" lon="7.74974">
        <ele>1200.82</ele>
        <time>2021-02-05T08:43:44Z</time>
      </trkpt>
      <trkpt lat="44.25945" lon="7.74983">
        <ele>1201.79</ele>
        <time>2021-02-05T08:43:58Z</time>
      </trkpt>
      <trkpt lat="44.25941" lon="7.74993">
        <ele>1205.15</ele>
        <time>2021-02-05T08:44:16Z</time>
      </trkpt>
      <trkpt lat="44.25939" lon="7.75002">
        <ele>1204.67</ele>
        <time>2021-02-05T08:44:28Z</time>
      </trkpt>
      <trkpt lat="44.25934" lon="7.7501">
        <ele>1207.07</ele>
        <time>2021-02-05T08:44:48Z</time>
      </trkpt>
      <trkpt lat="44.25931" lon="7.75012">
        <ele>1210.92</ele>
        <time>2021-02-05T08:45:02Z</time>
      </trkpt>
      <trkpt lat="44.25925" lon="7.75013">
        <ele>1213.32</ele>
        <time>2021-02-05T08:45:13Z</time>
      </trkpt>
      <trkpt lat="44.25916" lon="7.75016">
        <ele>1215.72</ele>
        <time>2021-02-05T08:45:26Z</time>
      </trkpt>
      <trkpt lat="44.2591" lon="7.75018">
        <ele>1219.09</ele>
        <time>2021-02-05T08:45:42Z</time>
      </trkpt>
      <trkpt lat="44.25902" lon="7.75021">
        <ele>1220.05</ele>
        <time>2021-02-05T08:45:59Z</time>
      </trkpt>
      <trkpt lat="44.25897" lon="7.75029">
        <ele>1221.97</ele>
        <time>2021-02-05T08:46:11Z</time>
      </trkpt>
      <trkpt lat="44.2589" lon="7.75025">
        <ele>1222.93</ele>
        <time>2021-02-05T08:46:24Z</time>
      </trkpt>
      <trkpt lat="44.25884" lon="7.75021">
        <ele>1224.38</ele>
        <time>2021-02-05T08:46:36Z</time>
      </trkpt>
      <trkpt lat="44.25879" lon="7.75017">
        <ele>1228.22</ele>
        <time>2021-02-05T08:46:51Z</time>
      </trkpt>
      <trkpt lat="44.25875" lon="7.75016">
        <ele>1230.14</ele>
        <time>2021-02-05T08:47:03Z</time>
      </trkpt>
      <trkpt lat="44.25872" lon="7.75021">
        <ele>1231.11</ele>
        <time>2021-02-05T08:47:17Z</time>
      </trkpt>
      <trkpt lat="44.25872" lon="7.75024">
        <ele>1233.99</ele>
        <time>2021-02-05T08:47:37Z</time>
      </trkpt>
      <trkpt lat="44.25872" lon="7.75023">
        <ele>1233.03</ele>
        <time>2021-02-05T08:48:03Z</time>
      </trkpt>
      <trkpt lat="44.25871" lon="7.75024">
        <ele>1236.39</ele>
        <time>2021-02-05T08:48:34Z</time>
      </trkpt>
      <trkpt lat="44.25867" lon="7.75028">
        <ele>1237.35</ele>
        <time>2021-02-05T08:48:47Z</time>
      </trkpt>
      <trkpt lat="44.2586" lon="7.75033">
        <ele>1239.28</ele>
        <time>2021-02-05T08:49:03Z</time>
      </trkpt>
      <trkpt lat="44.25854" lon="7.75034">
        <ele>1241.2</ele>
        <time>2021-02-05T08:49:19Z</time>
      </trkpt>
      <trkpt lat="44.25846" lon="7.75026">
        <ele>1245.53</ele>
        <time>2021-02-05T08:49:33Z</time>
      </trkpt>
      <trkpt lat="44.2584" lon="7.75019">
        <ele>1247.45</ele>
        <time>2021-02-05T08:49:47Z</time>
      </trkpt>
      <trkpt lat="44.25837" lon="7.75024">
        <ele>1247.45</ele>
        <time>2021-02-05T08:49:52Z</time>
      </trkpt>
      <trkpt lat="44.25832" lon="7.75034">
        <ele>1247.45</ele>
        <time>2021-02-05T08:50:07Z</time>
      </trkpt>
      <trkpt lat="44.25827" lon="7.7504">
        <ele>1249.37</ele>
        <time>2021-02-05T08:50:19Z</time>
      </trkpt>
      <trkpt lat="44.25821" lon="7.75046">
        <ele>1251.77</ele>
        <time>2021-02-05T08:50:33Z</time>
      </trkpt>
      <trkpt lat="44.25821" lon="7.75048">
        <ele>1251.77</ele>
        <time>2021-02-05T08:50:49Z</time>
      </trkpt>
      <trkpt lat="44.25819" lon="7.75045">
        <ele>1250.33</ele>
        <time>2021-02-05T08:51:04Z</time>
      </trkpt>
      <trkpt lat="44.25814" lon="7.75049">
        <ele>1251.29</ele>
        <time>2021-02-05T08:51:16Z</time>
      </trkpt>
      <trkpt lat="44.25808" lon="7.75052">
        <ele>1254.66</ele>
        <time>2021-02-05T08:51:30Z</time>
      </trkpt>
      <trkpt lat="44.25802" lon="7.75048">
        <ele>1260.91</ele>
        <time>2021-02-05T08:51:48Z</time>
      </trkpt>
      <trkpt lat="44.25796" lon="7.75046">
        <ele>1264.75</ele>
        <time>2021-02-05T08:52:00Z</time>
      </trkpt>
      <trkpt lat="44.25791" lon="7.75052">
        <ele>1268.12</ele>
        <time>2021-02-05T08:52:18Z</time>
      </trkpt>
      <trkpt lat="44.25789" lon="7.75056">
        <ele>1269.08</ele>
        <time>2021-02-05T08:52:36Z</time>
      </trkpt>
      <trkpt lat="44.25783" lon="7.75057">
        <ele>1269.56</ele>
        <time>2021-02-05T08:52:50Z</time>
      </trkpt>
      <trkpt lat="44.2578" lon="7.75047">
        <ele>1271.96</ele>
        <time>2021-02-05T08:53:04Z</time>
      </trkpt>
      <trkpt lat="44.25776" lon="7.75043">
        <ele>1275.33</ele>
        <time>2021-02-05T08:53:20Z</time>
      </trkpt>
      <trkpt lat="44.25775" lon="7.75047">
        <ele>1276.29</ele>
        <time>2021-02-05T08:53:35Z</time>
      </trkpt>
      <trkpt lat="44.25772" lon="7.75046">
        <ele>1276.29</ele>
        <time>2021-02-05T08:53:52Z</time>
      </trkpt>
      <trkpt lat="44.2577" lon="7.75048">
        <ele>1276.29</ele>
        <time>2021-02-05T08:54:14Z</time>
      </trkpt>
      <trkpt lat="44.25762" lon="7.75051">
        <ele>1277.25</ele>
        <time>2021-02-05T08:54:29Z</time>
      </trkpt>
      <trkpt lat="44.25755" lon="7.75054">
        <ele>1280.61</ele>
        <time>2021-02-05T08:54:42Z</time>
      </trkpt>
      <trkpt lat="44.2575" lon="7.75049">
        <ele>1287.82</ele>
        <time>2021-02-05T08:54:59Z</time>
      </trkpt>
      <trkpt lat="44.25748" lon="7.75038">
        <ele>1290.71</ele>
        <time>2021-02-05T08:55:15Z</time>
      </trkpt>
      <trkpt lat="44.25746" lon="7.7504">
        <ele>1291.67</ele>
        <time>2021-02-05T08:55:32Z</time>
      </trkpt>
      <trkpt lat="44.2574" lon="7.75042">
        <ele>1294.55</ele>
        <time>2021-02-05T08:55:46Z</time>
      </trkpt>
      <trkpt lat="44.25733" lon="7.75044">
        <ele>1299.36</ele>
        <time>2021-02-05T08:56:01Z</time>
      </trkpt>
      <trkpt lat="44.25729" lon="7.75045">
        <ele>1301.76</ele>
        <time>2021-02-05T08:56:18Z</time>
      </trkpt>
      <trkpt lat="44.25724" lon="7.75048">
        <ele>1303.2</ele>
        <time>2021-02-05T08:56:30Z</time>
      </trkpt>
      <trkpt lat="44.25718" lon="7.7505">
        <ele>1304.17</ele>
        <time>2021-02-05T08:56:46Z</time>
      </trkpt>
      <trkpt lat="44.25713" lon="7.75043">
        <ele>1305.61</ele>
        <time>2021-02-05T08:57:00Z</time>
      </trkpt>
      <trkpt lat="44.2571" lon="7.75038">
        <ele>1307.53</ele>
        <time>2021-02-05T08:57:17Z</time>
      </trkpt>
      <trkpt lat="44.25705" lon="7.7503">
        <ele>1311.86</ele>
        <time>2021-02-05T08:57:33Z</time>
      </trkpt>
      <trkpt lat="44.25701" lon="7.75028">
        <ele>1313.78</ele>
        <time>2021-02-05T08:57:46Z</time>
      </trkpt>
      <trkpt lat="44.25695" lon="7.75033">
        <ele>1319.07</ele>
        <time>2021-02-05T08:57:58Z</time>
      </trkpt>
      <trkpt lat="44.25686" lon="7.75034">
        <ele>1322.43</ele>
        <time>2021-02-05T08:58:14Z</time>
      </trkpt>
      <trkpt lat="44.25679" lon="7.75034">
        <ele>1327.72</ele>
        <time>2021-02-05T08:58:35Z</time>
      </trkpt>
      <trkpt lat="44.25677" lon="7.75023">
        <ele>1327.24</ele>
        <time>2021-02-05T08:58:50Z</time>
      </trkpt>
      <trkpt lat="44.25673" lon="7.75014">
        <ele>1329.16</ele>
        <time>2021-02-05T08:59:06Z</time>
      </trkpt>
      <trkpt lat="44.25666" lon="7.75016">
        <ele>1332.52</ele>
        <time>2021-02-05T08:59:18Z</time>
      </trkpt>
      <trkpt lat="44.25659" lon="7.7502">
        <ele>1333.97</ele>
        <time>2021-02-05T08:59:30Z</time>
      </trkpt>
      <trkpt lat="44.25654" lon="7.75024">
        <ele>1337.81</ele>
        <time>2021-02-05T08:59:46Z</time>
      </trkpt>
      <trkpt lat="44.25652" lon="7.75018">
        <ele>1338.29</ele>
        <time>2021-02-05T08:59:57Z</time>
      </trkpt>
      <trkpt lat="44.25649" lon="7.75011">
        <ele>1339.73</ele>
        <time>2021-02-05T09:00:12Z</time>
      </trkpt>
      <trkpt lat="44.25647" lon="7.75004">
        <ele>1341.66</ele>
        <time>2021-02-05T09:00:26Z</time>
      </trkpt>
      <trkpt lat="44.25641" lon="7.75007">
        <ele>1342.62</ele>
        <time>2021-02-05T09:00:39Z</time>
      </trkpt>
      <trkpt lat="44.25637" lon="7.75001">
        <ele>1343.58</ele>
        <time>2021-02-05T09:00:52Z</time>
      </trkpt>
      <trkpt lat="44.25638" lon="7.74989">
        <ele>1345.5</ele>
        <time>2021-02-05T09:01:06Z</time>
      </trkpt>
      <trkpt lat="44.25641" lon="7.74981">
        <ele>1346.46</ele>
        <time>2021-02-05T09:01:18Z</time>
      </trkpt>
      <trkpt lat="44.25641" lon="7.74973">
        <ele>1346.46</ele>
        <time>2021-02-05T09:01:32Z</time>
      </trkpt>
      <trkpt lat="44.25636" lon="7.74972">
        <ele>1347.91</ele>
        <time>2021-02-05T09:01:45Z</time>
      </trkpt>
      <trkpt lat="44.2563" lon="7.74972">
        <ele>1348.87</ele>
        <time>2021-02-05T09:01:59Z</time>
      </trkpt>
      <trkpt lat="44.25626" lon="7.74975">
        <ele>1353.19</ele>
        <time>2021-02-05T09:02:17Z</time>
      </trkpt>
      <trkpt lat="44.25618" lon="7.74975">
        <ele>1354.63</ele>
        <time>2021-02-05T09:02:31Z</time>
      </trkpt>
      <trkpt lat="44.2561" lon="7.7497">
        <ele>1356.08</ele>
        <time>2021-02-05T09:02:46Z</time>
      </trkpt>
      <trkpt lat="44.25613" lon="7.74966">
        <ele>1357.52</ele>
        <time>2021-02-05T09:02:58Z</time>
      </trkpt>
      <trkpt lat="44.25616" lon="7.74958">
        <ele>1358</ele>
        <time>2021-02-05T09:03:09Z</time>
      </trkpt>
      <trkpt lat="44.25621" lon="7.74954">
        <ele>1358.96</ele>
        <time>2021-02-05T09:03:24Z</time>
      </trkpt>
      <trkpt lat="44.25623" lon="7.74946">
        <ele>1360.4</ele>
        <time>2021-02-05T09:03:37Z</time>
      </trkpt>
      <trkpt lat="44.25623" lon="7.74935">
        <ele>1362.81</ele>
        <time>2021-02-05T09:03:53Z</time>
      </trkpt>
      <trkpt lat="44.25619" lon="7.7493">
        <ele>1363.77</ele>
        <time>2021-02-05T09:04:06Z</time>
      </trkpt>
      <trkpt lat="44.2561" lon="7.7493">
        <ele>1367.61</ele>
        <time>2021-02-05T09:04:22Z</time>
      </trkpt>
      <trkpt lat="44.25602" lon="7.74932">
        <ele>1370.5</ele>
        <time>2021-02-05T09:04:34Z</time>
      </trkpt>
      <trkpt lat="44.256" lon="7.74925">
        <ele>1368.09</ele>
        <time>2021-02-05T09:04:46Z</time>
      </trkpt>
      <trkpt lat="44.25601" lon="7.74922">
        <ele>1370.98</ele>
        <time>2021-02-05T09:05:01Z</time>
      </trkpt>
      <trkpt lat="44.25603" lon="7.74916">
        <ele>1371.46</ele>
        <time>2021-02-05T09:05:14Z</time>
      </trkpt>
      <trkpt lat="44.256" lon="7.74912">
        <ele>1372.9</ele>
        <time>2021-02-05T09:05:27Z</time>
      </trkpt>
      <trkpt lat="44.25593" lon="7.74911">
        <ele>1374.34</ele>
        <time>2021-02-05T09:05:41Z</time>
      </trkpt>
      <trkpt lat="44.25584" lon="7.7491">
        <ele>1376.75</ele>
        <time>2021-02-05T09:05:56Z</time>
      </trkpt>
      <trkpt lat="44.25586" lon="7.74912">
        <ele>1376.75</ele>
        <time>2021-02-05T09:06:15Z</time>
      </trkpt>
      <trkpt lat="44.25579" lon="7.7491">
        <ele>1380.11</ele>
        <time>2021-02-05T09:06:26Z</time>
      </trkpt>
      <trkpt lat="44.25578" lon="7.74901">
        <ele>1383.47</ele>
        <time>2021-02-05T09:06:38Z</time>
      </trkpt>
      <trkpt lat="44.2558" lon="7.74895">
        <ele>1385.88</ele>
        <time>2021-02-05T09:06:51Z</time>
      </trkpt>
      <trkpt lat="44.25581" lon="7.74891">
        <ele>1388.76</ele>
        <time>2021-02-05T09:07:04Z</time>
      </trkpt>
      <trkpt lat="44.25581" lon="7.7489">
        <ele>1388.76</ele>
        <time>2021-02-05T09:07:22Z</time>
      </trkpt>
      <trkpt lat="44.25581" lon="7.7488">
        <ele>1389.72</ele>
        <time>2021-02-05T09:07:35Z</time>
      </trkpt>
      <trkpt lat="44.25576" lon="7.74872">
        <ele>1391.17</ele>
        <time>2021-02-05T09:07:49Z</time>
      </trkpt>
      <trkpt lat="44.2557" lon="7.74866">
        <ele>1395.97</ele>
        <time>2021-02-05T09:08:06Z</time>
      </trkpt>
      <trkpt lat="44.25565" lon="7.74857">
        <ele>1398.86</ele>
        <time>2021-02-05T09:08:20Z</time>
      </trkpt>
      <trkpt lat="44.25559" lon="7.74849">
        <ele>1406.07</ele>
        <time>2021-02-05T09:08:41Z</time>
      </trkpt>
      <trkpt lat="44.25552" lon="7.74841">
        <ele>1409.43</ele>
        <time>2021-02-05T09:08:57Z</time>
      </trkpt>
      <trkpt lat="44.25548" lon="7.74833">
        <ele>1410.87</ele>
        <time>2021-02-05T09:09:08Z</time>
      </trkpt>
      <trkpt lat="44.25545" lon="7.74829">
        <ele>1410.39</ele>
        <time>2021-02-05T09:09:27Z</time>
      </trkpt>
      <trkpt lat="44.25542" lon="7.7482">
        <ele>1411.83</ele>
        <time>2021-02-05T09:09:42Z</time>
      </trkpt>
      <trkpt lat="44.25538" lon="7.74807">
        <ele>1415.68</ele>
        <time>2021-02-05T09:10:02Z</time>
      </trkpt>
      <trkpt lat="44.25534" lon="7.74793">
        <ele>1415.68</ele>
        <time>2021-02-05T09:10:17Z</time>
      </trkpt>
      <trkpt lat="44.25532" lon="7.74788">
        <ele>1417.12</ele>
        <time>2021-02-05T09:10:31Z</time>
      </trkpt>
      <trkpt lat="44.2553" lon="7.74784">
        <ele>1417.6</ele>
        <time>2021-02-05T09:10:45Z</time>
      </trkpt>
      <trkpt lat="44.25526" lon="7.74772">
        <ele>1419.04</ele>
        <time>2021-02-05T09:11:00Z</time>
      </trkpt>
      <trkpt lat="44.25521" lon="7.74759">
        <ele>1421.45</ele>
        <time>2021-02-05T09:11:20Z</time>
      </trkpt>
      <trkpt lat="44.25517" lon="7.74752">
        <ele>1423.85</ele>
        <time>2021-02-05T09:11:33Z</time>
      </trkpt>
      <trkpt lat="44.25515" lon="7.74743">
        <ele>1425.29</ele>
        <time>2021-02-05T09:11:44Z</time>
      </trkpt>
      <trkpt lat="44.25509" lon="7.74732">
        <ele>1428.18</ele>
        <time>2021-02-05T09:12:00Z</time>
      </trkpt>
      <trkpt lat="44.25505" lon="7.74724">
        <ele>1430.1</ele>
        <time>2021-02-05T09:12:14Z</time>
      </trkpt>
      <trkpt lat="44.25501" lon="7.74714">
        <ele>1432.98</ele>
        <time>2021-02-05T09:12:33Z</time>
      </trkpt>
      <trkpt lat="44.25495" lon="7.74705">
        <ele>1434.91</ele>
        <time>2021-02-05T09:12:44Z</time>
      </trkpt>
      <trkpt lat="44.25491" lon="7.74698">
        <ele>1435.87</ele>
        <time>2021-02-05T09:13:00Z</time>
      </trkpt>
      <trkpt lat="44.25488" lon="7.74687">
        <ele>1437.79</ele>
        <time>2021-02-05T09:13:14Z</time>
      </trkpt>
      <trkpt lat="44.25485" lon="7.74684">
        <ele>1439.23</ele>
        <time>2021-02-05T09:13:28Z</time>
      </trkpt>
      <trkpt lat="44.25484" lon="7.74676">
        <ele>1439.71</ele>
        <time>2021-02-05T09:13:39Z</time>
      </trkpt>
      <trkpt lat="44.25483" lon="7.74664">
        <ele>1444.04</ele>
        <time>2021-02-05T09:13:54Z</time>
      </trkpt>
      <trkpt lat="44.2548" lon="7.7465">
        <ele>1443.56</ele>
        <time>2021-02-05T09:14:08Z</time>
      </trkpt>
      <trkpt lat="44.25478" lon="7.74641">
        <ele>1443.08</ele>
        <time>2021-02-05T09:14:20Z</time>
      </trkpt>
      <trkpt lat="44.25477" lon="7.74632">
        <ele>1446.92</ele>
        <time>2021-02-05T09:14:35Z</time>
      </trkpt>
      <trkpt lat="44.25473" lon="7.74623">
        <ele>1446.44</ele>
        <time>2021-02-05T09:14:47Z</time>
      </trkpt>
      <trkpt lat="44.25472" lon="7.74617">
        <ele>1447.88</ele>
        <time>2021-02-05T09:15:02Z</time>
      </trkpt>
      <trkpt lat="44.2547" lon="7.7461">
        <ele>1450.77</ele>
        <time>2021-02-05T09:15:15Z</time>
      </trkpt>
      <trkpt lat="44.25469" lon="7.74601">
        <ele>1452.21</ele>
        <time>2021-02-05T09:15:26Z</time>
      </trkpt>
      <trkpt lat="44.25466" lon="7.74593">
        <ele>1455.09</ele>
        <time>2021-02-05T09:15:40Z</time>
      </trkpt>
      <trkpt lat="44.25465" lon="7.74585">
        <ele>1457.02</ele>
        <time>2021-02-05T09:15:54Z</time>
      </trkpt>
      <trkpt lat="44.25464" lon="7.74577">
        <ele>1458.94</ele>
        <time>2021-02-05T09:16:07Z</time>
      </trkpt>
      <trkpt lat="44.25463" lon="7.74568">
        <ele>1461.82</ele>
        <time>2021-02-05T09:16:21Z</time>
      </trkpt>
      <trkpt lat="44.2546" lon="7.7456">
        <ele>1463.74</ele>
        <time>2021-02-05T09:16:33Z</time>
      </trkpt>
      <trkpt lat="44.2546" lon="7.74556">
        <ele>1463.74</ele>
        <time>2021-02-05T09:16:53Z</time>
      </trkpt>
      <trkpt lat="44.25461" lon="7.74548">
        <ele>1465.67</ele>
        <time>2021-02-05T09:17:06Z</time>
      </trkpt>
      <trkpt lat="44.2546" lon="7.74541">
        <ele>1468.07</ele>
        <time>2021-02-05T09:17:18Z</time>
      </trkpt>
      <trkpt lat="44.2546" lon="7.74534">
        <ele>1469.99</ele>
        <time>2021-02-05T09:17:31Z</time>
      </trkpt>
      <trkpt lat="44.2546" lon="7.74532">
        <ele>1471.44</ele>
        <time>2021-02-05T09:17:45Z</time>
      </trkpt>
      <trkpt lat="44.2546" lon="7.74525">
        <ele>1473.36</ele>
        <time>2021-02-05T09:17:59Z</time>
      </trkpt>
      <trkpt lat="44.25457" lon="7.74516">
        <ele>1476.24</ele>
        <time>2021-02-05T09:18:13Z</time>
      </trkpt>
      <trkpt lat="44.25455" lon="7.74511">
        <ele>1478.16</ele>
        <time>2021-02-05T09:18:27Z</time>
      </trkpt>
      <trkpt lat="44.25455" lon="7.74509">
        <ele>1476.24</ele>
        <time>2021-02-05T09:18:47Z</time>
      </trkpt>
      <trkpt lat="44.2545" lon="7.74504">
        <ele>1477.2</ele>
        <time>2021-02-05T09:19:02Z</time>
      </trkpt>
      <trkpt lat="44.25444" lon="7.74497">
        <ele>1479.61</ele>
        <time>2021-02-05T09:19:17Z</time>
      </trkpt>
      <trkpt lat="44.25437" lon="7.74491">
        <ele>1482.49</ele>
        <time>2021-02-05T09:19:34Z</time>
      </trkpt>
      <trkpt lat="44.25435" lon="7.7449">
        <ele>1482.49</ele>
        <time>2021-02-05T09:19:37Z</time>
      </trkpt>
      <trkpt lat="44.25427" lon="7.74484">
        <ele>1484.89</ele>
        <time>2021-02-05T09:19:53Z</time>
      </trkpt>
      <trkpt lat="44.2542" lon="7.74488">
        <ele>1489.7</ele>
        <time>2021-02-05T09:20:13Z</time>
      </trkpt>
      <trkpt lat="44.25416" lon="7.745">
        <ele>1492.1</ele>
        <time>2021-02-05T09:20:26Z</time>
      </trkpt>
      <trkpt lat="44.2541" lon="7.7451">
        <ele>1493.06</ele>
        <time>2021-02-05T09:20:40Z</time>
      </trkpt>
      <trkpt lat="44.25404" lon="7.74517">
        <ele>1492.1</ele>
        <time>2021-02-05T09:20:55Z</time>
      </trkpt>
      <trkpt lat="44.25397" lon="7.74522">
        <ele>1496.91</ele>
        <time>2021-02-05T09:21:13Z</time>
      </trkpt>
      <trkpt lat="44.25391" lon="7.74518">
        <ele>1498.83</ele>
        <time>2021-02-05T09:21:25Z</time>
      </trkpt>
      <trkpt lat="44.25387" lon="7.74512">
        <ele>1500.27</ele>
        <time>2021-02-05T09:21:39Z</time>
      </trkpt>
      <trkpt lat="44.2538" lon="7.74504">
        <ele>1503.16</ele>
        <time>2021-02-05T09:21:53Z</time>
      </trkpt>
      <trkpt lat="44.25378" lon="7.74502">
        <ele>1505.56</ele>
        <time>2021-02-05T09:22:08Z</time>
      </trkpt>
      <trkpt lat="44.25372" lon="7.74496">
        <ele>1506.52</ele>
        <time>2021-02-05T09:22:20Z</time>
      </trkpt>
      <trkpt lat="44.25366" lon="7.74492">
        <ele>1506.52</ele>
        <time>2021-02-05T09:22:39Z</time>
      </trkpt>
      <trkpt lat="44.25364" lon="7.745">
        <ele>1507.48</ele>
        <time>2021-02-05T09:22:52Z</time>
      </trkpt>
      <trkpt lat="44.25359" lon="7.74517">
        <ele>1509.41</ele>
        <time>2021-02-05T09:23:09Z</time>
      </trkpt>
      <trkpt lat="44.25355" lon="7.74526">
        <ele>1512.29</ele>
        <time>2021-02-05T09:23:22Z</time>
      </trkpt>
      <trkpt lat="44.25352" lon="7.74534">
        <ele>1515.66</ele>
        <time>2021-02-05T09:23:36Z</time>
      </trkpt>
      <trkpt lat="44.25348" lon="7.7454">
        <ele>1518.06</ele>
        <time>2021-02-05T09:23:51Z</time>
      </trkpt>
      <trkpt lat="44.25348" lon="7.7454">
        <ele>1519.02</ele>
        <time>2021-02-05T09:24:09Z</time>
      </trkpt>
      <trkpt lat="44.25349" lon="7.74541">
        <ele>1519.02</ele>
        <time>2021-02-05T09:24:31Z</time>
      </trkpt>
      <trkpt lat="44.25348" lon="7.7454">
        <ele>1517.58</ele>
        <time>2021-02-05T09:24:51Z</time>
      </trkpt>
      <trkpt lat="44.25346" lon="7.74542">
        <ele>1518.06</ele>
        <time>2021-02-05T09:25:03Z</time>
      </trkpt>
      <trkpt lat="44.25343" lon="7.74539">
        <ele>1519.98</ele>
        <time>2021-02-05T09:25:17Z</time>
      </trkpt>
      <trkpt lat="44.25337" lon="7.74533">
        <ele>1522.39</ele>
        <time>2021-02-05T09:25:29Z</time>
      </trkpt>
      <trkpt lat="44.25332" lon="7.74529">
        <ele>1524.79</ele>
        <time>2021-02-05T09:25:43Z</time>
      </trkpt>
      <trkpt lat="44.25324" lon="7.7452">
        <ele>1528.15</ele>
        <time>2021-02-05T09:25:57Z</time>
      </trkpt>
      <trkpt lat="44.25317" lon="7.74514">
        <ele>1529.59</ele>
        <time>2021-02-05T09:26:11Z</time>
      </trkpt>
      <trkpt lat="44.25314" lon="7.74515">
        <ele>1530.56</ele>
        <time>2021-02-05T09:26:28Z</time>
      </trkpt>
      <trkpt lat="44.25314" lon="7.74518">
        <ele>1531.04</ele>
        <time>2021-02-05T09:26:41Z</time>
      </trkpt>
      <trkpt lat="44.25313" lon="7.7452">
        <ele>1529.11</ele>
        <time>2021-02-05T09:27:04Z</time>
      </trkpt>
      <trkpt lat="44.25314" lon="7.74522">
        <ele>1529.11</ele>
        <time>2021-02-05T09:27:28Z</time>
      </trkpt>
      <trkpt lat="44.25313" lon="7.74524">
        <ele>1530.08</ele>
        <time>2021-02-05T09:27:45Z</time>
      </trkpt>
      <trkpt lat="44.2531" lon="7.74527">
        <ele>1530.08</ele>
        <time>2021-02-05T09:28:00Z</time>
      </trkpt>
      <trkpt lat="44.25307" lon="7.74536">
        <ele>1532.48</ele>
        <time>2021-02-05T09:28:12Z</time>
      </trkpt>
      <trkpt lat="44.25303" lon="7.74544">
        <ele>1533.92</ele>
        <time>2021-02-05T09:28:24Z</time>
      </trkpt>
      <trkpt lat="44.25299" lon="7.74553">
        <ele>1537.29</ele>
        <time>2021-02-05T09:28:40Z</time>
      </trkpt>
      <trkpt lat="44.25296" lon="7.7456">
        <ele>1539.69</ele>
        <time>2021-02-05T09:28:57Z</time>
      </trkpt>
      <trkpt lat="44.2529" lon="7.74569">
        <ele>1541.13</ele>
        <time>2021-02-05T09:29:16Z</time>
      </trkpt>
      <trkpt lat="44.25285" lon="7.74579">
        <ele>1543.05</ele>
        <time>2021-02-05T09:29:32Z</time>
      </trkpt>
      <trkpt lat="44.2528" lon="7.74581">
        <ele>1545.94</ele>
        <time>2021-02-05T09:29:47Z</time>
      </trkpt>
      <trkpt lat="44.25274" lon="7.74573">
        <ele>1548.34</ele>
        <time>2021-02-05T09:30:00Z</time>
      </trkpt>
      <trkpt lat="44.25269" lon="7.74569">
        <ele>1551.71</ele>
        <time>2021-02-05T09:30:14Z</time>
      </trkpt>
      <trkpt lat="44.25263" lon="7.74561">
        <ele>1555.55</ele>
        <time>2021-02-05T09:30:30Z</time>
      </trkpt>
      <trkpt lat="44.25258" lon="7.74556">
        <ele>1556.99</ele>
        <time>2021-02-05T09:30:46Z</time>
      </trkpt>
      <trkpt lat="44.25255" lon="7.74553">
        <ele>1558.43</ele>
        <time>2021-02-05T09:31:06Z</time>
      </trkpt>
      <trkpt lat="44.2525" lon="7.74546">
        <ele>1560.36</ele>
        <time>2021-02-05T09:31:19Z</time>
      </trkpt>
      <trkpt lat="44.25243" lon="7.7455">
        <ele>1563.24</ele>
        <time>2021-02-05T09:31:35Z</time>
      </trkpt>
      <trkpt lat="44.25239" lon="7.74556">
        <ele>1565.64</ele>
        <time>2021-02-05T09:31:48Z</time>
      </trkpt>
      <trkpt lat="44.25232" lon="7.74568">
        <ele>1566.12</ele>
        <time>2021-02-05T09:32:05Z</time>
      </trkpt>
      <trkpt lat="44.25227" lon="7.74574">
        <ele>1566.61</ele>
        <time>2021-02-05T09:32:16Z</time>
      </trkpt>
      <trkpt lat="44.25221" lon="7.74578">
        <ele>1569.97</ele>
        <time>2021-02-05T09:32:30Z</time>
      </trkpt>
      <trkpt lat="44.25214" lon="7.74581">
        <ele>1573.33</ele>
        <time>2021-02-05T09:32:43Z</time>
      </trkpt>
      <trkpt lat="44.25207" lon="7.74586">
        <ele>1575.74</ele>
        <time>2021-02-05T09:33:00Z</time>
      </trkpt>
      <trkpt lat="44.25204" lon="7.74588">
        <ele>1576.7</ele>
        <time>2021-02-05T09:33:13Z</time>
      </trkpt>
      <trkpt lat="44.25204" lon="7.74586">
        <ele>1576.7</ele>
        <time>2021-02-05T09:33:20Z</time>
      </trkpt>
      <trkpt lat="44.25204" lon="7.74589">
        <ele>1573.33</ele>
        <time>2021-02-05T09:33:35Z</time>
      </trkpt>
      <trkpt lat="44.25204" lon="7.74587">
        <ele>1574.3</ele>
        <time>2021-02-05T09:34:11Z</time>
      </trkpt>
      <trkpt lat="44.25203" lon="7.74586">
        <ele>1575.74</ele>
        <time>2021-02-05T09:34:30Z</time>
      </trkpt>
      <trkpt lat="44.25202" lon="7.74585">
        <ele>1576.7</ele>
        <time>2021-02-05T09:34:53Z</time>
      </trkpt>
      <trkpt lat="44.25203" lon="7.74585">
        <ele>1575.74</ele>
        <time>2021-02-05T09:35:17Z</time>
      </trkpt>
      <trkpt lat="44.25199" lon="7.74577">
        <ele>1575.26</ele>
        <time>2021-02-05T09:35:29Z</time>
      </trkpt>
      <trkpt lat="44.25194" lon="7.74569">
        <ele>1577.18</ele>
        <time>2021-02-05T09:35:42Z</time>
      </trkpt>
      <trkpt lat="44.2519" lon="7.74561">
        <ele>1577.66</ele>
        <time>2021-02-05T09:35:53Z</time>
      </trkpt>
      <trkpt lat="44.25185" lon="7.74553">
        <ele>1579.58</ele>
        <time>2021-02-05T09:36:08Z</time>
      </trkpt>
      <trkpt lat="44.25181" lon="7.74545">
        <ele>1581.51</ele>
        <time>2021-02-05T09:36:23Z</time>
      </trkpt>
      <trkpt lat="44.25174" lon="7.7454">
        <ele>1583.91</ele>
        <time>2021-02-05T09:36:38Z</time>
      </trkpt>
      <trkpt lat="44.25169" lon="7.74552">
        <ele>1587.27</ele>
        <time>2021-02-05T09:36:56Z</time>
      </trkpt>
      <trkpt lat="44.25169" lon="7.74556">
        <ele>1587.27</ele>
        <time>2021-02-05T09:37:14Z</time>
      </trkpt>
      <trkpt lat="44.25162" lon="7.74566">
        <ele>1588.72</ele>
        <time>2021-02-05T09:37:29Z</time>
      </trkpt>
      <trkpt lat="44.25156" lon="7.74573">
        <ele>1592.56</ele>
        <time>2021-02-05T09:37:46Z</time>
      </trkpt>
      <trkpt lat="44.25154" lon="7.74576">
        <ele>1594.96</ele>
        <time>2021-02-05T09:37:59Z</time>
      </trkpt>
      <trkpt lat="44.2515" lon="7.74578">
        <ele>1594.96</ele>
        <time>2021-02-05T09:38:14Z</time>
      </trkpt>
      <trkpt lat="44.25147" lon="7.74567">
        <ele>1596.89</ele>
        <time>2021-02-05T09:38:30Z</time>
      </trkpt>
      <trkpt lat="44.25143" lon="7.74559">
        <ele>1600.25</ele>
        <time>2021-02-05T09:38:42Z</time>
      </trkpt>
      <trkpt lat="44.25141" lon="7.74555">
        <ele>1600.73</ele>
        <time>2021-02-05T09:38:58Z</time>
      </trkpt>
      <trkpt lat="44.25137" lon="7.74549">
        <ele>1601.69</ele>
        <time>2021-02-05T09:39:12Z</time>
      </trkpt>
      <trkpt lat="44.25133" lon="7.7454">
        <ele>1605.06</ele>
        <time>2021-02-05T09:39:29Z</time>
      </trkpt>
      <trkpt lat="44.25131" lon="7.74534">
        <ele>1607.94</ele>
        <time>2021-02-05T09:39:42Z</time>
      </trkpt>
      <trkpt lat="44.25127" lon="7.74539">
        <ele>1609.86</ele>
        <time>2021-02-05T09:39:56Z</time>
      </trkpt>
      <trkpt lat="44.25121" lon="7.7455">
        <ele>1612.27</ele>
        <time>2021-02-05T09:40:11Z</time>
      </trkpt>
      <trkpt lat="44.25116" lon="7.74561">
        <ele>1615.15</ele>
        <time>2021-02-05T09:40:26Z</time>
      </trkpt>
      <trkpt lat="44.25111" lon="7.74572">
        <ele>1617.07</ele>
        <time>2021-02-05T09:40:44Z</time>
      </trkpt>
      <trkpt lat="44.25108" lon="7.74575">
        <ele>1617.07</ele>
        <time>2021-02-05T09:40:57Z</time>
      </trkpt>
      <trkpt lat="44.25105" lon="7.74567">
        <ele>1618.04</ele>
        <time>2021-02-05T09:41:10Z</time>
      </trkpt>
      <trkpt lat="44.25102" lon="7.74558">
        <ele>1620.92</ele>
        <time>2021-02-05T09:41:24Z</time>
      </trkpt>
      <trkpt lat="44.25098" lon="7.74546">
        <ele>1623.32</ele>
        <time>2021-02-05T09:41:38Z</time>
      </trkpt>
      <trkpt lat="44.25094" lon="7.74536">
        <ele>1627.17</ele>
        <time>2021-02-05T09:41:54Z</time>
      </trkpt>
      <trkpt lat="44.25091" lon="7.74528">
        <ele>1631.49</ele>
        <time>2021-02-05T09:42:09Z</time>
      </trkpt>
      <trkpt lat="44.25085" lon="7.74517">
        <ele>1636.78</ele>
        <time>2021-02-05T09:42:24Z</time>
      </trkpt>
      <trkpt lat="44.2508" lon="7.74508">
        <ele>1639.19</ele>
        <time>2021-02-05T09:42:39Z</time>
      </trkpt>
      <trkpt lat="44.25077" lon="7.74514">
        <ele>1640.63</ele>
        <time>2021-02-05T09:42:52Z</time>
      </trkpt>
      <trkpt lat="44.25075" lon="7.74525">
        <ele>1642.55</ele>
        <time>2021-02-05T09:43:08Z</time>
      </trkpt>
      <trkpt lat="44.25071" lon="7.74512">
        <ele>1643.03</ele>
        <time>2021-02-05T09:43:22Z</time>
      </trkpt>
      <trkpt lat="44.25068" lon="7.74499">
        <ele>1644.47</ele>
        <time>2021-02-05T09:43:37Z</time>
      </trkpt>
      <trkpt lat="44.25065" lon="7.74487">
        <ele>1646.4</ele>
        <time>2021-02-05T09:43:49Z</time>
      </trkpt>
      <trkpt lat="44.2506" lon="7.74475">
        <ele>1648.32</ele>
        <time>2021-02-05T09:44:03Z</time>
      </trkpt>
      <trkpt lat="44.25055" lon="7.74461">
        <ele>1650.24</ele>
        <time>2021-02-05T09:44:19Z</time>
      </trkpt>
      <trkpt lat="44.25052" lon="7.74451">
        <ele>1651.68</ele>
        <time>2021-02-05T09:44:31Z</time>
      </trkpt>
      <trkpt lat="44.25048" lon="7.74438">
        <ele>1653.12</ele>
        <time>2021-02-05T09:44:46Z</time>
      </trkpt>
      <trkpt lat="44.25043" lon="7.74425">
        <ele>1655.05</ele>
        <time>2021-02-05T09:45:00Z</time>
      </trkpt>
      <trkpt lat="44.25039" lon="7.7441">
        <ele>1657.45</ele>
        <time>2021-02-05T09:45:16Z</time>
      </trkpt>
      <trkpt lat="44.25035" lon="7.74395">
        <ele>1659.85</ele>
        <time>2021-02-05T09:45:31Z</time>
      </trkpt>
      <trkpt lat="44.2503" lon="7.74382">
        <ele>1662.74</ele>
        <time>2021-02-05T09:45:46Z</time>
      </trkpt>
      <trkpt lat="44.25027" lon="7.74369">
        <ele>1664.66</ele>
        <time>2021-02-05T09:45:59Z</time>
      </trkpt>
      <trkpt lat="44.25025" lon="7.74359">
        <ele>1666.1</ele>
        <time>2021-02-05T09:46:12Z</time>
      </trkpt>
      <trkpt lat="44.25024" lon="7.74348">
        <ele>1667.54</ele>
        <time>2021-02-05T09:46:25Z</time>
      </trkpt>
      <trkpt lat="44.25021" lon="7.74336">
        <ele>1668.51</ele>
        <time>2021-02-05T09:46:38Z</time>
      </trkpt>
      <trkpt lat="44.25016" lon="7.74321">
        <ele>1669.47</ele>
        <time>2021-02-05T09:46:52Z</time>
      </trkpt>
      <trkpt lat="44.25011" lon="7.74306">
        <ele>1670.43</ele>
        <time>2021-02-05T09:47:06Z</time>
      </trkpt>
      <trkpt lat="44.25005" lon="7.74292">
        <ele>1672.35</ele>
        <time>2021-02-05T09:47:19Z</time>
      </trkpt>
      <trkpt lat="44.24999" lon="7.7428">
        <ele>1674.27</ele>
        <time>2021-02-05T09:47:32Z</time>
      </trkpt>
      <trkpt lat="44.24991" lon="7.74264">
        <ele>1675.72</ele>
        <time>2021-02-05T09:47:48Z</time>
      </trkpt>
      <trkpt lat="44.24983" lon="7.74254">
        <ele>1677.64</ele>
        <time>2021-02-05T09:48:03Z</time>
      </trkpt>
      <trkpt lat="44.24982" lon="7.74253">
        <ele>1678.12</ele>
        <time>2021-02-05T09:48:05Z</time>
      </trkpt>
      <trkpt lat="44.24972" lon="7.74244">
        <ele>1680.52</ele>
        <time>2021-02-05T09:48:20Z</time>
      </trkpt>
      <trkpt lat="44.24961" lon="7.74243">
        <ele>1682.44</ele>
        <time>2021-02-05T09:48:34Z</time>
      </trkpt>
      <trkpt lat="44.24952" lon="7.74245">
        <ele>1684.85</ele>
        <time>2021-02-05T09:48:46Z</time>
      </trkpt>
      <trkpt lat="44.2494" lon="7.74243">
        <ele>1689.17</ele>
        <time>2021-02-05T09:49:01Z</time>
      </trkpt>
      <trkpt lat="44.24931" lon="7.74239">
        <ele>1691.58</ele>
        <time>2021-02-05T09:49:14Z</time>
      </trkpt>
      <trkpt lat="44.24921" lon="7.74234">
        <ele>1693.98</ele>
        <time>2021-02-05T09:49:28Z</time>
      </trkpt>
      <trkpt lat="44.24913" lon="7.74229">
        <ele>1694.94</ele>
        <time>2021-02-05T09:49:41Z</time>
      </trkpt>
      <trkpt lat="44.24903" lon="7.74226">
        <ele>1696.38</ele>
        <time>2021-02-05T09:49:54Z</time>
      </trkpt>
      <trkpt lat="44.24901" lon="7.74227">
        <ele>1696.86</ele>
        <time>2021-02-05T09:50:06Z</time>
      </trkpt>
      <trkpt lat="44.24894" lon="7.74221">
        <ele>1696.86</ele>
        <time>2021-02-05T09:50:17Z</time>
      </trkpt>
      <trkpt lat="44.24883" lon="7.74215">
        <ele>1697.34</ele>
        <time>2021-02-05T09:50:32Z</time>
      </trkpt>
      <trkpt lat="44.24875" lon="7.74211">
        <ele>1698.31</ele>
        <time>2021-02-05T09:50:43Z</time>
      </trkpt>
      <trkpt lat="44.24873" lon="7.7421">
        <ele>1698.31</ele>
        <time>2021-02-05T09:50:45Z</time>
      </trkpt>
      <trkpt lat="44.24863" lon="7.74204">
        <ele>1698.79</ele>
        <time>2021-02-05T09:50:59Z</time>
      </trkpt>
      <trkpt lat="44.24853" lon="7.74199">
        <ele>1700.23</ele>
        <time>2021-02-05T09:51:11Z</time>
      </trkpt>
      <trkpt lat="44.24844" lon="7.74193">
        <ele>1700.71</ele>
        <time>2021-02-05T09:51:23Z</time>
      </trkpt>
      <trkpt lat="44.24835" lon="7.74189">
        <ele>1701.67</ele>
        <time>2021-02-05T09:51:35Z</time>
      </trkpt>
      <trkpt lat="44.24826" lon="7.74184">
        <ele>1702.63</ele>
        <time>2021-02-05T09:51:47Z</time>
      </trkpt>
      <trkpt lat="44.24817" lon="7.74178">
        <ele>1703.11</ele>
        <time>2021-02-05T09:52:01Z</time>
      </trkpt>
      <trkpt lat="44.24813" lon="7.74174">
        <ele>1702.63</ele>
        <time>2021-02-05T09:52:06Z</time>
      </trkpt>
      <trkpt lat="44.24805" lon="7.74161">
        <ele>1703.11</ele>
        <time>2021-02-05T09:52:19Z</time>
      </trkpt>
      <trkpt lat="44.24802" lon="7.74152">
        <ele>1704.07</ele>
        <time>2021-02-05T09:52:32Z</time>
      </trkpt>
      <trkpt lat="44.24801" lon="7.74149">
        <ele>1703.59</ele>
        <time>2021-02-05T09:52:44Z</time>
      </trkpt>
      <trkpt lat="44.24794" lon="7.74141">
        <ele>1703.59</ele>
        <time>2021-02-05T09:52:56Z</time>
      </trkpt>
      <trkpt lat="44.24787" lon="7.74129">
        <ele>1704.55</ele>
        <time>2021-02-05T09:53:09Z</time>
      </trkpt>
      <trkpt lat="44.2478" lon="7.74117">
        <ele>1706</ele>
        <time>2021-02-05T09:53:21Z</time>
      </trkpt>
      <trkpt lat="44.24776" lon="7.74104">
        <ele>1707.92</ele>
        <time>2021-02-05T09:53:33Z</time>
      </trkpt>
      <trkpt lat="44.24769" lon="7.74091">
        <ele>1708.4</ele>
        <time>2021-02-05T09:53:48Z</time>
      </trkpt>
      <trkpt lat="44.24762" lon="7.74078">
        <ele>1709.36</ele>
        <time>2021-02-05T09:54:01Z</time>
      </trkpt>
      <trkpt lat="44.24756" lon="7.74065">
        <ele>1710.8</ele>
        <time>2021-02-05T09:54:15Z</time>
      </trkpt>
      <trkpt lat="44.24749" lon="7.74052">
        <ele>1712.25</ele>
        <time>2021-02-05T09:54:28Z</time>
      </trkpt>
      <trkpt lat="44.24743" lon="7.74038">
        <ele>1713.69</ele>
        <time>2021-02-05T09:54:41Z</time>
      </trkpt>
      <trkpt lat="44.24736" lon="7.74025">
        <ele>1715.13</ele>
        <time>2021-02-05T09:54:54Z</time>
      </trkpt>
      <trkpt lat="44.24729" lon="7.74013">
        <ele>1716.09</ele>
        <time>2021-02-05T09:55:07Z</time>
      </trkpt>
      <trkpt lat="44.24722" lon="7.74002">
        <ele>1718.01</ele>
        <time>2021-02-05T09:55:20Z</time>
      </trkpt>
      <trkpt lat="44.24714" lon="7.73989">
        <ele>1719.46</ele>
        <time>2021-02-05T09:55:34Z</time>
      </trkpt>
      <trkpt lat="44.24707" lon="7.73977">
        <ele>1721.38</ele>
        <time>2021-02-05T09:55:48Z</time>
      </trkpt>
      <trkpt lat="44.247" lon="7.73964">
        <ele>1722.82</ele>
        <time>2021-02-05T09:56:02Z</time>
      </trkpt>
      <trkpt lat="44.24697" lon="7.73958">
        <ele>1723.3</ele>
        <time>2021-02-05T09:56:09Z</time>
      </trkpt>
      <trkpt lat="44.24692" lon="7.73947">
        <ele>1724.74</ele>
        <time>2021-02-05T09:56:21Z</time>
      </trkpt>
      <trkpt lat="44.24686" lon="7.73934">
        <ele>1726.18</ele>
        <time>2021-02-05T09:56:35Z</time>
      </trkpt>
      <trkpt lat="44.24684" lon="7.73929">
        <ele>1727.15</ele>
        <time>2021-02-05T09:56:41Z</time>
      </trkpt>
      <trkpt lat="44.24679" lon="7.73914">
        <ele>1729.07</ele>
        <time>2021-02-05T09:56:55Z</time>
      </trkpt>
      <trkpt lat="44.24673" lon="7.73902">
        <ele>1730.51</ele>
        <time>2021-02-05T09:57:09Z</time>
      </trkpt>
      <trkpt lat="44.24668" lon="7.73891">
        <ele>1730.99</ele>
        <time>2021-02-05T09:57:23Z</time>
      </trkpt>
      <trkpt lat="44.24663" lon="7.73879">
        <ele>1732.91</ele>
        <time>2021-02-05T09:57:36Z</time>
      </trkpt>
      <trkpt lat="44.24657" lon="7.73867">
        <ele>1734.84</ele>
        <time>2021-02-05T09:57:50Z</time>
      </trkpt>
      <trkpt lat="44.24651" lon="7.73853">
        <ele>1735.32</ele>
        <time>2021-02-05T09:58:04Z</time>
      </trkpt>
      <trkpt lat="44.24645" lon="7.73838">
        <ele>1736.28</ele>
        <time>2021-02-05T09:58:18Z</time>
      </trkpt>
      <trkpt lat="44.24641" lon="7.73829">
        <ele>1737.24</ele>
        <time>2021-02-05T09:58:32Z</time>
      </trkpt>
      <trkpt lat="44.24635" lon="7.73819">
        <ele>1738.68</ele>
        <time>2021-02-05T09:58:49Z</time>
      </trkpt>
      <trkpt lat="44.2463" lon="7.73811">
        <ele>1739.64</ele>
        <time>2021-02-05T09:59:02Z</time>
      </trkpt>
      <trkpt lat="44.24623" lon="7.73798">
        <ele>1741.08</ele>
        <time>2021-02-05T09:59:16Z</time>
      </trkpt>
      <trkpt lat="44.24615" lon="7.73788">
        <ele>1742.05</ele>
        <time>2021-02-05T09:59:29Z</time>
      </trkpt>
      <trkpt lat="44.24609" lon="7.73782">
        <ele>1743.01</ele>
        <time>2021-02-05T09:59:41Z</time>
      </trkpt>
      <trkpt lat="44.24601" lon="7.73778">
        <ele>1744.45</ele>
        <time>2021-02-05T09:59:54Z</time>
      </trkpt>
      <trkpt lat="44.24599" lon="7.73777">
        <ele>1745.89</ele>
        <time>2021-02-05T09:59:58Z</time>
      </trkpt>
      <trkpt lat="44.2459" lon="7.7378">
        <ele>1747.81</ele>
        <time>2021-02-05T10:00:12Z</time>
      </trkpt>
      <trkpt lat="44.24586" lon="7.73785">
        <ele>1748.78</ele>
        <time>2021-02-05T10:00:25Z</time>
      </trkpt>
      <trkpt lat="44.24584" lon="7.73786">
        <ele>1748.78</ele>
        <time>2021-02-05T10:00:32Z</time>
      </trkpt>
      <trkpt lat="44.24573" lon="7.73787">
        <ele>1751.18</ele>
        <time>2021-02-05T10:00:48Z</time>
      </trkpt>
      <trkpt lat="44.24564" lon="7.73792">
        <ele>1753.58</ele>
        <time>2021-02-05T10:01:03Z</time>
      </trkpt>
      <trkpt lat="44.24552" lon="7.73793">
        <ele>1756.47</ele>
        <time>2021-02-05T10:01:18Z</time>
      </trkpt>
      <trkpt lat="44.24544" lon="7.73793">
        <ele>1757.43</ele>
        <time>2021-02-05T10:01:29Z</time>
      </trkpt>
      <trkpt lat="44.24536" lon="7.73793">
        <ele>1757.91</ele>
        <time>2021-02-05T10:01:38Z</time>
      </trkpt>
      <trkpt lat="44.24524" lon="7.73795">
        <ele>1758.39</ele>
        <time>2021-02-05T10:01:53Z</time>
      </trkpt>
      <trkpt lat="44.24513" lon="7.73796">
        <ele>1759.83</ele>
        <time>2021-02-05T10:02:06Z</time>
      </trkpt>
      <trkpt lat="44.24503" lon="7.73797">
        <ele>1761.27</ele>
        <time>2021-02-05T10:02:20Z</time>
      </trkpt>
      <trkpt lat="44.24494" lon="7.73799">
        <ele>1762.23</ele>
        <time>2021-02-05T10:02:35Z</time>
      </trkpt>
      <trkpt lat="44.24487" lon="7.738">
        <ele>1762.71</ele>
        <time>2021-02-05T10:02:47Z</time>
      </trkpt>
      <trkpt lat="44.24475" lon="7.73801">
        <ele>1763.68</ele>
        <time>2021-02-05T10:03:01Z</time>
      </trkpt>
      <trkpt lat="44.24462" lon="7.73803">
        <ele>1764.64</ele>
        <time>2021-02-05T10:03:15Z</time>
      </trkpt>
      <trkpt lat="44.24452" lon="7.73806">
        <ele>1765.12</ele>
        <time>2021-02-05T10:03:28Z</time>
      </trkpt>
      <trkpt lat="44.24451" lon="7.73806">
        <ele>1765.12</ele>
        <time>2021-02-05T10:03:29Z</time>
      </trkpt>
      <trkpt lat="44.24439" lon="7.73808">
        <ele>1766.08</ele>
        <time>2021-02-05T10:03:44Z</time>
      </trkpt>
      <trkpt lat="44.24428" lon="7.73809">
        <ele>1766.56</ele>
        <time>2021-02-05T10:03:58Z</time>
      </trkpt>
      <trkpt lat="44.24418" lon="7.7381">
        <ele>1767.52</ele>
        <time>2021-02-05T10:04:11Z</time>
      </trkpt>
      <trkpt lat="44.24406" lon="7.7381">
        <ele>1768</ele>
        <time>2021-02-05T10:04:25Z</time>
      </trkpt>
      <trkpt lat="44.24394" lon="7.73811">
        <ele>1769.44</ele>
        <time>2021-02-05T10:04:39Z</time>
      </trkpt>
      <trkpt lat="44.24384" lon="7.73813">
        <ele>1770.89</ele>
        <time>2021-02-05T10:04:54Z</time>
      </trkpt>
      <trkpt lat="44.24373" lon="7.73812">
        <ele>1772.33</ele>
        <time>2021-02-05T10:05:08Z</time>
      </trkpt>
      <trkpt lat="44.24363" lon="7.73811">
        <ele>1773.77</ele>
        <time>2021-02-05T10:05:22Z</time>
      </trkpt>
      <trkpt lat="44.24352" lon="7.7381">
        <ele>1776.17</ele>
        <time>2021-02-05T10:05:36Z</time>
      </trkpt>
      <trkpt lat="44.24342" lon="7.73811">
        <ele>1777.61</ele>
        <time>2021-02-05T10:05:51Z</time>
      </trkpt>
      <trkpt lat="44.24333" lon="7.73811">
        <ele>1779.54</ele>
        <time>2021-02-05T10:06:05Z</time>
      </trkpt>
      <trkpt lat="44.24323" lon="7.73808">
        <ele>1781.46</ele>
        <time>2021-02-05T10:06:19Z</time>
      </trkpt>
      <trkpt lat="44.24313" lon="7.73809">
        <ele>1782.9</ele>
        <time>2021-02-05T10:06:34Z</time>
      </trkpt>
      <trkpt lat="44.24304" lon="7.73807">
        <ele>1783.38</ele>
        <time>2021-02-05T10:06:50Z</time>
      </trkpt>
      <trkpt lat="44.24297" lon="7.73806">
        <ele>1785.31</ele>
        <time>2021-02-05T10:07:03Z</time>
      </trkpt>
      <trkpt lat="44.24289" lon="7.73803">
        <ele>1788.19</ele>
        <time>2021-02-05T10:07:18Z</time>
      </trkpt>
      <trkpt lat="44.24278" lon="7.73798">
        <ele>1791.07</ele>
        <time>2021-02-05T10:07:36Z</time>
      </trkpt>
      <trkpt lat="44.24267" lon="7.73793">
        <ele>1791.55</ele>
        <time>2021-02-05T10:07:52Z</time>
      </trkpt>
      <trkpt lat="44.24257" lon="7.73791">
        <ele>1791.55</ele>
        <time>2021-02-05T10:08:07Z</time>
      </trkpt>
      <trkpt lat="44.24247" lon="7.73787">
        <ele>1797.32</ele>
        <time>2021-02-05T10:08:26Z</time>
      </trkpt>
      <trkpt lat="44.24236" lon="7.73785">
        <ele>1798.28</ele>
        <time>2021-02-05T10:08:42Z</time>
      </trkpt>
      <trkpt lat="44.24225" lon="7.73781">
        <ele>1801.65</ele>
        <time>2021-02-05T10:09:00Z</time>
      </trkpt>
      <trkpt lat="44.24216" lon="7.73778">
        <ele>1804.05</ele>
        <time>2021-02-05T10:09:16Z</time>
      </trkpt>
      <trkpt lat="44.24206" lon="7.73775">
        <ele>1805.49</ele>
        <time>2021-02-05T10:09:34Z</time>
      </trkpt>
      <trkpt lat="44.24205" lon="7.73775">
        <ele>1807.42</ele>
        <time>2021-02-05T10:09:55Z</time>
      </trkpt>
      <trkpt lat="44.24199" lon="7.73773">
        <ele>1807.9</ele>
        <time>2021-02-05T10:10:09Z</time>
      </trkpt>
      <trkpt lat="44.24191" lon="7.73771">
        <ele>1810.78</ele>
        <time>2021-02-05T10:10:28Z</time>
      </trkpt>
      <trkpt lat="44.24185" lon="7.73769">
        <ele>1814.63</ele>
        <time>2021-02-05T10:10:43Z</time>
      </trkpt>
      <trkpt lat="44.24179" lon="7.73767">
        <ele>1817.51</ele>
        <time>2021-02-05T10:11:01Z</time>
      </trkpt>
      <trkpt lat="44.2417" lon="7.73768">
        <ele>1819.43</ele>
        <time>2021-02-05T10:11:19Z</time>
      </trkpt>
      <trkpt lat="44.24161" lon="7.73768">
        <ele>1821.35</ele>
        <time>2021-02-05T10:11:35Z</time>
      </trkpt>
      <trkpt lat="44.24149" lon="7.73766">
        <ele>1821.84</ele>
        <time>2021-02-05T10:11:53Z</time>
      </trkpt>
      <trkpt lat="44.24141" lon="7.73765">
        <ele>1825.68</ele>
        <time>2021-02-05T10:12:10Z</time>
      </trkpt>
      <trkpt lat="44.24132" lon="7.73761">
        <ele>1830.97</ele>
        <time>2021-02-05T10:12:28Z</time>
      </trkpt>
      <trkpt lat="44.2412" lon="7.73759">
        <ele>1836.74</ele>
        <time>2021-02-05T10:12:48Z</time>
      </trkpt>
      <trkpt lat="44.24111" lon="7.73757">
        <ele>1838.66</ele>
        <time>2021-02-05T10:13:02Z</time>
      </trkpt>
      <trkpt lat="44.241" lon="7.73759">
        <ele>1840.58</ele>
        <time>2021-02-05T10:13:22Z</time>
      </trkpt>
      <trkpt lat="44.24092" lon="7.73756">
        <ele>1842.02</ele>
        <time>2021-02-05T10:13:37Z</time>
      </trkpt>
      <trkpt lat="44.2408" lon="7.73752">
        <ele>1846.35</ele>
        <time>2021-02-05T10:13:58Z</time>
      </trkpt>
      <trkpt lat="44.2407" lon="7.73751">
        <ele>1844.43</ele>
        <time>2021-02-05T10:14:12Z</time>
      </trkpt>
      <trkpt lat="44.24061" lon="7.7375">
        <ele>1843.95</ele>
        <time>2021-02-05T10:14:27Z</time>
      </trkpt>
      <trkpt lat="44.24053" lon="7.73748">
        <ele>1846.35</ele>
        <time>2021-02-05T10:14:43Z</time>
      </trkpt>
      <trkpt lat="44.24046" lon="7.73745">
        <ele>1849.23</ele>
        <time>2021-02-05T10:14:58Z</time>
      </trkpt>
      <trkpt lat="44.24041" lon="7.73744">
        <ele>1851.16</ele>
        <time>2021-02-05T10:15:11Z</time>
      </trkpt>
      <trkpt lat="44.24042" lon="7.73747">
        <ele>1847.79</ele>
        <time>2021-02-05T10:15:25Z</time>
      </trkpt>
      <trkpt lat="44.24042" lon="7.73746">
        <ele>1849.23</ele>
        <time>2021-02-05T10:16:01Z</time>
      </trkpt>
      <trkpt lat="44.24042" lon="7.73746">
        <ele>1849.23</ele>
        <time>2021-02-05T10:16:39Z</time>
      </trkpt>
      <trkpt lat="44.24042" lon="7.73744">
        <ele>1850.68</ele>
        <time>2021-02-05T10:17:21Z</time>
      </trkpt>
      <trkpt lat="44.24042" lon="7.73744">
        <ele>1849.23</ele>
        <time>2021-02-05T10:17:46Z</time>
      </trkpt>
      <trkpt lat="44.24041" lon="7.73748">
        <ele>1851.64</ele>
        <time>2021-02-05T10:18:05Z</time>
      </trkpt>
      <trkpt lat="44.2404" lon="7.73745">
        <ele>1852.6</ele>
        <time>2021-02-05T10:18:27Z</time>
      </trkpt>
      <trkpt lat="44.24041" lon="7.73748">
        <ele>1849.23</ele>
        <time>2021-02-05T10:18:41Z</time>
      </trkpt>
      <trkpt lat="44.2404" lon="7.73745">
        <ele>1851.16</ele>
        <time>2021-02-05T10:18:57Z</time>
      </trkpt>
      <trkpt lat="44.24038" lon="7.73745">
        <ele>1852.6</ele>
        <time>2021-02-05T10:19:11Z</time>
      </trkpt>
      <trkpt lat="44.24039" lon="7.73745">
        <ele>1851.64</ele>
        <time>2021-02-05T10:19:30Z</time>
      </trkpt>
      <trkpt lat="44.24038" lon="7.73744">
        <ele>1850.19</ele>
        <time>2021-02-05T10:19:48Z</time>
      </trkpt>
      <trkpt lat="44.24037" lon="7.73743">
        <ele>1851.64</ele>
        <time>2021-02-05T10:20:17Z</time>
      </trkpt>
      <trkpt lat="44.24035" lon="7.73743">
        <ele>1852.12</ele>
        <time>2021-02-05T10:20:28Z</time>
      </trkpt>
      <trkpt lat="44.24034" lon="7.73742">
        <ele>1852.6</ele>
        <time>2021-02-05T10:20:44Z</time>
      </trkpt>
      <trkpt lat="44.24029" lon="7.73741">
        <ele>1853.08</ele>
        <time>2021-02-05T10:20:58Z</time>
      </trkpt>
      <trkpt lat="44.24027" lon="7.7374">
        <ele>1854.04</ele>
        <time>2021-02-05T10:21:13Z</time>
      </trkpt>
      <trkpt lat="44.24022" lon="7.7374">
        <ele>1854.04</ele>
        <time>2021-02-05T10:21:28Z</time>
      </trkpt>
      <trkpt lat="44.24015" lon="7.7374">
        <ele>1856.44</ele>
        <time>2021-02-05T10:21:40Z</time>
      </trkpt>
      <trkpt lat="44.24016" lon="7.73738">
        <ele>1856.92</ele>
        <time>2021-02-05T10:21:56Z</time>
      </trkpt>
      <trkpt lat="44.24016" lon="7.73737">
        <ele>1857.4</ele>
        <time>2021-02-05T10:22:14Z</time>
      </trkpt>
      <trkpt lat="44.24015" lon="7.73736">
        <ele>1857.89</ele>
        <time>2021-02-05T10:22:29Z</time>
      </trkpt>
      <trkpt lat="44.24006" lon="7.73736">
        <ele>1859.33</ele>
        <time>2021-02-05T10:22:41Z</time>
      </trkpt>
      <trkpt lat="44.23996" lon="7.73734">
        <ele>1863.17</ele>
        <time>2021-02-05T10:22:56Z</time>
      </trkpt>
      <trkpt lat="44.23988" lon="7.7373">
        <ele>1866.54</ele>
        <time>2021-02-05T10:23:14Z</time>
      </trkpt>
      <trkpt lat="44.23978" lon="7.73727">
        <ele>1871.34</ele>
        <time>2021-02-05T10:23:29Z</time>
      </trkpt>
      <trkpt lat="44.23972" lon="7.73724">
        <ele>1873.27</ele>
        <time>2021-02-05T10:23:44Z</time>
      </trkpt>
      <trkpt lat="44.23964" lon="7.73723">
        <ele>1874.71</ele>
        <time>2021-02-05T10:23:59Z</time>
      </trkpt>
      <trkpt lat="44.23954" lon="7.73721">
        <ele>1877.59</ele>
        <time>2021-02-05T10:24:18Z</time>
      </trkpt>
      <trkpt lat="44.23943" lon="7.73719">
        <ele>1878.55</ele>
        <time>2021-02-05T10:24:34Z</time>
      </trkpt>
      <trkpt lat="44.23931" lon="7.73717">
        <ele>1879.51</ele>
        <time>2021-02-05T10:24:51Z</time>
      </trkpt>
      <trkpt lat="44.23921" lon="7.73713">
        <ele>1880</ele>
        <time>2021-02-05T10:25:06Z</time>
      </trkpt>
      <trkpt lat="44.23909" lon="7.73711">
        <ele>1881.44</ele>
        <time>2021-02-05T10:25:22Z</time>
      </trkpt>
      <trkpt lat="44.23899" lon="7.73708">
        <ele>1883.36</ele>
        <time>2021-02-05T10:25:37Z</time>
      </trkpt>
      <trkpt lat="44.2389" lon="7.73704">
        <ele>1885.76</ele>
        <time>2021-02-05T10:25:54Z</time>
      </trkpt>
      <trkpt lat="44.2388" lon="7.73701">
        <ele>1887.21</ele>
        <time>2021-02-05T10:26:11Z</time>
      </trkpt>
      <trkpt lat="44.23872" lon="7.73699">
        <ele>1888.65</ele>
        <time>2021-02-05T10:26:28Z</time>
      </trkpt>
      <trkpt lat="44.23868" lon="7.73699">
        <ele>1888.17</ele>
        <time>2021-02-05T10:26:48Z</time>
      </trkpt>
      <trkpt lat="44.23857" lon="7.73697">
        <ele>1891.05</ele>
        <time>2021-02-05T10:27:03Z</time>
      </trkpt>
      <trkpt lat="44.23851" lon="7.73695">
        <ele>1892.01</ele>
        <time>2021-02-05T10:27:19Z</time>
      </trkpt>
      <trkpt lat="44.23846" lon="7.73693">
        <ele>1894.9</ele>
        <time>2021-02-05T10:27:40Z</time>
      </trkpt>
      <trkpt lat="44.23835" lon="7.7369">
        <ele>1898.74</ele>
        <time>2021-02-05T10:27:58Z</time>
      </trkpt>
      <trkpt lat="44.23826" lon="7.73687">
        <ele>1899.7</ele>
        <time>2021-02-05T10:28:14Z</time>
      </trkpt>
      <trkpt lat="44.23819" lon="7.73685">
        <ele>1903.07</ele>
        <time>2021-02-05T10:28:29Z</time>
      </trkpt>
      <trkpt lat="44.2381" lon="7.73681">
        <ele>1904.99</ele>
        <time>2021-02-05T10:28:46Z</time>
      </trkpt>
      <trkpt lat="44.23801" lon="7.73679">
        <ele>1908.35</ele>
        <time>2021-02-05T10:29:05Z</time>
      </trkpt>
      <trkpt lat="44.23791" lon="7.73675">
        <ele>1910.28</ele>
        <time>2021-02-05T10:29:21Z</time>
      </trkpt>
      <trkpt lat="44.23784" lon="7.73671">
        <ele>1912.2</ele>
        <time>2021-02-05T10:29:37Z</time>
      </trkpt>
      <trkpt lat="44.23776" lon="7.73669">
        <ele>1914.6</ele>
        <time>2021-02-05T10:29:52Z</time>
      </trkpt>
      <trkpt lat="44.23768" lon="7.73664">
        <ele>1917.49</ele>
        <time>2021-02-05T10:30:08Z</time>
      </trkpt>
      <trkpt lat="44.23766" lon="7.73667">
        <ele>1917.01</ele>
        <time>2021-02-05T10:30:24Z</time>
      </trkpt>
      <trkpt lat="44.23762" lon="7.73664">
        <ele>1918.45</ele>
        <time>2021-02-05T10:30:40Z</time>
      </trkpt>
      <trkpt lat="44.23753" lon="7.7366">
        <ele>1921.81</ele>
        <time>2021-02-05T10:30:56Z</time>
      </trkpt>
      <trkpt lat="44.23749" lon="7.73657">
        <ele>1924.22</ele>
        <time>2021-02-05T10:31:12Z</time>
      </trkpt>
      <trkpt lat="44.23747" lon="7.7366">
        <ele>1923.74</ele>
        <time>2021-02-05T10:31:32Z</time>
      </trkpt>
      <trkpt lat="44.2374" lon="7.73656">
        <ele>1926.62</ele>
        <time>2021-02-05T10:31:49Z</time>
      </trkpt>
      <trkpt lat="44.23732" lon="7.73653">
        <ele>1928.54</ele>
        <time>2021-02-05T10:32:03Z</time>
      </trkpt>
      <trkpt lat="44.23723" lon="7.73651">
        <ele>1931.43</ele>
        <time>2021-02-05T10:32:20Z</time>
      </trkpt>
      <trkpt lat="44.23715" lon="7.73648">
        <ele>1933.35</ele>
        <time>2021-02-05T10:32:35Z</time>
      </trkpt>
      <trkpt lat="44.23707" lon="7.73644">
        <ele>1935.27</ele>
        <time>2021-02-05T10:32:50Z</time>
      </trkpt>
      <trkpt lat="44.237" lon="7.73642">
        <ele>1936.23</ele>
        <time>2021-02-05T10:33:08Z</time>
      </trkpt>
      <trkpt lat="44.23692" lon="7.73639">
        <ele>1940.08</ele>
        <time>2021-02-05T10:33:24Z</time>
      </trkpt>
      <trkpt lat="44.23685" lon="7.73636">
        <ele>1942</ele>
        <time>2021-02-05T10:33:39Z</time>
      </trkpt>
      <trkpt lat="44.23678" lon="7.73634">
        <ele>1943.92</ele>
        <time>2021-02-05T10:33:53Z</time>
      </trkpt>
      <trkpt lat="44.23678" lon="7.73635">
        <ele>1944.4</ele>
        <time>2021-02-05T10:34:26Z</time>
      </trkpt>
      <trkpt lat="44.23672" lon="7.73633">
        <ele>1945.36</ele>
        <time>2021-02-05T10:34:40Z</time>
      </trkpt>
      <trkpt lat="44.23665" lon="7.7363">
        <ele>1948.25</ele>
        <time>2021-02-05T10:34:56Z</time>
      </trkpt>
      <trkpt lat="44.23656" lon="7.7363">
        <ele>1951.13</ele>
        <time>2021-02-05T10:35:12Z</time>
      </trkpt>
      <trkpt lat="44.23648" lon="7.73626">
        <ele>1954.02</ele>
        <time>2021-02-05T10:35:31Z</time>
      </trkpt>
      <trkpt lat="44.23643" lon="7.73626">
        <ele>1956.42</ele>
        <time>2021-02-05T10:35:53Z</time>
      </trkpt>
      <trkpt lat="44.23636" lon="7.73625">
        <ele>1957.86</ele>
        <time>2021-02-05T10:36:07Z</time>
      </trkpt>
      <trkpt lat="44.23627" lon="7.73618">
        <ele>1957.38</ele>
        <time>2021-02-05T10:36:26Z</time>
      </trkpt>
      <trkpt lat="44.23619" lon="7.7361">
        <ele>1963.15</ele>
        <time>2021-02-05T10:36:42Z</time>
      </trkpt>
      <trkpt lat="44.23611" lon="7.73604">
        <ele>1966.03</ele>
        <time>2021-02-05T10:36:59Z</time>
      </trkpt>
      <trkpt lat="44.23606" lon="7.73599">
        <ele>1967.48</ele>
        <time>2021-02-05T10:37:19Z</time>
      </trkpt>
      <trkpt lat="44.23601" lon="7.73592">
        <ele>1967.96</ele>
        <time>2021-02-05T10:37:33Z</time>
      </trkpt>
      <trkpt lat="44.23591" lon="7.73581">
        <ele>1968.92</ele>
        <time>2021-02-05T10:37:50Z</time>
      </trkpt>
      <trkpt lat="44.23583" lon="7.73572">
        <ele>1970.36</ele>
        <time>2021-02-05T10:38:05Z</time>
      </trkpt>
      <trkpt lat="44.23575" lon="7.73563">
        <ele>1971.8</ele>
        <time>2021-02-05T10:38:20Z</time>
      </trkpt>
      <trkpt lat="44.23569" lon="7.73557">
        <ele>1971.32</ele>
        <time>2021-02-05T10:38:33Z</time>
      </trkpt>
      <trkpt lat="44.2356" lon="7.73549">
        <ele>1976.13</ele>
        <time>2021-02-05T10:38:52Z</time>
      </trkpt>
      <trkpt lat="44.23553" lon="7.73542">
        <ele>1979.97</ele>
        <time>2021-02-05T10:39:06Z</time>
      </trkpt>
      <trkpt lat="44.23546" lon="7.73535">
        <ele>1983.82</ele>
        <time>2021-02-05T10:39:22Z</time>
      </trkpt>
      <trkpt lat="44.23532" lon="7.73527">
        <ele>1982.38</ele>
        <time>2021-02-05T10:39:44Z</time>
      </trkpt>
      <trkpt lat="44.23524" lon="7.73521">
        <ele>1983.34</ele>
        <time>2021-02-05T10:40:00Z</time>
      </trkpt>
      <trkpt lat="44.23514" lon="7.73514">
        <ele>1985.26</ele>
        <time>2021-02-05T10:40:15Z</time>
      </trkpt>
      <trkpt lat="44.23504" lon="7.73509">
        <ele>1988.14</ele>
        <time>2021-02-05T10:40:31Z</time>
      </trkpt>
      <trkpt lat="44.23494" lon="7.73502">
        <ele>1988.62</ele>
        <time>2021-02-05T10:40:51Z</time>
      </trkpt>
      <trkpt lat="44.23488" lon="7.73497">
        <ele>1990.55</ele>
        <time>2021-02-05T10:41:04Z</time>
      </trkpt>
      <trkpt lat="44.2348" lon="7.7349">
        <ele>1993.91</ele>
        <time>2021-02-05T10:41:19Z</time>
      </trkpt>
      <trkpt lat="44.2347" lon="7.73486">
        <ele>1993.91</ele>
        <time>2021-02-05T10:41:34Z</time>
      </trkpt>
      <trkpt lat="44.2347" lon="7.73485">
        <ele>1991.99</ele>
        <time>2021-02-05T10:41:50Z</time>
      </trkpt>
      <trkpt lat="44.2347" lon="7.73485">
        <ele>1991.99</ele>
        <time>2021-02-05T10:42:11Z</time>
      </trkpt>
      <trkpt lat="44.23463" lon="7.73479">
        <ele>1992.95</ele>
        <time>2021-02-05T10:42:27Z</time>
      </trkpt>
      <trkpt lat="44.23454" lon="7.73474">
        <ele>1995.83</ele>
        <time>2021-02-05T10:42:44Z</time>
      </trkpt>
      <trkpt lat="44.23446" lon="7.73471">
        <ele>1997.28</ele>
        <time>2021-02-05T10:43:01Z</time>
      </trkpt>
      <trkpt lat="44.23442" lon="7.73471">
        <ele>1999.68</ele>
        <time>2021-02-05T10:43:21Z</time>
      </trkpt>
      <trkpt lat="44.23441" lon="7.73473">
        <ele>1999.68</ele>
        <time>2021-02-05T10:43:38Z</time>
      </trkpt>
      <trkpt lat="44.23436" lon="7.73473">
        <ele>2000.64</ele>
        <time>2021-02-05T10:44:00Z</time>
      </trkpt>
      <trkpt lat="44.23426" lon="7.73475">
        <ele>2004.01</ele>
        <time>2021-02-05T10:44:15Z</time>
      </trkpt>
      <trkpt lat="44.23414" lon="7.73479">
        <ele>2006.41</ele>
        <time>2021-02-05T10:44:34Z</time>
      </trkpt>
      <trkpt lat="44.23408" lon="7.73481">
        <ele>2006.41</ele>
        <time>2021-02-05T10:44:50Z</time>
      </trkpt>
      <trkpt lat="44.23402" lon="7.73482">
        <ele>2008.81</ele>
        <time>2021-02-05T10:45:04Z</time>
      </trkpt>
      <trkpt lat="44.23399" lon="7.73484">
        <ele>2011.22</ele>
        <time>2021-02-05T10:45:21Z</time>
      </trkpt>
      <trkpt lat="44.23392" lon="7.73486">
        <ele>2011.7</ele>
        <time>2021-02-05T10:45:38Z</time>
      </trkpt>
      <trkpt lat="44.23384" lon="7.73487">
        <ele>2016.02</ele>
        <time>2021-02-05T10:45:52Z</time>
      </trkpt>
      <trkpt lat="44.23375" lon="7.73486">
        <ele>2016.5</ele>
        <time>2021-02-05T10:46:07Z</time>
      </trkpt>
      <trkpt lat="44.23366" lon="7.73483">
        <ele>2019.39</ele>
        <time>2021-02-05T10:46:27Z</time>
      </trkpt>
      <trkpt lat="44.23357" lon="7.73483">
        <ele>2023.23</ele>
        <time>2021-02-05T10:46:41Z</time>
      </trkpt>
      <trkpt lat="44.23351" lon="7.73483">
        <ele>2024.19</ele>
        <time>2021-02-05T10:46:58Z</time>
      </trkpt>
      <trkpt lat="44.23349" lon="7.73482">
        <ele>2024.19</ele>
        <time>2021-02-05T10:47:30Z</time>
      </trkpt>
      <trkpt lat="44.2334" lon="7.73481">
        <ele>2023.71</ele>
        <time>2021-02-05T10:47:46Z</time>
      </trkpt>
      <trkpt lat="44.23332" lon="7.7348">
        <ele>2027.08</ele>
        <time>2021-02-05T10:48:02Z</time>
      </trkpt>
      <trkpt lat="44.23324" lon="7.73477">
        <ele>2029.96</ele>
        <time>2021-02-05T10:48:17Z</time>
      </trkpt>
      <trkpt lat="44.23316" lon="7.73476">
        <ele>2031.88</ele>
        <time>2021-02-05T10:48:34Z</time>
      </trkpt>
      <trkpt lat="44.23309" lon="7.73475">
        <ele>2034.29</ele>
        <time>2021-02-05T10:48:48Z</time>
      </trkpt>
      <trkpt lat="44.23301" lon="7.73474">
        <ele>2035.25</ele>
        <time>2021-02-05T10:49:05Z</time>
      </trkpt>
      <trkpt lat="44.2329" lon="7.73469">
        <ele>2036.21</ele>
        <time>2021-02-05T10:49:22Z</time>
      </trkpt>
      <trkpt lat="44.23281" lon="7.73466">
        <ele>2040.05</ele>
        <time>2021-02-05T10:49:38Z</time>
      </trkpt>
      <trkpt lat="44.23271" lon="7.73462">
        <ele>2042.46</ele>
        <time>2021-02-05T10:49:55Z</time>
      </trkpt>
      <trkpt lat="44.23263" lon="7.73461">
        <ele>2043.9</ele>
        <time>2021-02-05T10:50:09Z</time>
      </trkpt>
      <trkpt lat="44.23256" lon="7.73464">
        <ele>2046.3</ele>
        <time>2021-02-05T10:50:25Z</time>
      </trkpt>
      <trkpt lat="44.23249" lon="7.73469">
        <ele>2051.59</ele>
        <time>2021-02-05T10:50:41Z</time>
      </trkpt>
      <trkpt lat="44.23246" lon="7.73474">
        <ele>2053.03</ele>
        <time>2021-02-05T10:50:57Z</time>
      </trkpt>
      <trkpt lat="44.23248" lon="7.73476">
        <ele>2050.63</ele>
        <time>2021-02-05T10:51:27Z</time>
      </trkpt>
      <trkpt lat="44.2325" lon="7.73474">
        <ele>2048.71</ele>
        <time>2021-02-05T10:51:54Z</time>
      </trkpt>
      <trkpt lat="44.23249" lon="7.73474">
        <ele>2047.75</ele>
        <time>2021-02-05T10:52:10Z</time>
      </trkpt>
      <trkpt lat="44.23249" lon="7.73474">
        <ele>2047.75</ele>
        <time>2021-02-05T10:52:38Z</time>
      </trkpt>
      <trkpt lat="44.23249" lon="7.73474">
        <ele>2047.26</ele>
        <time>2021-02-05T10:53:04Z</time>
      </trkpt>
      <trkpt lat="44.23246" lon="7.73476">
        <ele>2048.23</ele>
        <time>2021-02-05T10:53:19Z</time>
      </trkpt>
      <trkpt lat="44.23237" lon="7.73483">
        <ele>2052.55</ele>
        <time>2021-02-05T10:53:36Z</time>
      </trkpt>
      <trkpt lat="44.2323" lon="7.73485">
        <ele>2054.96</ele>
        <time>2021-02-05T10:53:50Z</time>
      </trkpt>
      <trkpt lat="44.23226" lon="7.73485">
        <ele>2055.92</ele>
        <time>2021-02-05T10:54:05Z</time>
      </trkpt>
      <trkpt lat="44.23218" lon="7.73485">
        <ele>2057.84</ele>
        <time>2021-02-05T10:54:20Z</time>
      </trkpt>
      <trkpt lat="44.23217" lon="7.73489">
        <ele>2058.8</ele>
        <time>2021-02-05T10:54:35Z</time>
      </trkpt>
      <trkpt lat="44.23209" lon="7.73495">
        <ele>2063.13</ele>
        <time>2021-02-05T10:54:52Z</time>
      </trkpt>
      <trkpt lat="44.23207" lon="7.735">
        <ele>2065.05</ele>
        <time>2021-02-05T10:55:09Z</time>
      </trkpt>
      <trkpt lat="44.23202" lon="7.73502">
        <ele>2064.57</ele>
        <time>2021-02-05T10:55:24Z</time>
      </trkpt>
      <trkpt lat="44.23194" lon="7.73504">
        <ele>2065.05</ele>
        <time>2021-02-05T10:55:40Z</time>
      </trkpt>
      <trkpt lat="44.23187" lon="7.73508">
        <ele>2067.93</ele>
        <time>2021-02-05T10:55:54Z</time>
      </trkpt>
      <trkpt lat="44.23182" lon="7.7351">
        <ele>2069.86</ele>
        <time>2021-02-05T10:56:11Z</time>
      </trkpt>
      <trkpt lat="44.23175" lon="7.73512">
        <ele>2072.26</ele>
        <time>2021-02-05T10:56:25Z</time>
      </trkpt>
      <trkpt lat="44.23169" lon="7.73502">
        <ele>2071.3</ele>
        <time>2021-02-05T10:56:39Z</time>
      </trkpt>
      <trkpt lat="44.23164" lon="7.73495">
        <ele>2074.18</ele>
        <time>2021-02-05T10:56:57Z</time>
      </trkpt>
      <trkpt lat="44.23164" lon="7.73497">
        <ele>2076.1</ele>
        <time>2021-02-05T10:57:19Z</time>
      </trkpt>
      <trkpt lat="44.23159" lon="7.73497">
        <ele>2076.59</ele>
        <time>2021-02-05T10:57:35Z</time>
      </trkpt>
      <trkpt lat="44.23152" lon="7.7349">
        <ele>2076.59</ele>
        <time>2021-02-05T10:57:48Z</time>
      </trkpt>
      <trkpt lat="44.23149" lon="7.73478">
        <ele>2079.47</ele>
        <time>2021-02-05T10:58:02Z</time>
      </trkpt>
      <trkpt lat="44.23142" lon="7.73468">
        <ele>2082.83</ele>
        <time>2021-02-05T10:58:17Z</time>
      </trkpt>
      <trkpt lat="44.23132" lon="7.73463">
        <ele>2088.12</ele>
        <time>2021-02-05T10:58:37Z</time>
      </trkpt>
      <trkpt lat="44.23127" lon="7.73456">
        <ele>2089.08</ele>
        <time>2021-02-05T10:58:50Z</time>
      </trkpt>
      <trkpt lat="44.23128" lon="7.73447">
        <ele>2088.6</ele>
        <time>2021-02-05T10:59:03Z</time>
      </trkpt>
      <trkpt lat="44.23129" lon="7.73437">
        <ele>2090.04</ele>
        <time>2021-02-05T10:59:16Z</time>
      </trkpt>
      <trkpt lat="44.2313" lon="7.73427">
        <ele>2090.52</ele>
        <time>2021-02-05T10:59:27Z</time>
      </trkpt>
      <trkpt lat="44.23131" lon="7.73418">
        <ele>2092.45</ele>
        <time>2021-02-05T10:59:41Z</time>
      </trkpt>
      <trkpt lat="44.23131" lon="7.73412">
        <ele>2092.93</ele>
        <time>2021-02-05T10:59:53Z</time>
      </trkpt>
      <trkpt lat="44.2313" lon="7.73411">
        <ele>2094.37</ele>
        <time>2021-02-05T11:00:10Z</time>
      </trkpt>
      <trkpt lat="44.23127" lon="7.73402">
        <ele>2096.77</ele>
        <time>2021-02-05T11:00:22Z</time>
      </trkpt>
      <trkpt lat="44.23124" lon="7.73393">
        <ele>2098.7</ele>
        <time>2021-02-05T11:00:35Z</time>
      </trkpt>
      <trkpt lat="44.23123" lon="7.73386">
        <ele>2098.7</ele>
        <time>2021-02-05T11:00:50Z</time>
      </trkpt>
      <trkpt lat="44.23123" lon="7.73384">
        <ele>2098.21</ele>
        <time>2021-02-05T11:01:15Z</time>
      </trkpt>
      <trkpt lat="44.23122" lon="7.73371">
        <ele>2099.18</ele>
        <time>2021-02-05T11:01:27Z</time>
      </trkpt>
      <trkpt lat="44.23122" lon="7.73364">
        <ele>2099.18</ele>
        <time>2021-02-05T11:01:39Z</time>
      </trkpt>
      <trkpt lat="44.23121" lon="7.73353">
        <ele>2099.66</ele>
        <time>2021-02-05T11:01:55Z</time>
      </trkpt>
      <trkpt lat="44.23121" lon="7.7335">
        <ele>2099.66</ele>
        <time>2021-02-05T11:02:13Z</time>
      </trkpt>
      <trkpt lat="44.23122" lon="7.73349">
        <ele>2100.14</ele>
        <time>2021-02-05T11:02:37Z</time>
      </trkpt>
      <trkpt lat="44.23123" lon="7.73347">
        <ele>2101.1</ele>
        <time>2021-02-05T11:02:42Z</time>
      </trkpt>
      <trkpt lat="44.23128" lon="7.73347">
        <ele>2101.58</ele>
        <time>2021-02-05T11:02:56Z</time>
      </trkpt>
      <trkpt lat="44.23127" lon="7.7335">
        <ele>2101.58</ele>
        <time>2021-02-05T11:03:12Z</time>
      </trkpt>
      <trkpt lat="44.23129" lon="7.7335">
        <ele>2101.1</ele>
        <time>2021-02-05T11:03:24Z</time>
      </trkpt>
      <trkpt lat="44.23129" lon="7.73353">
        <ele>2100.62</ele>
        <time>2021-02-05T11:03:37Z</time>
      </trkpt>
      <trkpt lat="44.23129" lon="7.7335">
        <ele>2102.06</ele>
        <time>2021-02-05T11:04:03Z</time>
      </trkpt>
      <trkpt lat="44.23128" lon="7.73348">
        <ele>2101.1</ele>
        <time>2021-02-05T11:04:13Z</time>
      </trkpt>
      <trkpt lat="44.23127" lon="7.73351">
        <ele>2099.66</ele>
        <time>2021-02-05T11:04:42Z</time>
      </trkpt>
      <trkpt lat="44.23127" lon="7.7335">
        <ele>2099.18</ele>
        <time>2021-02-05T11:05:09Z</time>
      </trkpt>
      <trkpt lat="44.23127" lon="7.73348">
        <ele>2100.62</ele>
        <time>2021-02-05T11:05:41Z</time>
      </trkpt>
      <trkpt lat="44.23126" lon="7.73349">
        <ele>2103.02</ele>
        <time>2021-02-05T11:06:31Z</time>
      </trkpt>
      <trkpt lat="44.23127" lon="7.7335">
        <ele>2102.54</ele>
        <time>2021-02-05T11:07:11Z</time>
      </trkpt>
      <trkpt lat="44.23127" lon="7.7335">
        <ele>2102.54</ele>
        <time>2021-02-05T11:07:54Z</time>
      </trkpt>
      <trkpt lat="44.23128" lon="7.7335">
        <ele>2101.1</ele>
        <time>2021-02-05T11:08:36Z</time>
      </trkpt>
      <trkpt lat="44.23128" lon="7.73351">
        <ele>2101.1</ele>
        <time>2021-02-05T11:09:25Z</time>
      </trkpt>
      <trkpt lat="44.23129" lon="7.7335">
        <ele>2101.58</ele>
        <time>2021-02-05T11:09:56Z</time>
      </trkpt>
      <trkpt lat="44.23129" lon="7.73349">
        <ele>2099.66</ele>
        <time>2021-02-05T11:10:39Z</time>
      </trkpt>
      <trkpt lat="44.23129" lon="7.7335">
        <ele>2100.14</ele>
        <time>2021-02-05T11:11:19Z</time>
      </trkpt>
      <trkpt lat="44.23128" lon="7.7335">
        <ele>2100.14</ele>
        <time>2021-02-05T11:11:56Z</time>
      </trkpt>
      <trkpt lat="44.23128" lon="7.73349">
        <ele>2100.14</ele>
        <time>2021-02-05T11:12:32Z</time>
      </trkpt>
      <trkpt lat="44.23129" lon="7.73351">
        <ele>2100.62</ele>
        <time>2021-02-05T11:13:06Z</time>
      </trkpt>
      <trkpt lat="44.23129" lon="7.7335">
        <ele>2099.18</ele>
        <time>2021-02-05T11:13:51Z</time>
      </trkpt>
      <trkpt lat="44.23129" lon="7.7335">
        <ele>2098.7</ele>
        <time>2021-02-05T11:14:44Z</time>
      </trkpt>
      <trkpt lat="44.23129" lon="7.7335">
        <ele>2099.18</ele>
        <time>2021-02-05T11:15:17Z</time>
      </trkpt>
      <trkpt lat="44.23129" lon="7.73351">
        <ele>2098.21</ele>
        <time>2021-02-05T11:15:59Z</time>
      </trkpt>
      <trkpt lat="44.23128" lon="7.7335">
        <ele>2099.66</ele>
        <time>2021-02-05T11:16:39Z</time>
      </trkpt>
      <trkpt lat="44.2313" lon="7.7335">
        <ele>2099.66</ele>
        <time>2021-02-05T11:17:19Z</time>
      </trkpt>
      <trkpt lat="44.23129" lon="7.7335">
        <ele>2098.7</ele>
        <time>2021-02-05T11:18:02Z</time>
      </trkpt>
      <trkpt lat="44.2313" lon="7.73351">
        <ele>2098.21</ele>
        <time>2021-02-05T11:18:42Z</time>
      </trkpt>
      <trkpt lat="44.23129" lon="7.73352">
        <ele>2098.21</ele>
        <time>2021-02-05T11:19:36Z</time>
      </trkpt>
      <trkpt lat="44.23129" lon="7.73351">
        <ele>2098.7</ele>
        <time>2021-02-05T11:20:32Z</time>
      </trkpt>
      <trkpt lat="44.23129" lon="7.73351">
        <ele>2100.14</ele>
        <time>2021-02-05T11:21:17Z</time>
      </trkpt>
      <trkpt lat="44.23129" lon="7.73351">
        <ele>2099.66</ele>
        <time>2021-02-05T11:22:07Z</time>
      </trkpt>
      <trkpt lat="44.23128" lon="7.73351">
        <ele>2100.14</ele>
        <time>2021-02-05T11:22:49Z</time>
      </trkpt>
      <trkpt lat="44.23128" lon="7.73351">
        <ele>2100.14</ele>
        <time>2021-02-05T11:23:24Z</time>
      </trkpt>
      <trkpt lat="44.23128" lon="7.73351">
        <ele>2101.1</ele>
        <time>2021-02-05T11:24:07Z</time>
      </trkpt>
      <trkpt lat="44.23128" lon="7.73351">
        <ele>2099.66</ele>
        <time>2021-02-05T11:24:53Z</time>
      </trkpt>
      <trkpt lat="44.23129" lon="7.73351">
        <ele>2099.18</ele>
        <time>2021-02-05T11:25:39Z</time>
      </trkpt>
      <trkpt lat="44.23129" lon="7.73351">
        <ele>2100.62</ele>
        <time>2021-02-05T11:26:25Z</time>
      </trkpt>
      <trkpt lat="44.23129" lon="7.73351">
        <ele>2100.62</ele>
        <time>2021-02-05T11:27:09Z</time>
      </trkpt>
      <trkpt lat="44.23128" lon="7.73351">
        <ele>2102.54</ele>
        <time>2021-02-05T11:27:57Z</time>
      </trkpt>
      <trkpt lat="44.23128" lon="7.73351">
        <ele>2101.58</ele>
        <time>2021-02-05T11:28:41Z</time>
      </trkpt>
      <trkpt lat="44.23128" lon="7.73351">
        <ele>2101.58</ele>
        <time>2021-02-05T11:29:13Z</time>
      </trkpt>
      <trkpt lat="44.23128" lon="7.73351">
        <ele>2100.62</ele>
        <time>2021-02-05T11:29:54Z</time>
      </trkpt>
      <trkpt lat="44.23128" lon="7.73351">
        <ele>2100.62</ele>
        <time>2021-02-05T11:30:40Z</time>
      </trkpt>
      <trkpt lat="44.23129" lon="7.73351">
        <ele>2100.62</ele>
        <time>2021-02-05T11:31:16Z</time>
      </trkpt>
      <trkpt lat="44.23129" lon="7.73351">
        <ele>2101.1</ele>
        <time>2021-02-05T11:31:48Z</time>
      </trkpt>
      <trkpt lat="44.2313" lon="7.73351">
        <ele>2102.06</ele>
        <time>2021-02-05T11:32:29Z</time>
      </trkpt>
      <trkpt lat="44.2313" lon="7.73351">
        <ele>2101.58</ele>
        <time>2021-02-05T11:33:09Z</time>
      </trkpt>
      <trkpt lat="44.2313" lon="7.73351">
        <ele>2101.58</ele>
        <time>2021-02-05T11:33:43Z</time>
      </trkpt>
      <trkpt lat="44.23129" lon="7.73351">
        <ele>2102.54</ele>
        <time>2021-02-05T11:34:22Z</time>
      </trkpt>
      <trkpt lat="44.23128" lon="7.7335">
        <ele>2101.1</ele>
        <time>2021-02-05T11:34:59Z</time>
      </trkpt>
      <trkpt lat="44.23129" lon="7.73351">
        <ele>2101.58</ele>
        <time>2021-02-05T11:35:35Z</time>
      </trkpt>
      <trkpt lat="44.2313" lon="7.73351">
        <ele>2102.06</ele>
        <time>2021-02-05T11:36:04Z</time>
      </trkpt>
      <trkpt lat="44.23128" lon="7.73352">
        <ele>2103.5</ele>
        <time>2021-02-05T11:36:46Z</time>
      </trkpt>
      <trkpt lat="44.23128" lon="7.73351">
        <ele>2103.02</ele>
        <time>2021-02-05T11:37:15Z</time>
      </trkpt>
      <trkpt lat="44.23128" lon="7.73351">
        <ele>2103.5</ele>
        <time>2021-02-05T11:37:57Z</time>
      </trkpt>
      <trkpt lat="44.23129" lon="7.73349">
        <ele>2103.5</ele>
        <time>2021-02-05T11:38:16Z</time>
      </trkpt>
      <trkpt lat="44.2313" lon="7.73347">
        <ele>2103.98</ele>
        <time>2021-02-05T11:38:45Z</time>
      </trkpt>
      <trkpt lat="44.23129" lon="7.73348">
        <ele>2102.54</ele>
        <time>2021-02-05T11:39:11Z</time>
      </trkpt>
      <trkpt lat="44.2313" lon="7.73347">
        <ele>2102.06</ele>
        <time>2021-02-05T11:39:44Z</time>
      </trkpt>
      <trkpt lat="44.2313" lon="7.73348">
        <ele>2101.58</ele>
        <time>2021-02-05T11:40:27Z</time>
      </trkpt>
      <trkpt lat="44.23129" lon="7.73347">
        <ele>2100.62</ele>
        <time>2021-02-05T11:40:56Z</time>
      </trkpt>
      <trkpt lat="44.23129" lon="7.73348">
        <ele>2101.1</ele>
        <time>2021-02-05T11:41:26Z</time>
      </trkpt>
      <trkpt lat="44.23127" lon="7.73346">
        <ele>2103.02</ele>
        <time>2021-02-05T11:41:37Z</time>
      </trkpt>
      <trkpt lat="44.23127" lon="7.73351">
        <ele>2103.02</ele>
        <time>2021-02-05T11:41:53Z</time>
      </trkpt>
      <trkpt lat="44.23128" lon="7.73351">
        <ele>2103.98</ele>
        <time>2021-02-05T11:42:11Z</time>
      </trkpt>
      <trkpt lat="44.23128" lon="7.73356">
        <ele>2105.42</ele>
        <time>2021-02-05T11:42:30Z</time>
      </trkpt>
      <trkpt lat="44.23128" lon="7.73351">
        <ele>2103.5</ele>
        <time>2021-02-05T11:42:41Z</time>
      </trkpt>
      <trkpt lat="44.23128" lon="7.73353">
        <ele>2101.1</ele>
        <time>2021-02-05T11:42:53Z</time>
      </trkpt>
      <trkpt lat="44.23129" lon="7.73352">
        <ele>2099.66</ele>
        <time>2021-02-05T11:43:01Z</time>
      </trkpt>
      <trkpt lat="44.23129" lon="7.73353">
        <ele>2098.21</ele>
        <time>2021-02-05T11:43:09Z</time>
      </trkpt>
      <trkpt lat="44.23128" lon="7.73354">
        <ele>2099.66</ele>
        <time>2021-02-05T11:43:26Z</time>
      </trkpt>
      <trkpt lat="44.23129" lon="7.73353">
        <ele>2098.21</ele>
        <time>2021-02-05T11:43:42Z</time>
      </trkpt>
      <trkpt lat="44.23129" lon="7.73349">
        <ele>2098.21</ele>
        <time>2021-02-05T11:44:01Z</time>
      </trkpt>
      <trkpt lat="44.23128" lon="7.7335">
        <ele>2099.66</ele>
        <time>2021-02-05T11:44:09Z</time>
      </trkpt>
      <trkpt lat="44.23126" lon="7.73349">
        <ele>2102.54</ele>
        <time>2021-02-05T11:44:33Z</time>
      </trkpt>
      <trkpt lat="44.23127" lon="7.7335">
        <ele>2103.5</ele>
        <time>2021-02-05T11:45:00Z</time>
      </trkpt>
      <trkpt lat="44.23126" lon="7.73351">
        <ele>2102.54</ele>
        <time>2021-02-05T11:45:13Z</time>
      </trkpt>
      <trkpt lat="44.23126" lon="7.73353">
        <ele>2103.98</ele>
        <time>2021-02-05T11:45:38Z</time>
      </trkpt>
      <trkpt lat="44.23126" lon="7.73349">
        <ele>2103.98</ele>
        <time>2021-02-05T11:46:03Z</time>
      </trkpt>
      <trkpt lat="44.23127" lon="7.7335">
        <ele>2103.02</ele>
        <time>2021-02-05T11:46:21Z</time>
      </trkpt>
      <trkpt lat="44.23128" lon="7.73352">
        <ele>2105.91</ele>
        <time>2021-02-05T11:46:49Z</time>
      </trkpt>
      <trkpt lat="44.23128" lon="7.73353">
        <ele>2105.91</ele>
        <time>2021-02-05T11:46:53Z</time>
      </trkpt>
      <trkpt lat="44.2313" lon="7.73375">
        <ele>2103.98</ele>
        <time>2021-02-05T11:46:59Z</time>
      </trkpt>
      <trkpt lat="44.23115" lon="7.73425">
        <ele>2100.14</ele>
        <time>2021-02-05T11:47:08Z</time>
      </trkpt>
      <trkpt lat="44.23112" lon="7.73436">
        <ele>2099.18</ele>
        <time>2021-02-05T11:47:10Z</time>
      </trkpt>
      <trkpt lat="44.23121" lon="7.73448">
        <ele>2095.81</ele>
        <time>2021-02-05T11:47:16Z</time>
      </trkpt>
      <trkpt lat="44.2312" lon="7.73455">
        <ele>2095.33</ele>
        <time>2021-02-05T11:47:30Z</time>
      </trkpt>
      <trkpt lat="44.23129" lon="7.73473">
        <ele>2091.97</ele>
        <time>2021-02-05T11:47:36Z</time>
      </trkpt>
      <trkpt lat="44.23128" lon="7.73487">
        <ele>2090.52</ele>
        <time>2021-02-05T11:47:38Z</time>
      </trkpt>
      <trkpt lat="44.23129" lon="7.73493">
        <ele>2090.04</ele>
        <time>2021-02-05T11:47:39Z</time>
      </trkpt>
      <trkpt lat="44.23135" lon="7.73497">
        <ele>2089.08</ele>
        <time>2021-02-05T11:47:41Z</time>
      </trkpt>
      <trkpt lat="44.23139" lon="7.73495">
        <ele>2088.6</ele>
        <time>2021-02-05T11:47:42Z</time>
      </trkpt>
      <trkpt lat="44.23147" lon="7.73498">
        <ele>2087.16</ele>
        <time>2021-02-05T11:47:44Z</time>
      </trkpt>
      <trkpt lat="44.2315" lon="7.73502">
        <ele>2086.68</ele>
        <time>2021-02-05T11:47:45Z</time>
      </trkpt>
      <trkpt lat="44.23155" lon="7.73509">
        <ele>2086.2</ele>
        <time>2021-02-05T11:47:47Z</time>
      </trkpt>
      <trkpt lat="44.23156" lon="7.73512">
        <ele>2086.2</ele>
        <time>2021-02-05T11:47:48Z</time>
      </trkpt>
      <trkpt lat="44.23156" lon="7.73516">
        <ele>2084.28</ele>
        <time>2021-02-05T11:47:59Z</time>
      </trkpt>
      <trkpt lat="44.23157" lon="7.73516">
        <ele>2084.28</ele>
        <time>2021-02-05T11:48:03Z</time>
      </trkpt>
      <trkpt lat="44.23166" lon="7.73506">
        <ele>2080.43</ele>
        <time>2021-02-05T11:48:09Z</time>
      </trkpt>
      <trkpt lat="44.23169" lon="7.73506">
        <ele>2078.99</ele>
        <time>2021-02-05T11:48:10Z</time>
      </trkpt>
      <trkpt lat="44.2317" lon="7.73507">
        <ele>2078.03</ele>
        <time>2021-02-05T11:48:11Z</time>
      </trkpt>
      <trkpt lat="44.23172" lon="7.73509">
        <ele>2077.55</ele>
        <time>2021-02-05T11:48:12Z</time>
      </trkpt>
      <trkpt lat="44.23173" lon="7.73512">
        <ele>2077.07</ele>
        <time>2021-02-05T11:48:13Z</time>
      </trkpt>
      <trkpt lat="44.23176" lon="7.73514">
        <ele>2076.1</ele>
        <time>2021-02-05T11:48:15Z</time>
      </trkpt>
      <trkpt lat="44.23178" lon="7.73511">
        <ele>2075.62</ele>
        <time>2021-02-05T11:48:16Z</time>
      </trkpt>
      <trkpt lat="44.2318" lon="7.73508">
        <ele>2075.14</ele>
        <time>2021-02-05T11:48:17Z</time>
      </trkpt>
      <trkpt lat="44.23183" lon="7.73507">
        <ele>2074.18</ele>
        <time>2021-02-05T11:48:18Z</time>
      </trkpt>
      <trkpt lat="44.23195" lon="7.73506">
        <ele>2070.34</ele>
        <time>2021-02-05T11:48:21Z</time>
      </trkpt>
      <trkpt lat="44.23198" lon="7.73503">
        <ele>2068.89</ele>
        <time>2021-02-05T11:48:22Z</time>
      </trkpt>
      <trkpt lat="44.23202" lon="7.73501">
        <ele>2067.93</ele>
        <time>2021-02-05T11:48:23Z</time>
      </trkpt>
      <trkpt lat="44.23206" lon="7.73498">
        <ele>2066.01</ele>
        <time>2021-02-05T11:48:24Z</time>
      </trkpt>
      <trkpt lat="44.23215" lon="7.73491">
        <ele>2062.65</ele>
        <time>2021-02-05T11:48:26Z</time>
      </trkpt>
      <trkpt lat="44.23223" lon="7.73486">
        <ele>2060.72</ele>
        <time>2021-02-05T11:48:28Z</time>
      </trkpt>
      <trkpt lat="44.23226" lon="7.73486">
        <ele>2060.72</ele>
        <time>2021-02-05T11:48:29Z</time>
      </trkpt>
      <trkpt lat="44.23228" lon="7.73489">
        <ele>2060.24</ele>
        <time>2021-02-05T11:48:30Z</time>
      </trkpt>
      <trkpt lat="44.2323" lon="7.7349">
        <ele>2060.24</ele>
        <time>2021-02-05T11:48:31Z</time>
      </trkpt>
      <trkpt lat="44.23253" lon="7.73466">
        <ele>2053.99</ele>
        <time>2021-02-05T11:48:38Z</time>
      </trkpt>
      <trkpt lat="44.23278" lon="7.73463">
        <ele>2047.75</ele>
        <time>2021-02-05T11:48:43Z</time>
      </trkpt>
      <trkpt lat="44.23287" lon="7.73464">
        <ele>2045.82</ele>
        <time>2021-02-05T11:48:45Z</time>
      </trkpt>
      <trkpt lat="44.233" lon="7.73472">
        <ele>2042.94</ele>
        <time>2021-02-05T11:48:51Z</time>
      </trkpt>
      <trkpt lat="44.233" lon="7.7347">
        <ele>2042.94</ele>
        <time>2021-02-05T11:49:04Z</time>
      </trkpt>
      <trkpt lat="44.23302" lon="7.73469">
        <ele>2041.02</ele>
        <time>2021-02-05T11:49:22Z</time>
      </trkpt>
      <trkpt lat="44.23318" lon="7.73475">
        <ele>2037.65</ele>
        <time>2021-02-05T11:49:29Z</time>
      </trkpt>
      <trkpt lat="44.2332" lon="7.73479">
        <ele>2036.69</ele>
        <time>2021-02-05T11:49:30Z</time>
      </trkpt>
      <trkpt lat="44.23323" lon="7.73496">
        <ele>2035.25</ele>
        <time>2021-02-05T11:49:33Z</time>
      </trkpt>
      <trkpt lat="44.23334" lon="7.73496">
        <ele>2034.29</ele>
        <time>2021-02-05T11:49:39Z</time>
      </trkpt>
      <trkpt lat="44.23335" lon="7.73492">
        <ele>2034.29</ele>
        <time>2021-02-05T11:49:40Z</time>
      </trkpt>
      <trkpt lat="44.23338" lon="7.73485">
        <ele>2033.81</ele>
        <time>2021-02-05T11:49:42Z</time>
      </trkpt>
      <trkpt lat="44.23358" lon="7.73483">
        <ele>2029</ele>
        <time>2021-02-05T11:49:48Z</time>
      </trkpt>
      <trkpt lat="44.23375" lon="7.73484">
        <ele>2024.67</ele>
        <time>2021-02-05T11:49:52Z</time>
      </trkpt>
      <trkpt lat="44.23397" lon="7.73457">
        <ele>2020.35</ele>
        <time>2021-02-05T11:50:03Z</time>
      </trkpt>
      <trkpt lat="44.2341" lon="7.73445">
        <ele>2017.46</ele>
        <time>2021-02-05T11:50:08Z</time>
      </trkpt>
      <trkpt lat="44.23414" lon="7.73449">
        <ele>2016.5</ele>
        <time>2021-02-05T11:50:10Z</time>
      </trkpt>
      <trkpt lat="44.23433" lon="7.73443">
        <ele>2011.22</ele>
        <time>2021-02-05T11:50:17Z</time>
      </trkpt>
      <trkpt lat="44.23433" lon="7.73457">
        <ele>2008.33</ele>
        <time>2021-02-05T11:50:20Z</time>
      </trkpt>
      <trkpt lat="44.23435" lon="7.73502">
        <ele>2004.01</ele>
        <time>2021-02-05T11:50:27Z</time>
      </trkpt>
      <trkpt lat="44.23447" lon="7.73506">
        <ele>2001.12</ele>
        <time>2021-02-05T11:50:32Z</time>
      </trkpt>
      <trkpt lat="44.2345" lon="7.73509">
        <ele>2000.64</ele>
        <time>2021-02-05T11:50:33Z</time>
      </trkpt>
      <trkpt lat="44.23457" lon="7.73521">
        <ele>1999.2</ele>
        <time>2021-02-05T11:50:36Z</time>
      </trkpt>
      <trkpt lat="44.23461" lon="7.73537">
        <ele>1997.76</ele>
        <time>2021-02-05T11:50:39Z</time>
      </trkpt>
      <trkpt lat="44.23475" lon="7.73539">
        <ele>1994.87</ele>
        <time>2021-02-05T11:50:45Z</time>
      </trkpt>
      <trkpt lat="44.23494" lon="7.73545">
        <ele>1989.59</ele>
        <time>2021-02-05T11:50:52Z</time>
      </trkpt>
      <trkpt lat="44.23502" lon="7.73541">
        <ele>1988.14</ele>
        <time>2021-02-05T11:50:56Z</time>
      </trkpt>
      <trkpt lat="44.23503" lon="7.73539">
        <ele>1987.66</ele>
        <time>2021-02-05T11:51:06Z</time>
      </trkpt>
      <trkpt lat="44.23502" lon="7.7354">
        <ele>1986.7</ele>
        <time>2021-02-05T11:51:18Z</time>
      </trkpt>
      <trkpt lat="44.23503" lon="7.7354">
        <ele>1987.66</ele>
        <time>2021-02-05T11:51:32Z</time>
      </trkpt>
      <trkpt lat="44.23513" lon="7.73531">
        <ele>1986.7</ele>
        <time>2021-02-05T11:51:38Z</time>
      </trkpt>
      <trkpt lat="44.23517" lon="7.73534">
        <ele>1986.22</ele>
        <time>2021-02-05T11:51:40Z</time>
      </trkpt>
      <trkpt lat="44.23527" lon="7.73545">
        <ele>1984.78</ele>
        <time>2021-02-05T11:51:44Z</time>
      </trkpt>
      <trkpt lat="44.23533" lon="7.73552">
        <ele>1982.86</ele>
        <time>2021-02-05T11:51:46Z</time>
      </trkpt>
      <trkpt lat="44.23551" lon="7.73586">
        <ele>1976.61</ele>
        <time>2021-02-05T11:51:53Z</time>
      </trkpt>
      <trkpt lat="44.23552" lon="7.73591">
        <ele>1976.13</ele>
        <time>2021-02-05T11:51:54Z</time>
      </trkpt>
      <trkpt lat="44.23553" lon="7.73602">
        <ele>1974.69</ele>
        <time>2021-02-05T11:51:56Z</time>
      </trkpt>
      <trkpt lat="44.23561" lon="7.73613">
        <ele>1972.76</ele>
        <time>2021-02-05T11:52:00Z</time>
      </trkpt>
      <trkpt lat="44.23575" lon="7.73601">
        <ele>1970.36</ele>
        <time>2021-02-05T11:52:04Z</time>
      </trkpt>
      <trkpt lat="44.2359" lon="7.73583">
        <ele>1967.48</ele>
        <time>2021-02-05T11:52:09Z</time>
      </trkpt>
      <trkpt lat="44.23594" lon="7.73591">
        <ele>1966.99</ele>
        <time>2021-02-05T11:52:11Z</time>
      </trkpt>
      <trkpt lat="44.23606" lon="7.73596">
        <ele>1965.55</ele>
        <time>2021-02-05T11:52:15Z</time>
      </trkpt>
      <trkpt lat="44.23619" lon="7.73595">
        <ele>1963.15</ele>
        <time>2021-02-05T11:52:19Z</time>
      </trkpt>
      <trkpt lat="44.23622" lon="7.73604">
        <ele>1962.67</ele>
        <time>2021-02-05T11:52:21Z</time>
      </trkpt>
      <trkpt lat="44.23641" lon="7.73606">
        <ele>1958.34</ele>
        <time>2021-02-05T11:52:28Z</time>
      </trkpt>
      <trkpt lat="44.23653" lon="7.73604">
        <ele>1955.46</ele>
        <time>2021-02-05T11:52:33Z</time>
      </trkpt>
      <trkpt lat="44.2366" lon="7.73611">
        <ele>1952.57</ele>
        <time>2021-02-05T11:52:38Z</time>
      </trkpt>
      <trkpt lat="44.23671" lon="7.7362">
        <ele>1949.21</ele>
        <time>2021-02-05T11:52:45Z</time>
      </trkpt>
      <trkpt lat="44.23671" lon="7.7362">
        <ele>1948.25</ele>
        <time>2021-02-05T11:53:01Z</time>
      </trkpt>
      <trkpt lat="44.23672" lon="7.7362">
        <ele>1947.29</ele>
        <time>2021-02-05T11:53:15Z</time>
      </trkpt>
      <trkpt lat="44.23682" lon="7.73614">
        <ele>1945.36</ele>
        <time>2021-02-05T11:53:24Z</time>
      </trkpt>
      <trkpt lat="44.23683" lon="7.73618">
        <ele>1944.88</ele>
        <time>2021-02-05T11:53:25Z</time>
      </trkpt>
      <trkpt lat="44.23689" lon="7.73643">
        <ele>1942.96</ele>
        <time>2021-02-05T11:53:30Z</time>
      </trkpt>
      <trkpt lat="44.23692" lon="7.73664">
        <ele>1941.04</ele>
        <time>2021-02-05T11:53:33Z</time>
      </trkpt>
      <trkpt lat="44.23698" lon="7.73687">
        <ele>1939.12</ele>
        <time>2021-02-05T11:53:36Z</time>
      </trkpt>
      <trkpt lat="44.23706" lon="7.73737">
        <ele>1936.23</ele>
        <time>2021-02-05T11:53:45Z</time>
      </trkpt>
      <trkpt lat="44.23711" lon="7.73765">
        <ele>1932.39</ele>
        <time>2021-02-05T11:53:49Z</time>
      </trkpt>
      <trkpt lat="44.23719" lon="7.7379">
        <ele>1931.43</ele>
        <time>2021-02-05T11:53:53Z</time>
      </trkpt>
      <trkpt lat="44.23722" lon="7.73801">
        <ele>1930.95</ele>
        <time>2021-02-05T11:53:55Z</time>
      </trkpt>
      <trkpt lat="44.23725" lon="7.73803">
        <ele>1930.46</ele>
        <time>2021-02-05T11:53:56Z</time>
      </trkpt>
      <trkpt lat="44.23747" lon="7.73807">
        <ele>1925.66</ele>
        <time>2021-02-05T11:54:01Z</time>
      </trkpt>
      <trkpt lat="44.23766" lon="7.73811">
        <ele>1920.85</ele>
        <time>2021-02-05T11:54:05Z</time>
      </trkpt>
      <trkpt lat="44.23799" lon="7.73821">
        <ele>1913.16</ele>
        <time>2021-02-05T11:54:11Z</time>
      </trkpt>
      <trkpt lat="44.23839" lon="7.73829">
        <ele>1904.99</ele>
        <time>2021-02-05T11:54:18Z</time>
      </trkpt>
      <trkpt lat="44.23855" lon="7.73837">
        <ele>1900.66</ele>
        <time>2021-02-05T11:54:23Z</time>
      </trkpt>
      <trkpt lat="44.23855" lon="7.73837">
        <ele>1898.74</ele>
        <time>2021-02-05T11:54:36Z</time>
      </trkpt>
      <trkpt lat="44.23856" lon="7.73838">
        <ele>1898.74</ele>
        <time>2021-02-05T11:54:53Z</time>
      </trkpt>
      <trkpt lat="44.23861" lon="7.73834">
        <ele>1898.26</ele>
        <time>2021-02-05T11:54:57Z</time>
      </trkpt>
      <trkpt lat="44.23886" lon="7.73837">
        <ele>1893.45</ele>
        <time>2021-02-05T11:55:03Z</time>
      </trkpt>
      <trkpt lat="44.23912" lon="7.73842">
        <ele>1887.69</ele>
        <time>2021-02-05T11:55:08Z</time>
      </trkpt>
      <trkpt lat="44.23922" lon="7.73844">
        <ele>1886.24</ele>
        <time>2021-02-05T11:55:10Z</time>
      </trkpt>
      <trkpt lat="44.23957" lon="7.73857">
        <ele>1877.59</ele>
        <time>2021-02-05T11:55:17Z</time>
      </trkpt>
      <trkpt lat="44.23962" lon="7.73858">
        <ele>1876.15</ele>
        <time>2021-02-05T11:55:18Z</time>
      </trkpt>
      <trkpt lat="44.23996" lon="7.73864">
        <ele>1868.46</ele>
        <time>2021-02-05T11:55:24Z</time>
      </trkpt>
      <trkpt lat="44.24021" lon="7.73868">
        <ele>1863.17</ele>
        <time>2021-02-05T11:55:29Z</time>
      </trkpt>
      <trkpt lat="44.24026" lon="7.73873">
        <ele>1861.73</ele>
        <time>2021-02-05T11:55:37Z</time>
      </trkpt>
      <trkpt lat="44.24025" lon="7.73873">
        <ele>1860.29</ele>
        <time>2021-02-05T11:56:05Z</time>
      </trkpt>
      <trkpt lat="44.24026" lon="7.73872">
        <ele>1859.81</ele>
        <time>2021-02-05T11:56:28Z</time>
      </trkpt>
      <trkpt lat="44.24025" lon="7.73872">
        <ele>1859.81</ele>
        <time>2021-02-05T11:56:47Z</time>
      </trkpt>
      <trkpt lat="44.24025" lon="7.73872">
        <ele>1859.81</ele>
        <time>2021-02-05T11:57:12Z</time>
      </trkpt>
      <trkpt lat="44.24025" lon="7.73872">
        <ele>1860.77</ele>
        <time>2021-02-05T11:57:29Z</time>
      </trkpt>
      <trkpt lat="44.24025" lon="7.73872">
        <ele>1861.25</ele>
        <time>2021-02-05T11:57:53Z</time>
      </trkpt>
      <trkpt lat="44.24026" lon="7.73873">
        <ele>1860.77</ele>
        <time>2021-02-05T11:58:06Z</time>
      </trkpt>
      <trkpt lat="44.24044" lon="7.73871">
        <ele>1857.89</ele>
        <time>2021-02-05T11:58:13Z</time>
      </trkpt>
      <trkpt lat="44.24072" lon="7.73875">
        <ele>1851.64</ele>
        <time>2021-02-05T11:58:19Z</time>
      </trkpt>
      <trkpt lat="44.24096" lon="7.73881">
        <ele>1845.87</ele>
        <time>2021-02-05T11:58:24Z</time>
      </trkpt>
      <trkpt lat="44.24121" lon="7.73885">
        <ele>1839.62</ele>
        <time>2021-02-05T11:58:29Z</time>
      </trkpt>
      <trkpt lat="44.24143" lon="7.73884">
        <ele>1834.33</ele>
        <time>2021-02-05T11:58:34Z</time>
      </trkpt>
      <trkpt lat="44.24147" lon="7.73884">
        <ele>1832.89</ele>
        <time>2021-02-05T11:58:35Z</time>
      </trkpt>
      <trkpt lat="44.24188" lon="7.73886">
        <ele>1819.43</ele>
        <time>2021-02-05T11:58:43Z</time>
      </trkpt>
      <trkpt lat="44.24213" lon="7.73887">
        <ele>1813.66</ele>
        <time>2021-02-05T11:58:47Z</time>
      </trkpt>
      <trkpt lat="44.24262" lon="7.73891">
        <ele>1801.65</ele>
        <time>2021-02-05T11:58:54Z</time>
      </trkpt>
      <trkpt lat="44.24296" lon="7.73888">
        <ele>1792.52</ele>
        <time>2021-02-05T11:58:59Z</time>
      </trkpt>
      <trkpt lat="44.24317" lon="7.73884">
        <ele>1787.23</ele>
        <time>2021-02-05T11:59:02Z</time>
      </trkpt>
      <trkpt lat="44.24324" lon="7.73883">
        <ele>1785.79</ele>
        <time>2021-02-05T11:59:03Z</time>
      </trkpt>
      <trkpt lat="44.24331" lon="7.73881">
        <ele>1784.34</ele>
        <time>2021-02-05T11:59:04Z</time>
      </trkpt>
      <trkpt lat="44.24339" lon="7.73882">
        <ele>1783.38</ele>
        <time>2021-02-05T11:59:05Z</time>
      </trkpt>
      <trkpt lat="44.24346" lon="7.73882">
        <ele>1781.94</ele>
        <time>2021-02-05T11:59:06Z</time>
      </trkpt>
      <trkpt lat="44.24353" lon="7.73881">
        <ele>1780.98</ele>
        <time>2021-02-05T11:59:07Z</time>
      </trkpt>
      <trkpt lat="44.2436" lon="7.7388">
        <ele>1779.54</ele>
        <time>2021-02-05T11:59:08Z</time>
      </trkpt>
      <trkpt lat="44.24368" lon="7.73881">
        <ele>1778.1</ele>
        <time>2021-02-05T11:59:09Z</time>
      </trkpt>
      <trkpt lat="44.24375" lon="7.73881">
        <ele>1776.17</ele>
        <time>2021-02-05T11:59:10Z</time>
      </trkpt>
      <trkpt lat="44.24382" lon="7.73881">
        <ele>1774.73</ele>
        <time>2021-02-05T11:59:11Z</time>
      </trkpt>
      <trkpt lat="44.2439" lon="7.73882">
        <ele>1773.77</ele>
        <time>2021-02-05T11:59:12Z</time>
      </trkpt>
      <trkpt lat="44.24397" lon="7.73881">
        <ele>1772.81</ele>
        <time>2021-02-05T11:59:13Z</time>
      </trkpt>
      <trkpt lat="44.24404" lon="7.7388">
        <ele>1771.85</ele>
        <time>2021-02-05T11:59:14Z</time>
      </trkpt>
      <trkpt lat="44.24417" lon="7.73883">
        <ele>1770.41</ele>
        <time>2021-02-05T11:59:16Z</time>
      </trkpt>
      <trkpt lat="44.2443" lon="7.73883">
        <ele>1769.92</ele>
        <time>2021-02-05T11:59:18Z</time>
      </trkpt>
      <trkpt lat="44.24437" lon="7.73883">
        <ele>1769.44</ele>
        <time>2021-02-05T11:59:19Z</time>
      </trkpt>
      <trkpt lat="44.24443" lon="7.73884">
        <ele>1768.96</ele>
        <time>2021-02-05T11:59:20Z</time>
      </trkpt>
      <trkpt lat="44.24481" lon="7.73894">
        <ele>1766.56</ele>
        <time>2021-02-05T11:59:26Z</time>
      </trkpt>
      <trkpt lat="44.24486" lon="7.73893">
        <ele>1766.56</ele>
        <time>2021-02-05T11:59:27Z</time>
      </trkpt>
      <trkpt lat="44.24491" lon="7.7389">
        <ele>1766.56</ele>
        <time>2021-02-05T11:59:28Z</time>
      </trkpt>
      <trkpt lat="44.24536" lon="7.73862">
        <ele>1764.16</ele>
        <time>2021-02-05T11:59:39Z</time>
      </trkpt>
      <trkpt lat="44.24558" lon="7.73856">
        <ele>1762.23</ele>
        <time>2021-02-05T11:59:45Z</time>
      </trkpt>
      <trkpt lat="44.24561" lon="7.73858">
        <ele>1761.27</ele>
        <time>2021-02-05T11:59:56Z</time>
      </trkpt>
      <trkpt lat="44.24561" lon="7.73858">
        <ele>1759.83</ele>
        <time>2021-02-05T12:00:19Z</time>
      </trkpt>
      <trkpt lat="44.24564" lon="7.73861">
        <ele>1760.31</ele>
        <time>2021-02-05T12:00:32Z</time>
      </trkpt>
      <trkpt lat="44.24565" lon="7.73861">
        <ele>1759.83</ele>
        <time>2021-02-05T12:00:37Z</time>
      </trkpt>
      <trkpt lat="44.24581" lon="7.73874">
        <ele>1757.43</ele>
        <time>2021-02-05T12:00:43Z</time>
      </trkpt>
      <trkpt lat="44.24584" lon="7.73878">
        <ele>1757.91</ele>
        <time>2021-02-05T12:00:55Z</time>
      </trkpt>
      <trkpt lat="44.24584" lon="7.73877">
        <ele>1757.91</ele>
        <time>2021-02-05T12:00:57Z</time>
      </trkpt>
      <trkpt lat="44.24585" lon="7.7387">
        <ele>1757.91</ele>
        <time>2021-02-05T12:01:10Z</time>
      </trkpt>
      <trkpt lat="44.24586" lon="7.7387">
        <ele>1757.91</ele>
        <time>2021-02-05T12:01:21Z</time>
      </trkpt>
      <trkpt lat="44.24604" lon="7.73888">
        <ele>1754.54</ele>
        <time>2021-02-05T12:01:27Z</time>
      </trkpt>
      <trkpt lat="44.24631" lon="7.73949">
        <ele>1751.18</ele>
        <time>2021-02-05T12:01:40Z</time>
      </trkpt>
      <trkpt lat="44.24643" lon="7.73979">
        <ele>1750.22</ele>
        <time>2021-02-05T12:01:53Z</time>
      </trkpt>
      <trkpt lat="44.24669" lon="7.74029">
        <ele>1746.85</ele>
        <time>2021-02-05T12:02:07Z</time>
      </trkpt>
      <trkpt lat="44.24678" lon="7.74049">
        <ele>1744.93</ele>
        <time>2021-02-05T12:02:17Z</time>
      </trkpt>
      <trkpt lat="44.24679" lon="7.74051">
        <ele>1743.49</ele>
        <time>2021-02-05T12:02:36Z</time>
      </trkpt>
      <trkpt lat="44.2468" lon="7.74026">
        <ele>1741.57</ele>
        <time>2021-02-05T12:02:45Z</time>
      </trkpt>
      <trkpt lat="44.24671" lon="7.73946">
        <ele>1737.72</ele>
        <time>2021-02-05T12:03:00Z</time>
      </trkpt>
      <trkpt lat="44.2467" lon="7.73895">
        <ele>1735.32</ele>
        <time>2021-02-05T12:03:14Z</time>
      </trkpt>
      <trkpt lat="44.24671" lon="7.73897">
        <ele>1734.84</ele>
        <time>2021-02-05T12:03:15Z</time>
      </trkpt>
      <trkpt lat="44.24672" lon="7.73901">
        <ele>1733.88</ele>
        <time>2021-02-05T12:03:16Z</time>
      </trkpt>
      <trkpt lat="44.24673" lon="7.73906">
        <ele>1733.39</ele>
        <time>2021-02-05T12:03:17Z</time>
      </trkpt>
      <trkpt lat="44.24675" lon="7.7391">
        <ele>1732.91</ele>
        <time>2021-02-05T12:03:18Z</time>
      </trkpt>
      <trkpt lat="44.24678" lon="7.73913">
        <ele>1731.95</ele>
        <time>2021-02-05T12:03:19Z</time>
      </trkpt>
      <trkpt lat="44.24679" lon="7.73917">
        <ele>1731.47</ele>
        <time>2021-02-05T12:03:20Z</time>
      </trkpt>
      <trkpt lat="44.24681" lon="7.73922">
        <ele>1731.47</ele>
        <time>2021-02-05T12:03:21Z</time>
      </trkpt>
      <trkpt lat="44.24683" lon="7.73927">
        <ele>1730.99</ele>
        <time>2021-02-05T12:03:22Z</time>
      </trkpt>
      <trkpt lat="44.24686" lon="7.73931">
        <ele>1730.51</ele>
        <time>2021-02-05T12:03:23Z</time>
      </trkpt>
      <trkpt lat="44.24687" lon="7.73936">
        <ele>1730.03</ele>
        <time>2021-02-05T12:03:24Z</time>
      </trkpt>
      <trkpt lat="44.24689" lon="7.73942">
        <ele>1729.07</ele>
        <time>2021-02-05T12:03:25Z</time>
      </trkpt>
      <trkpt lat="44.24692" lon="7.73948">
        <ele>1728.59</ele>
        <time>2021-02-05T12:03:26Z</time>
      </trkpt>
      <trkpt lat="44.24695" lon="7.73953">
        <ele>1727.63</ele>
        <time>2021-02-05T12:03:27Z</time>
      </trkpt>
      <trkpt lat="44.24697" lon="7.73959">
        <ele>1727.15</ele>
        <time>2021-02-05T12:03:28Z</time>
      </trkpt>
      <trkpt lat="44.24699" lon="7.73965">
        <ele>1726.18</ele>
        <time>2021-02-05T12:03:29Z</time>
      </trkpt>
      <trkpt lat="44.24703" lon="7.7397">
        <ele>1725.7</ele>
        <time>2021-02-05T12:03:30Z</time>
      </trkpt>
      <trkpt lat="44.24706" lon="7.73976">
        <ele>1724.74</ele>
        <time>2021-02-05T12:03:31Z</time>
      </trkpt>
      <trkpt lat="44.24709" lon="7.73982">
        <ele>1724.26</ele>
        <time>2021-02-05T12:03:32Z</time>
      </trkpt>
      <trkpt lat="44.24713" lon="7.73987">
        <ele>1723.78</ele>
        <time>2021-02-05T12:03:33Z</time>
      </trkpt>
      <trkpt lat="44.24716" lon="7.73992">
        <ele>1722.82</ele>
        <time>2021-02-05T12:03:34Z</time>
      </trkpt>
      <trkpt lat="44.24719" lon="7.73999">
        <ele>1722.34</ele>
        <time>2021-02-05T12:03:35Z</time>
      </trkpt>
      <trkpt lat="44.24722" lon="7.74004">
        <ele>1721.38</ele>
        <time>2021-02-05T12:03:36Z</time>
      </trkpt>
      <trkpt lat="44.24726" lon="7.74009">
        <ele>1720.42</ele>
        <time>2021-02-05T12:03:37Z</time>
      </trkpt>
      <trkpt lat="44.2473" lon="7.74015">
        <ele>1719.94</ele>
        <time>2021-02-05T12:03:38Z</time>
      </trkpt>
      <trkpt lat="44.24732" lon="7.74022">
        <ele>1718.97</ele>
        <time>2021-02-05T12:03:39Z</time>
      </trkpt>
      <trkpt lat="44.24736" lon="7.74027">
        <ele>1718.01</ele>
        <time>2021-02-05T12:03:40Z</time>
      </trkpt>
      <trkpt lat="44.2474" lon="7.74033">
        <ele>1717.53</ele>
        <time>2021-02-05T12:03:41Z</time>
      </trkpt>
      <trkpt lat="44.24742" lon="7.7404">
        <ele>1717.05</ele>
        <time>2021-02-05T12:03:42Z</time>
      </trkpt>
      <trkpt lat="44.24745" lon="7.74046">
        <ele>1716.57</ele>
        <time>2021-02-05T12:03:43Z</time>
      </trkpt>
      <trkpt lat="44.24748" lon="7.74051">
        <ele>1716.09</ele>
        <time>2021-02-05T12:03:44Z</time>
      </trkpt>
      <trkpt lat="44.24751" lon="7.74058">
        <ele>1715.61</ele>
        <time>2021-02-05T12:03:45Z</time>
      </trkpt>
      <trkpt lat="44.24754" lon="7.74064">
        <ele>1715.13</ele>
        <time>2021-02-05T12:03:46Z</time>
      </trkpt>
      <trkpt lat="44.24758" lon="7.7407">
        <ele>1714.17</ele>
        <time>2021-02-05T12:03:47Z</time>
      </trkpt>
      <trkpt lat="44.2476" lon="7.74076">
        <ele>1713.69</ele>
        <time>2021-02-05T12:03:48Z</time>
      </trkpt>
      <trkpt lat="44.24763" lon="7.74082">
        <ele>1712.73</ele>
        <time>2021-02-05T12:03:49Z</time>
      </trkpt>
      <trkpt lat="44.24767" lon="7.74088">
        <ele>1712.25</ele>
        <time>2021-02-05T12:03:50Z</time>
      </trkpt>
      <trkpt lat="44.2477" lon="7.74095">
        <ele>1711.28</ele>
        <time>2021-02-05T12:03:51Z</time>
      </trkpt>
      <trkpt lat="44.24773" lon="7.74102">
        <ele>1710.8</ele>
        <time>2021-02-05T12:03:52Z</time>
      </trkpt>
      <trkpt lat="44.24776" lon="7.74109">
        <ele>1709.84</ele>
        <time>2021-02-05T12:03:53Z</time>
      </trkpt>
      <trkpt lat="44.2478" lon="7.74116">
        <ele>1709.36</ele>
        <time>2021-02-05T12:03:54Z</time>
      </trkpt>
      <trkpt lat="44.24783" lon="7.74123">
        <ele>1708.88</ele>
        <time>2021-02-05T12:03:55Z</time>
      </trkpt>
      <trkpt lat="44.24786" lon="7.7413">
        <ele>1708.4</ele>
        <time>2021-02-05T12:03:56Z</time>
      </trkpt>
      <trkpt lat="44.2479" lon="7.74136">
        <ele>1707.92</ele>
        <time>2021-02-05T12:03:57Z</time>
      </trkpt>
      <trkpt lat="44.24794" lon="7.74142">
        <ele>1707.44</ele>
        <time>2021-02-05T12:03:58Z</time>
      </trkpt>
      <trkpt lat="44.24797" lon="7.74149">
        <ele>1706.96</ele>
        <time>2021-02-05T12:03:59Z</time>
      </trkpt>
      <trkpt lat="44.248" lon="7.74154">
        <ele>1706.48</ele>
        <time>2021-02-05T12:04:00Z</time>
      </trkpt>
      <trkpt lat="44.24803" lon="7.74158">
        <ele>1706.48</ele>
        <time>2021-02-05T12:04:01Z</time>
      </trkpt>
      <trkpt lat="44.24806" lon="7.74164">
        <ele>1706</ele>
        <time>2021-02-05T12:04:02Z</time>
      </trkpt>
      <trkpt lat="44.24809" lon="7.7417">
        <ele>1705.52</ele>
        <time>2021-02-05T12:04:03Z</time>
      </trkpt>
      <trkpt lat="44.24812" lon="7.74175">
        <ele>1705.52</ele>
        <time>2021-02-05T12:04:04Z</time>
      </trkpt>
      <trkpt lat="44.24816" lon="7.7418">
        <ele>1705.04</ele>
        <time>2021-02-05T12:04:05Z</time>
      </trkpt>
      <trkpt lat="44.24821" lon="7.74184">
        <ele>1704.55</ele>
        <time>2021-02-05T12:04:06Z</time>
      </trkpt>
      <trkpt lat="44.24827" lon="7.74188">
        <ele>1704.07</ele>
        <time>2021-02-05T12:04:07Z</time>
      </trkpt>
      <trkpt lat="44.24833" lon="7.74191">
        <ele>1703.59</ele>
        <time>2021-02-05T12:04:08Z</time>
      </trkpt>
      <trkpt lat="44.2484" lon="7.74194">
        <ele>1702.63</ele>
        <time>2021-02-05T12:04:09Z</time>
      </trkpt>
      <trkpt lat="44.24846" lon="7.74199">
        <ele>1701.67</ele>
        <time>2021-02-05T12:04:10Z</time>
      </trkpt>
      <trkpt lat="44.24853" lon="7.74202">
        <ele>1700.71</ele>
        <time>2021-02-05T12:04:11Z</time>
      </trkpt>
      <trkpt lat="44.24859" lon="7.74206">
        <ele>1699.75</ele>
        <time>2021-02-05T12:04:12Z</time>
      </trkpt>
      <trkpt lat="44.24864" lon="7.7421">
        <ele>1699.27</ele>
        <time>2021-02-05T12:04:13Z</time>
      </trkpt>
      <trkpt lat="44.24876" lon="7.74216">
        <ele>1698.31</ele>
        <time>2021-02-05T12:04:15Z</time>
      </trkpt>
      <trkpt lat="44.24882" lon="7.7422">
        <ele>1697.34</ele>
        <time>2021-02-05T12:04:16Z</time>
      </trkpt>
      <trkpt lat="44.24893" lon="7.74225">
        <ele>1696.38</ele>
        <time>2021-02-05T12:04:18Z</time>
      </trkpt>
      <trkpt lat="44.24899" lon="7.74228">
        <ele>1695.9</ele>
        <time>2021-02-05T12:04:19Z</time>
      </trkpt>
      <trkpt lat="44.24905" lon="7.74231">
        <ele>1695.42</ele>
        <time>2021-02-05T12:04:20Z</time>
      </trkpt>
      <trkpt lat="44.24911" lon="7.74235">
        <ele>1693.98</ele>
        <time>2021-02-05T12:04:21Z</time>
      </trkpt>
      <trkpt lat="44.24917" lon="7.74237">
        <ele>1693.02</ele>
        <time>2021-02-05T12:04:22Z</time>
      </trkpt>
      <trkpt lat="44.24923" lon="7.74241">
        <ele>1692.06</ele>
        <time>2021-02-05T12:04:23Z</time>
      </trkpt>
      <trkpt lat="44.24928" lon="7.74244">
        <ele>1690.62</ele>
        <time>2021-02-05T12:04:24Z</time>
      </trkpt>
      <trkpt lat="44.24934" lon="7.74246">
        <ele>1689.65</ele>
        <time>2021-02-05T12:04:25Z</time>
      </trkpt>
      <trkpt lat="44.2494" lon="7.74248">
        <ele>1688.21</ele>
        <time>2021-02-05T12:04:26Z</time>
      </trkpt>
      <trkpt lat="44.24946" lon="7.7425">
        <ele>1686.77</ele>
        <time>2021-02-05T12:04:27Z</time>
      </trkpt>
      <trkpt lat="44.24953" lon="7.7425">
        <ele>1685.81</ele>
        <time>2021-02-05T12:04:28Z</time>
      </trkpt>
      <trkpt lat="44.2496" lon="7.74248">
        <ele>1684.37</ele>
        <time>2021-02-05T12:04:29Z</time>
      </trkpt>
      <trkpt lat="44.24967" lon="7.74248">
        <ele>1682.93</ele>
        <time>2021-02-05T12:04:30Z</time>
      </trkpt>
      <trkpt lat="44.24974" lon="7.7425">
        <ele>1681.96</ele>
        <time>2021-02-05T12:04:31Z</time>
      </trkpt>
      <trkpt lat="44.24979" lon="7.74254">
        <ele>1681</ele>
        <time>2021-02-05T12:04:32Z</time>
      </trkpt>
      <trkpt lat="44.24984" lon="7.74259">
        <ele>1680.04</ele>
        <time>2021-02-05T12:04:33Z</time>
      </trkpt>
      <trkpt lat="44.24988" lon="7.74264">
        <ele>1678.6</ele>
        <time>2021-02-05T12:04:34Z</time>
      </trkpt>
      <trkpt lat="44.24992" lon="7.74271">
        <ele>1677.64</ele>
        <time>2021-02-05T12:04:35Z</time>
      </trkpt>
      <trkpt lat="44.24995" lon="7.74278">
        <ele>1676.68</ele>
        <time>2021-02-05T12:04:36Z</time>
      </trkpt>
      <trkpt lat="44.24999" lon="7.74284">
        <ele>1675.72</ele>
        <time>2021-02-05T12:04:37Z</time>
      </trkpt>
      <trkpt lat="44.25002" lon="7.74291">
        <ele>1674.75</ele>
        <time>2021-02-05T12:04:38Z</time>
      </trkpt>
      <trkpt lat="44.25005" lon="7.74298">
        <ele>1674.27</ele>
        <time>2021-02-05T12:04:39Z</time>
      </trkpt>
      <trkpt lat="44.25008" lon="7.74304">
        <ele>1673.79</ele>
        <time>2021-02-05T12:04:40Z</time>
      </trkpt>
      <trkpt lat="44.2501" lon="7.7431">
        <ele>1672.83</ele>
        <time>2021-02-05T12:04:41Z</time>
      </trkpt>
      <trkpt lat="44.25013" lon="7.74315">
        <ele>1672.35</ele>
        <time>2021-02-05T12:04:42Z</time>
      </trkpt>
      <trkpt lat="44.25015" lon="7.74321">
        <ele>1671.87</ele>
        <time>2021-02-05T12:04:43Z</time>
      </trkpt>
      <trkpt lat="44.25016" lon="7.74326">
        <ele>1670.91</ele>
        <time>2021-02-05T12:04:44Z</time>
      </trkpt>
      <trkpt lat="44.25018" lon="7.7433">
        <ele>1670.43</ele>
        <time>2021-02-05T12:04:45Z</time>
      </trkpt>
      <trkpt lat="44.25019" lon="7.74335">
        <ele>1669.47</ele>
        <time>2021-02-05T12:04:46Z</time>
      </trkpt>
      <trkpt lat="44.2502" lon="7.7434">
        <ele>1668.99</ele>
        <time>2021-02-05T12:04:47Z</time>
      </trkpt>
      <trkpt lat="44.25021" lon="7.74343">
        <ele>1668.51</ele>
        <time>2021-02-05T12:04:48Z</time>
      </trkpt>
      <trkpt lat="44.25022" lon="7.74353">
        <ele>1667.54</ele>
        <time>2021-02-05T12:04:57Z</time>
      </trkpt>
      <trkpt lat="44.25023" lon="7.74366">
        <ele>1666.1</ele>
        <time>2021-02-05T12:05:00Z</time>
      </trkpt>
      <trkpt lat="44.25025" lon="7.74371">
        <ele>1665.62</ele>
        <time>2021-02-05T12:05:01Z</time>
      </trkpt>
      <trkpt lat="44.25026" lon="7.74377">
        <ele>1665.14</ele>
        <time>2021-02-05T12:05:02Z</time>
      </trkpt>
      <trkpt lat="44.25029" lon="7.74388">
        <ele>1663.22</ele>
        <time>2021-02-05T12:05:04Z</time>
      </trkpt>
      <trkpt lat="44.2503" lon="7.74394">
        <ele>1662.74</ele>
        <time>2021-02-05T12:05:05Z</time>
      </trkpt>
      <trkpt lat="44.25034" lon="7.74405">
        <ele>1660.81</ele>
        <time>2021-02-05T12:05:07Z</time>
      </trkpt>
      <trkpt lat="44.25036" lon="7.74411">
        <ele>1659.85</ele>
        <time>2021-02-05T12:05:08Z</time>
      </trkpt>
      <trkpt lat="44.25038" lon="7.74416">
        <ele>1659.37</ele>
        <time>2021-02-05T12:05:09Z</time>
      </trkpt>
      <trkpt lat="44.2504" lon="7.74422">
        <ele>1658.41</ele>
        <time>2021-02-05T12:05:10Z</time>
      </trkpt>
      <trkpt lat="44.25042" lon="7.74428">
        <ele>1657.45</ele>
        <time>2021-02-05T12:05:11Z</time>
      </trkpt>
      <trkpt lat="44.25044" lon="7.74435">
        <ele>1656.49</ele>
        <time>2021-02-05T12:05:12Z</time>
      </trkpt>
      <trkpt lat="44.25046" lon="7.74441">
        <ele>1655.05</ele>
        <time>2021-02-05T12:05:13Z</time>
      </trkpt>
      <trkpt lat="44.25048" lon="7.74447">
        <ele>1654.57</ele>
        <time>2021-02-05T12:05:14Z</time>
      </trkpt>
      <trkpt lat="44.2505" lon="7.74453">
        <ele>1653.6</ele>
        <time>2021-02-05T12:05:15Z</time>
      </trkpt>
      <trkpt lat="44.25052" lon="7.74458">
        <ele>1652.64</ele>
        <time>2021-02-05T12:05:16Z</time>
      </trkpt>
      <trkpt lat="44.25053" lon="7.74464">
        <ele>1651.68</ele>
        <time>2021-02-05T12:05:17Z</time>
      </trkpt>
      <trkpt lat="44.25055" lon="7.7447">
        <ele>1650.72</ele>
        <time>2021-02-05T12:05:18Z</time>
      </trkpt>
      <trkpt lat="44.25057" lon="7.74476">
        <ele>1649.28</ele>
        <time>2021-02-05T12:05:19Z</time>
      </trkpt>
      <trkpt lat="44.25059" lon="7.74481">
        <ele>1648.32</ele>
        <time>2021-02-05T12:05:20Z</time>
      </trkpt>
      <trkpt lat="44.25062" lon="7.74487">
        <ele>1647.36</ele>
        <time>2021-02-05T12:05:21Z</time>
      </trkpt>
      <trkpt lat="44.25063" lon="7.74492">
        <ele>1646.4</ele>
        <time>2021-02-05T12:05:22Z</time>
      </trkpt>
      <trkpt lat="44.25065" lon="7.74496">
        <ele>1645.91</ele>
        <time>2021-02-05T12:05:23Z</time>
      </trkpt>
      <trkpt lat="44.25066" lon="7.74498">
        <ele>1644.95</ele>
        <time>2021-02-05T12:05:32Z</time>
      </trkpt>
      <trkpt lat="44.25066" lon="7.74499">
        <ele>1643.51</ele>
        <time>2021-02-05T12:05:48Z</time>
      </trkpt>
      <trkpt lat="44.25066" lon="7.74501">
        <ele>1642.55</ele>
        <time>2021-02-05T12:06:10Z</time>
      </trkpt>
      <trkpt lat="44.25066" lon="7.74503">
        <ele>1642.55</ele>
        <time>2021-02-05T12:06:19Z</time>
      </trkpt>
      <trkpt lat="44.25067" lon="7.74505">
        <ele>1642.55</ele>
        <time>2021-02-05T12:06:20Z</time>
      </trkpt>
      <trkpt lat="44.25067" lon="7.74508">
        <ele>1642.07</ele>
        <time>2021-02-05T12:06:21Z</time>
      </trkpt>
      <trkpt lat="44.2507" lon="7.74521">
        <ele>1639.67</ele>
        <time>2021-02-05T12:06:24Z</time>
      </trkpt>
      <trkpt lat="44.25071" lon="7.74526">
        <ele>1638.7</ele>
        <time>2021-02-05T12:06:25Z</time>
      </trkpt>
      <trkpt lat="44.25072" lon="7.74531">
        <ele>1638.22</ele>
        <time>2021-02-05T12:06:26Z</time>
      </trkpt>
      <trkpt lat="44.25074" lon="7.74535">
        <ele>1637.74</ele>
        <time>2021-02-05T12:06:27Z</time>
      </trkpt>
      <trkpt lat="44.25075" lon="7.7454">
        <ele>1637.26</ele>
        <time>2021-02-05T12:06:28Z</time>
      </trkpt>
      <trkpt lat="44.25076" lon="7.74544">
        <ele>1636.78</ele>
        <time>2021-02-05T12:06:29Z</time>
      </trkpt>
      <trkpt lat="44.25077" lon="7.74549">
        <ele>1635.82</ele>
        <time>2021-02-05T12:06:30Z</time>
      </trkpt>
      <trkpt lat="44.25079" lon="7.74553">
        <ele>1635.34</ele>
        <time>2021-02-05T12:06:31Z</time>
      </trkpt>
      <trkpt lat="44.2508" lon="7.74558">
        <ele>1634.86</ele>
        <time>2021-02-05T12:06:32Z</time>
      </trkpt>
      <trkpt lat="44.25081" lon="7.74561">
        <ele>1634.38</ele>
        <time>2021-02-05T12:06:33Z</time>
      </trkpt>
      <trkpt lat="44.25083" lon="7.74563">
        <ele>1633.42</ele>
        <time>2021-02-05T12:06:41Z</time>
      </trkpt>
      <trkpt lat="44.25083" lon="7.74565">
        <ele>1633.42</ele>
        <time>2021-02-05T12:06:42Z</time>
      </trkpt>
      <trkpt lat="44.25083" lon="7.74569">
        <ele>1632.94</ele>
        <time>2021-02-05T12:06:43Z</time>
      </trkpt>
      <trkpt lat="44.25084" lon="7.74572">
        <ele>1632.94</ele>
        <time>2021-02-05T12:06:44Z</time>
      </trkpt>
      <trkpt lat="44.25084" lon="7.74575">
        <ele>1632.46</ele>
        <time>2021-02-05T12:06:45Z</time>
      </trkpt>
      <trkpt lat="44.25085" lon="7.74579">
        <ele>1631.98</ele>
        <time>2021-02-05T12:06:46Z</time>
      </trkpt>
      <trkpt lat="44.25086" lon="7.74583">
        <ele>1631.49</ele>
        <time>2021-02-05T12:06:47Z</time>
      </trkpt>
      <trkpt lat="44.25087" lon="7.74586">
        <ele>1631.98</ele>
        <time>2021-02-05T12:06:56Z</time>
      </trkpt>
      <trkpt lat="44.25088" lon="7.74588">
        <ele>1631.49</ele>
        <time>2021-02-05T12:06:59Z</time>
      </trkpt>
      <trkpt lat="44.25088" lon="7.74591">
        <ele>1631.01</ele>
        <time>2021-02-05T12:07:00Z</time>
      </trkpt>
      <trkpt lat="44.25089" lon="7.74595">
        <ele>1630.53</ele>
        <time>2021-02-05T12:07:01Z</time>
      </trkpt>
      <trkpt lat="44.2509" lon="7.74598">
        <ele>1630.05</ele>
        <time>2021-02-05T12:07:02Z</time>
      </trkpt>
      <trkpt lat="44.25091" lon="7.74602">
        <ele>1629.09</ele>
        <time>2021-02-05T12:07:03Z</time>
      </trkpt>
      <trkpt lat="44.25092" lon="7.74606">
        <ele>1628.13</ele>
        <time>2021-02-05T12:07:04Z</time>
      </trkpt>
      <trkpt lat="44.25093" lon="7.7461">
        <ele>1627.65</ele>
        <time>2021-02-05T12:07:05Z</time>
      </trkpt>
      <trkpt lat="44.25093" lon="7.74613">
        <ele>1625.73</ele>
        <time>2021-02-05T12:07:14Z</time>
      </trkpt>
      <trkpt lat="44.25091" lon="7.74628">
        <ele>1623.32</ele>
        <time>2021-02-05T12:07:23Z</time>
      </trkpt>
      <trkpt lat="44.25091" lon="7.74633">
        <ele>1622.84</ele>
        <time>2021-02-05T12:07:24Z</time>
      </trkpt>
      <trkpt lat="44.25091" lon="7.74637">
        <ele>1622.36</ele>
        <time>2021-02-05T12:07:25Z</time>
      </trkpt>
      <trkpt lat="44.2509" lon="7.7464">
        <ele>1621.88</ele>
        <time>2021-02-05T12:07:26Z</time>
      </trkpt>
      <trkpt lat="44.25089" lon="7.74643">
        <ele>1621.4</ele>
        <time>2021-02-05T12:07:27Z</time>
      </trkpt>
      <trkpt lat="44.2509" lon="7.74646">
        <ele>1621.4</ele>
        <time>2021-02-05T12:07:28Z</time>
      </trkpt>
      <trkpt lat="44.2509" lon="7.74649">
        <ele>1620.44</ele>
        <time>2021-02-05T12:07:29Z</time>
      </trkpt>
      <trkpt lat="44.25089" lon="7.74654">
        <ele>1619.96</ele>
        <time>2021-02-05T12:07:30Z</time>
      </trkpt>
      <trkpt lat="44.25089" lon="7.74659">
        <ele>1619</ele>
        <time>2021-02-05T12:07:31Z</time>
      </trkpt>
      <trkpt lat="44.2509" lon="7.74664">
        <ele>1618.52</ele>
        <time>2021-02-05T12:07:32Z</time>
      </trkpt>
      <trkpt lat="44.25089" lon="7.74669">
        <ele>1617.56</ele>
        <time>2021-02-05T12:07:33Z</time>
      </trkpt>
      <trkpt lat="44.2509" lon="7.74674">
        <ele>1616.59</ele>
        <time>2021-02-05T12:07:34Z</time>
      </trkpt>
      <trkpt lat="44.25091" lon="7.74678">
        <ele>1616.11</ele>
        <time>2021-02-05T12:07:35Z</time>
      </trkpt>
      <trkpt lat="44.25091" lon="7.74683">
        <ele>1615.15</ele>
        <time>2021-02-05T12:07:36Z</time>
      </trkpt>
      <trkpt lat="44.2509" lon="7.7469">
        <ele>1614.19</ele>
        <time>2021-02-05T12:07:37Z</time>
      </trkpt>
      <trkpt lat="44.25091" lon="7.74697">
        <ele>1613.23</ele>
        <time>2021-02-05T12:07:38Z</time>
      </trkpt>
      <trkpt lat="44.25091" lon="7.74704">
        <ele>1611.79</ele>
        <time>2021-02-05T12:07:39Z</time>
      </trkpt>
      <trkpt lat="44.25091" lon="7.74711">
        <ele>1610.83</ele>
        <time>2021-02-05T12:07:40Z</time>
      </trkpt>
      <trkpt lat="44.25092" lon="7.74718">
        <ele>1609.38</ele>
        <time>2021-02-05T12:07:41Z</time>
      </trkpt>
      <trkpt lat="44.25092" lon="7.74725">
        <ele>1607.94</ele>
        <time>2021-02-05T12:07:42Z</time>
      </trkpt>
      <trkpt lat="44.25092" lon="7.74731">
        <ele>1606.98</ele>
        <time>2021-02-05T12:07:43Z</time>
      </trkpt>
      <trkpt lat="44.25093" lon="7.74738">
        <ele>1605.54</ele>
        <time>2021-02-05T12:07:44Z</time>
      </trkpt>
      <trkpt lat="44.25091" lon="7.74744">
        <ele>1604.58</ele>
        <time>2021-02-05T12:07:45Z</time>
      </trkpt>
      <trkpt lat="44.25089" lon="7.74751">
        <ele>1603.62</ele>
        <time>2021-02-05T12:07:46Z</time>
      </trkpt>
      <trkpt lat="44.25088" lon="7.74757">
        <ele>1603.14</ele>
        <time>2021-02-05T12:07:47Z</time>
      </trkpt>
      <trkpt lat="44.25086" lon="7.74764">
        <ele>1602.17</ele>
        <time>2021-02-05T12:07:48Z</time>
      </trkpt>
      <trkpt lat="44.25086" lon="7.74771">
        <ele>1601.69</ele>
        <time>2021-02-05T12:07:49Z</time>
      </trkpt>
      <trkpt lat="44.2509" lon="7.74775">
        <ele>1600.73</ele>
        <time>2021-02-05T12:07:50Z</time>
      </trkpt>
      <trkpt lat="44.25094" lon="7.74775">
        <ele>1600.25</ele>
        <time>2021-02-05T12:07:51Z</time>
      </trkpt>
      <trkpt lat="44.25098" lon="7.74773">
        <ele>1599.77</ele>
        <time>2021-02-05T12:07:52Z</time>
      </trkpt>
      <trkpt lat="44.25102" lon="7.7477">
        <ele>1599.29</ele>
        <time>2021-02-05T12:07:53Z</time>
      </trkpt>
      <trkpt lat="44.25105" lon="7.74764">
        <ele>1598.81</ele>
        <time>2021-02-05T12:07:54Z</time>
      </trkpt>
      <trkpt lat="44.25108" lon="7.74759">
        <ele>1597.85</ele>
        <time>2021-02-05T12:07:55Z</time>
      </trkpt>
      <trkpt lat="44.25111" lon="7.74755">
        <ele>1597.37</ele>
        <time>2021-02-05T12:07:56Z</time>
      </trkpt>
      <trkpt lat="44.25112" lon="7.74755">
        <ele>1596.89</ele>
        <time>2021-02-05T12:08:04Z</time>
      </trkpt>
      <trkpt lat="44.25113" lon="7.74755">
        <ele>1596.89</ele>
        <time>2021-02-05T12:08:18Z</time>
      </trkpt>
      <trkpt lat="44.25114" lon="7.74755">
        <ele>1598.33</ele>
        <time>2021-02-05T12:08:37Z</time>
      </trkpt>
      <trkpt lat="44.25115" lon="7.74755">
        <ele>1598.33</ele>
        <time>2021-02-05T12:08:38Z</time>
      </trkpt>
      <trkpt lat="44.25116" lon="7.74753">
        <ele>1598.33</ele>
        <time>2021-02-05T12:08:39Z</time>
      </trkpt>
      <trkpt lat="44.25117" lon="7.74752">
        <ele>1597.85</ele>
        <time>2021-02-05T12:08:40Z</time>
      </trkpt>
      <trkpt lat="44.25118" lon="7.74749">
        <ele>1597.85</ele>
        <time>2021-02-05T12:08:41Z</time>
      </trkpt>
      <trkpt lat="44.25121" lon="7.74741">
        <ele>1596.89</ele>
        <time>2021-02-05T12:08:43Z</time>
      </trkpt>
      <trkpt lat="44.25124" lon="7.74738">
        <ele>1596.89</ele>
        <time>2021-02-05T12:08:44Z</time>
      </trkpt>
      <trkpt lat="44.25127" lon="7.74735">
        <ele>1596.41</ele>
        <time>2021-02-05T12:08:45Z</time>
      </trkpt>
      <trkpt lat="44.25129" lon="7.7473">
        <ele>1596.41</ele>
        <time>2021-02-05T12:08:46Z</time>
      </trkpt>
      <trkpt lat="44.25132" lon="7.74724">
        <ele>1595.45</ele>
        <time>2021-02-05T12:08:47Z</time>
      </trkpt>
      <trkpt lat="44.25135" lon="7.7472">
        <ele>1594.96</ele>
        <time>2021-02-05T12:08:48Z</time>
      </trkpt>
      <trkpt lat="44.25139" lon="7.74714">
        <ele>1594.48</ele>
        <time>2021-02-05T12:08:49Z</time>
      </trkpt>
      <trkpt lat="44.2514" lon="7.74707">
        <ele>1593.52</ele>
        <time>2021-02-05T12:08:50Z</time>
      </trkpt>
      <trkpt lat="44.25143" lon="7.74701">
        <ele>1593.04</ele>
        <time>2021-02-05T12:08:51Z</time>
      </trkpt>
      <trkpt lat="44.25147" lon="7.74696">
        <ele>1592.08</ele>
        <time>2021-02-05T12:08:52Z</time>
      </trkpt>
      <trkpt lat="44.25149" lon="7.7469">
        <ele>1591.12</ele>
        <time>2021-02-05T12:08:53Z</time>
      </trkpt>
      <trkpt lat="44.25151" lon="7.74683">
        <ele>1590.64</ele>
        <time>2021-02-05T12:08:54Z</time>
      </trkpt>
      <trkpt lat="44.25154" lon="7.74678">
        <ele>1589.68</ele>
        <time>2021-02-05T12:08:55Z</time>
      </trkpt>
      <trkpt lat="44.25157" lon="7.74673">
        <ele>1588.72</ele>
        <time>2021-02-05T12:08:56Z</time>
      </trkpt>
      <trkpt lat="44.2516" lon="7.74669">
        <ele>1588.24</ele>
        <time>2021-02-05T12:08:57Z</time>
      </trkpt>
      <trkpt lat="44.2516" lon="7.74665">
        <ele>1587.27</ele>
        <time>2021-02-05T12:08:58Z</time>
      </trkpt>
      <trkpt lat="44.25162" lon="7.74662">
        <ele>1584.87</ele>
        <time>2021-02-05T12:09:07Z</time>
      </trkpt>
      <trkpt lat="44.25163" lon="7.74659">
        <ele>1584.87</ele>
        <time>2021-02-05T12:09:09Z</time>
      </trkpt>
      <trkpt lat="44.2517" lon="7.74654">
        <ele>1583.91</ele>
        <time>2021-02-05T12:09:11Z</time>
      </trkpt>
      <trkpt lat="44.25173" lon="7.74649">
        <ele>1583.43</ele>
        <time>2021-02-05T12:09:12Z</time>
      </trkpt>
      <trkpt lat="44.25176" lon="7.74644">
        <ele>1582.95</ele>
        <time>2021-02-05T12:09:13Z</time>
      </trkpt>
      <trkpt lat="44.25179" lon="7.74643">
        <ele>1581.99</ele>
        <time>2021-02-05T12:09:14Z</time>
      </trkpt>
      <trkpt lat="44.25179" lon="7.74643">
        <ele>1580.06</ele>
        <time>2021-02-05T12:09:24Z</time>
      </trkpt>
      <trkpt lat="44.2518" lon="7.74642">
        <ele>1579.58</ele>
        <time>2021-02-05T12:09:41Z</time>
      </trkpt>
      <trkpt lat="44.25182" lon="7.7464">
        <ele>1579.58</ele>
        <time>2021-02-05T12:09:42Z</time>
      </trkpt>
      <trkpt lat="44.25183" lon="7.74637">
        <ele>1579.1</ele>
        <time>2021-02-05T12:09:43Z</time>
      </trkpt>
      <trkpt lat="44.25185" lon="7.74633">
        <ele>1579.1</ele>
        <time>2021-02-05T12:09:44Z</time>
      </trkpt>
      <trkpt lat="44.25188" lon="7.7463">
        <ele>1578.62</ele>
        <time>2021-02-05T12:09:45Z</time>
      </trkpt>
      <trkpt lat="44.25192" lon="7.74626">
        <ele>1578.14</ele>
        <time>2021-02-05T12:09:46Z</time>
      </trkpt>
      <trkpt lat="44.25195" lon="7.74622">
        <ele>1577.66</ele>
        <time>2021-02-05T12:09:47Z</time>
      </trkpt>
      <trkpt lat="44.25197" lon="7.74617">
        <ele>1577.18</ele>
        <time>2021-02-05T12:09:48Z</time>
      </trkpt>
      <trkpt lat="44.25202" lon="7.74614">
        <ele>1576.7</ele>
        <time>2021-02-05T12:09:49Z</time>
      </trkpt>
      <trkpt lat="44.25206" lon="7.74611">
        <ele>1576.22</ele>
        <time>2021-02-05T12:09:50Z</time>
      </trkpt>
      <trkpt lat="44.25208" lon="7.74607">
        <ele>1575.26</ele>
        <time>2021-02-05T12:09:51Z</time>
      </trkpt>
      <trkpt lat="44.25209" lon="7.74603">
        <ele>1574.78</ele>
        <time>2021-02-05T12:09:52Z</time>
      </trkpt>
      <trkpt lat="44.25212" lon="7.74601">
        <ele>1574.3</ele>
        <time>2021-02-05T12:09:53Z</time>
      </trkpt>
      <trkpt lat="44.25215" lon="7.746">
        <ele>1573.82</ele>
        <time>2021-02-05T12:09:54Z</time>
      </trkpt>
      <trkpt lat="44.25217" lon="7.74598">
        <ele>1572.85</ele>
        <time>2021-02-05T12:09:55Z</time>
      </trkpt>
      <trkpt lat="44.25218" lon="7.74595">
        <ele>1572.85</ele>
        <time>2021-02-05T12:09:56Z</time>
      </trkpt>
      <trkpt lat="44.2522" lon="7.74593">
        <ele>1572.37</ele>
        <time>2021-02-05T12:09:57Z</time>
      </trkpt>
      <trkpt lat="44.25221" lon="7.7459">
        <ele>1569.97</ele>
        <time>2021-02-05T12:10:07Z</time>
      </trkpt>
      <trkpt lat="44.25222" lon="7.74593">
        <ele>1570.45</ele>
        <time>2021-02-05T12:10:13Z</time>
      </trkpt>
      <trkpt lat="44.25223" lon="7.74597">
        <ele>1569.97</ele>
        <time>2021-02-05T12:10:24Z</time>
      </trkpt>
      <trkpt lat="44.25223" lon="7.74597">
        <ele>1569.01</ele>
        <time>2021-02-05T12:10:45Z</time>
      </trkpt>
      <trkpt lat="44.25223" lon="7.74597">
        <ele>1569.49</ele>
        <time>2021-02-05T12:11:07Z</time>
      </trkpt>
      <trkpt lat="44.25223" lon="7.74597">
        <ele>1569.01</ele>
        <time>2021-02-05T12:11:30Z</time>
      </trkpt>
      <trkpt lat="44.25223" lon="7.74597">
        <ele>1567.57</ele>
        <time>2021-02-05T12:11:51Z</time>
      </trkpt>
      <trkpt lat="44.25223" lon="7.74598">
        <ele>1568.53</ele>
        <time>2021-02-05T12:12:08Z</time>
      </trkpt>
      <trkpt lat="44.25223" lon="7.74598">
        <ele>1569.01</ele>
        <time>2021-02-05T12:12:21Z</time>
      </trkpt>
      <trkpt lat="44.25222" lon="7.74598">
        <ele>1568.05</ele>
        <time>2021-02-05T12:12:43Z</time>
      </trkpt>
      <trkpt lat="44.25222" lon="7.74599">
        <ele>1568.05</ele>
        <time>2021-02-05T12:13:07Z</time>
      </trkpt>
      <trkpt lat="44.25222" lon="7.746">
        <ele>1567.09</ele>
        <time>2021-02-05T12:13:24Z</time>
      </trkpt>
      <trkpt lat="44.25222" lon="7.74601">
        <ele>1568.05</ele>
        <time>2021-02-05T12:13:47Z</time>
      </trkpt>
      <trkpt lat="44.25221" lon="7.74601">
        <ele>1568.53</ele>
        <time>2021-02-05T12:13:53Z</time>
      </trkpt>
      <trkpt lat="44.25221" lon="7.74603">
        <ele>1568.53</ele>
        <time>2021-02-05T12:13:54Z</time>
      </trkpt>
      <trkpt lat="44.2522" lon="7.74606">
        <ele>1568.05</ele>
        <time>2021-02-05T12:13:55Z</time>
      </trkpt>
      <trkpt lat="44.25221" lon="7.74617">
        <ele>1566.61</ele>
        <time>2021-02-05T12:13:57Z</time>
      </trkpt>
      <trkpt lat="44.25223" lon="7.74623">
        <ele>1565.64</ele>
        <time>2021-02-05T12:13:58Z</time>
      </trkpt>
      <trkpt lat="44.25223" lon="7.74629">
        <ele>1564.68</ele>
        <time>2021-02-05T12:13:59Z</time>
      </trkpt>
      <trkpt lat="44.25223" lon="7.74636">
        <ele>1563.72</ele>
        <time>2021-02-05T12:14:00Z</time>
      </trkpt>
      <trkpt lat="44.25224" lon="7.74642">
        <ele>1562.76</ele>
        <time>2021-02-05T12:14:01Z</time>
      </trkpt>
      <trkpt lat="44.25225" lon="7.74649">
        <ele>1561.8</ele>
        <time>2021-02-05T12:14:02Z</time>
      </trkpt>
      <trkpt lat="44.25226" lon="7.74656">
        <ele>1560.36</ele>
        <time>2021-02-05T12:14:03Z</time>
      </trkpt>
      <trkpt lat="44.25226" lon="7.74663">
        <ele>1559.4</ele>
        <time>2021-02-05T12:14:04Z</time>
      </trkpt>
      <trkpt lat="44.25227" lon="7.7467">
        <ele>1558.92</ele>
        <time>2021-02-05T12:14:05Z</time>
      </trkpt>
      <trkpt lat="44.25228" lon="7.74677">
        <ele>1558.43</ele>
        <time>2021-02-05T12:14:06Z</time>
      </trkpt>
      <trkpt lat="44.25229" lon="7.74685">
        <ele>1557.95</ele>
        <time>2021-02-05T12:14:07Z</time>
      </trkpt>
      <trkpt lat="44.25231" lon="7.74692">
        <ele>1556.99</ele>
        <time>2021-02-05T12:14:08Z</time>
      </trkpt>
      <trkpt lat="44.25232" lon="7.747">
        <ele>1556.03</ele>
        <time>2021-02-05T12:14:09Z</time>
      </trkpt>
      <trkpt lat="44.25234" lon="7.74708">
        <ele>1555.07</ele>
        <time>2021-02-05T12:14:10Z</time>
      </trkpt>
      <trkpt lat="44.25235" lon="7.74715">
        <ele>1554.11</ele>
        <time>2021-02-05T12:14:11Z</time>
      </trkpt>
      <trkpt lat="44.25235" lon="7.74723">
        <ele>1553.15</ele>
        <time>2021-02-05T12:14:12Z</time>
      </trkpt>
      <trkpt lat="44.25237" lon="7.74731">
        <ele>1552.19</ele>
        <time>2021-02-05T12:14:13Z</time>
      </trkpt>
      <trkpt lat="44.25238" lon="7.74739">
        <ele>1551.22</ele>
        <time>2021-02-05T12:14:14Z</time>
      </trkpt>
      <trkpt lat="44.25238" lon="7.74747">
        <ele>1550.26</ele>
        <time>2021-02-05T12:14:15Z</time>
      </trkpt>
      <trkpt lat="44.2524" lon="7.74754">
        <ele>1549.3</ele>
        <time>2021-02-05T12:14:16Z</time>
      </trkpt>
      <trkpt lat="44.2524" lon="7.74763">
        <ele>1548.34</ele>
        <time>2021-02-05T12:14:17Z</time>
      </trkpt>
      <trkpt lat="44.2524" lon="7.74771">
        <ele>1547.38</ele>
        <time>2021-02-05T12:14:18Z</time>
      </trkpt>
      <trkpt lat="44.2524" lon="7.74779">
        <ele>1545.94</ele>
        <time>2021-02-05T12:14:19Z</time>
      </trkpt>
      <trkpt lat="44.2524" lon="7.74787">
        <ele>1544.5</ele>
        <time>2021-02-05T12:14:20Z</time>
      </trkpt>
      <trkpt lat="44.2524" lon="7.74794">
        <ele>1543.53</ele>
        <time>2021-02-05T12:14:21Z</time>
      </trkpt>
      <trkpt lat="44.25242" lon="7.74799">
        <ele>1542.57</ele>
        <time>2021-02-05T12:14:22Z</time>
      </trkpt>
      <trkpt lat="44.25243" lon="7.74801">
        <ele>1541.13</ele>
        <time>2021-02-05T12:14:29Z</time>
      </trkpt>
      <trkpt lat="44.25243" lon="7.748">
        <ele>1542.09</ele>
        <time>2021-02-05T12:14:49Z</time>
      </trkpt>
      <trkpt lat="44.25243" lon="7.74801">
        <ele>1541.61</ele>
        <time>2021-02-05T12:15:01Z</time>
      </trkpt>
      <trkpt lat="44.25243" lon="7.74801">
        <ele>1541.61</ele>
        <time>2021-02-05T12:15:18Z</time>
      </trkpt>
      <trkpt lat="44.25245" lon="7.74802">
        <ele>1543.53</ele>
        <time>2021-02-05T12:15:42Z</time>
      </trkpt>
      <trkpt lat="44.25245" lon="7.74801">
        <ele>1544.01</ele>
        <time>2021-02-05T12:15:44Z</time>
      </trkpt>
      <trkpt lat="44.25258" lon="7.74787">
        <ele>1541.61</ele>
        <time>2021-02-05T12:15:50Z</time>
      </trkpt>
      <trkpt lat="44.25262" lon="7.74783">
        <ele>1541.13</ele>
        <time>2021-02-05T12:15:51Z</time>
      </trkpt>
      <trkpt lat="44.25277" lon="7.74763">
        <ele>1538.73</ele>
        <time>2021-02-05T12:15:55Z</time>
      </trkpt>
      <trkpt lat="44.25286" lon="7.74745">
        <ele>1537.29</ele>
        <time>2021-02-05T12:15:58Z</time>
      </trkpt>
      <trkpt lat="44.2529" lon="7.74734">
        <ele>1536.8</ele>
        <time>2021-02-05T12:16:00Z</time>
      </trkpt>
      <trkpt lat="44.25292" lon="7.74728">
        <ele>1536.32</ele>
        <time>2021-02-05T12:16:01Z</time>
      </trkpt>
      <trkpt lat="44.25295" lon="7.74722">
        <ele>1535.36</ele>
        <time>2021-02-05T12:16:02Z</time>
      </trkpt>
      <trkpt lat="44.25297" lon="7.74716">
        <ele>1534.4</ele>
        <time>2021-02-05T12:16:03Z</time>
      </trkpt>
      <trkpt lat="44.25298" lon="7.74712">
        <ele>1533.92</ele>
        <time>2021-02-05T12:16:04Z</time>
      </trkpt>
      <trkpt lat="44.25298" lon="7.7471">
        <ele>1532.96</ele>
        <time>2021-02-05T12:16:05Z</time>
      </trkpt>
      <trkpt lat="44.25298" lon="7.74706">
        <ele>1532.48</ele>
        <time>2021-02-05T12:16:08Z</time>
      </trkpt>
      <trkpt lat="44.25299" lon="7.74705">
        <ele>1532</ele>
        <time>2021-02-05T12:16:09Z</time>
      </trkpt>
      <trkpt lat="44.253" lon="7.74702">
        <ele>1530.56</ele>
        <time>2021-02-05T12:16:19Z</time>
      </trkpt>
      <trkpt lat="44.25301" lon="7.74703">
        <ele>1531.04</ele>
        <time>2021-02-05T12:16:45Z</time>
      </trkpt>
      <trkpt lat="44.25299" lon="7.74702">
        <ele>1528.63</ele>
        <time>2021-02-05T12:17:16Z</time>
      </trkpt>
      <trkpt lat="44.253" lon="7.74702">
        <ele>1528.63</ele>
        <time>2021-02-05T12:17:37Z</time>
      </trkpt>
      <trkpt lat="44.25301" lon="7.74701">
        <ele>1528.15</ele>
        <time>2021-02-05T12:17:51Z</time>
      </trkpt>
      <trkpt lat="44.25303" lon="7.74699">
        <ele>1528.15</ele>
        <time>2021-02-05T12:17:52Z</time>
      </trkpt>
      <trkpt lat="44.25305" lon="7.74696">
        <ele>1527.67</ele>
        <time>2021-02-05T12:17:53Z</time>
      </trkpt>
      <trkpt lat="44.25307" lon="7.74691">
        <ele>1527.19</ele>
        <time>2021-02-05T12:17:54Z</time>
      </trkpt>
      <trkpt lat="44.25309" lon="7.74687">
        <ele>1526.23</ele>
        <time>2021-02-05T12:17:55Z</time>
      </trkpt>
      <trkpt lat="44.25312" lon="7.74681">
        <ele>1525.27</ele>
        <time>2021-02-05T12:17:56Z</time>
      </trkpt>
      <trkpt lat="44.25314" lon="7.74675">
        <ele>1524.79</ele>
        <time>2021-02-05T12:17:57Z</time>
      </trkpt>
      <trkpt lat="44.25316" lon="7.7467">
        <ele>1523.83</ele>
        <time>2021-02-05T12:17:58Z</time>
      </trkpt>
      <trkpt lat="44.25318" lon="7.74665">
        <ele>1523.35</ele>
        <time>2021-02-05T12:17:59Z</time>
      </trkpt>
      <trkpt lat="44.25321" lon="7.7466">
        <ele>1522.39</ele>
        <time>2021-02-05T12:18:00Z</time>
      </trkpt>
      <trkpt lat="44.25323" lon="7.74654">
        <ele>1521.42</ele>
        <time>2021-02-05T12:18:01Z</time>
      </trkpt>
      <trkpt lat="44.25325" lon="7.74648">
        <ele>1520.46</ele>
        <time>2021-02-05T12:18:02Z</time>
      </trkpt>
      <trkpt lat="44.25327" lon="7.74643">
        <ele>1519.5</ele>
        <time>2021-02-05T12:18:03Z</time>
      </trkpt>
      <trkpt lat="44.25329" lon="7.74638">
        <ele>1519.02</ele>
        <time>2021-02-05T12:18:04Z</time>
      </trkpt>
      <trkpt lat="44.25332" lon="7.74632">
        <ele>1518.54</ele>
        <time>2021-02-05T12:18:05Z</time>
      </trkpt>
      <trkpt lat="44.25334" lon="7.74625">
        <ele>1518.06</ele>
        <time>2021-02-05T12:18:06Z</time>
      </trkpt>
      <trkpt lat="44.25353" lon="7.74578">
        <ele>1513.73</ele>
        <time>2021-02-05T12:18:12Z</time>
      </trkpt>
      <trkpt lat="44.25362" lon="7.74549">
        <ele>1512.77</ele>
        <time>2021-02-05T12:18:16Z</time>
      </trkpt>
      <trkpt lat="44.25365" lon="7.74543">
        <ele>1512.29</ele>
        <time>2021-02-05T12:18:17Z</time>
      </trkpt>
      <trkpt lat="44.25367" lon="7.74537">
        <ele>1512.29</ele>
        <time>2021-02-05T12:18:18Z</time>
      </trkpt>
      <trkpt lat="44.25367" lon="7.7453">
        <ele>1511.33</ele>
        <time>2021-02-05T12:18:19Z</time>
      </trkpt>
      <trkpt lat="44.25367" lon="7.74527">
        <ele>1511.33</ele>
        <time>2021-02-05T12:18:20Z</time>
      </trkpt>
      <trkpt lat="44.25367" lon="7.74525">
        <ele>1510.85</ele>
        <time>2021-02-05T12:18:21Z</time>
      </trkpt>
      <trkpt lat="44.25366" lon="7.74523">
        <ele>1510.37</ele>
        <time>2021-02-05T12:18:22Z</time>
      </trkpt>
      <trkpt lat="44.25366" lon="7.74521">
        <ele>1510.37</ele>
        <time>2021-02-05T12:18:23Z</time>
      </trkpt>
      <trkpt lat="44.25366" lon="7.7452">
        <ele>1510.85</ele>
        <time>2021-02-05T12:18:39Z</time>
      </trkpt>
      <trkpt lat="44.25366" lon="7.74519">
        <ele>1509.89</ele>
        <time>2021-02-05T12:18:48Z</time>
      </trkpt>
      <trkpt lat="44.2537" lon="7.74517">
        <ele>1508.93</ele>
        <time>2021-02-05T12:18:50Z</time>
      </trkpt>
      <trkpt lat="44.25371" lon="7.74513">
        <ele>1508.45</ele>
        <time>2021-02-05T12:18:51Z</time>
      </trkpt>
      <trkpt lat="44.25373" lon="7.74503">
        <ele>1506.52</ele>
        <time>2021-02-05T12:18:53Z</time>
      </trkpt>
      <trkpt lat="44.25372" lon="7.745">
        <ele>1506.04</ele>
        <time>2021-02-05T12:18:54Z</time>
      </trkpt>
      <trkpt lat="44.25372" lon="7.74498">
        <ele>1505.56</ele>
        <time>2021-02-05T12:18:55Z</time>
      </trkpt>
      <trkpt lat="44.25372" lon="7.74496">
        <ele>1505.08</ele>
        <time>2021-02-05T12:18:56Z</time>
      </trkpt>
      <trkpt lat="44.25372" lon="7.74494">
        <ele>1504.6</ele>
        <time>2021-02-05T12:18:57Z</time>
      </trkpt>
      <trkpt lat="44.25373" lon="7.74493">
        <ele>1504.6</ele>
        <time>2021-02-05T12:18:58Z</time>
      </trkpt>
      <trkpt lat="44.25373" lon="7.74491">
        <ele>1504.12</ele>
        <time>2021-02-05T12:18:59Z</time>
      </trkpt>
      <trkpt lat="44.25379" lon="7.74495">
        <ele>1502.68</ele>
        <time>2021-02-05T12:19:02Z</time>
      </trkpt>
      <trkpt lat="44.25388" lon="7.74489">
        <ele>1499.31</ele>
        <time>2021-02-05T12:19:07Z</time>
      </trkpt>
      <trkpt lat="44.25403" lon="7.74487">
        <ele>1494.03</ele>
        <time>2021-02-05T12:19:14Z</time>
      </trkpt>
      <trkpt lat="44.25413" lon="7.74482">
        <ele>1488.74</ele>
        <time>2021-02-05T12:19:19Z</time>
      </trkpt>
      <trkpt lat="44.25424" lon="7.74474">
        <ele>1484.41</ele>
        <time>2021-02-05T12:19:24Z</time>
      </trkpt>
      <trkpt lat="44.25439" lon="7.74485">
        <ele>1480.57</ele>
        <time>2021-02-05T12:19:29Z</time>
      </trkpt>
      <trkpt lat="44.25452" lon="7.74489">
        <ele>1478.16</ele>
        <time>2021-02-05T12:19:33Z</time>
      </trkpt>
      <trkpt lat="44.25456" lon="7.74478">
        <ele>1476.72</ele>
        <time>2021-02-05T12:19:35Z</time>
      </trkpt>
      <trkpt lat="44.25458" lon="7.74461">
        <ele>1475.28</ele>
        <time>2021-02-05T12:19:38Z</time>
      </trkpt>
      <trkpt lat="44.25474" lon="7.74462">
        <ele>1470.95</ele>
        <time>2021-02-05T12:19:43Z</time>
      </trkpt>
      <trkpt lat="44.25485" lon="7.74459">
        <ele>1467.11</ele>
        <time>2021-02-05T12:19:47Z</time>
      </trkpt>
      <trkpt lat="44.25497" lon="7.7445">
        <ele>1462.78</ele>
        <time>2021-02-05T12:19:51Z</time>
      </trkpt>
      <trkpt lat="44.25503" lon="7.74444">
        <ele>1461.82</ele>
        <time>2021-02-05T12:19:53Z</time>
      </trkpt>
      <trkpt lat="44.25508" lon="7.74443">
        <ele>1460.86</ele>
        <time>2021-02-05T12:19:54Z</time>
      </trkpt>
      <trkpt lat="44.25513" lon="7.74442">
        <ele>1460.38</ele>
        <time>2021-02-05T12:19:55Z</time>
      </trkpt>
      <trkpt lat="44.25519" lon="7.74441">
        <ele>1459.42</ele>
        <time>2021-02-05T12:19:56Z</time>
      </trkpt>
      <trkpt lat="44.25524" lon="7.74442">
        <ele>1458.46</ele>
        <time>2021-02-05T12:19:57Z</time>
      </trkpt>
      <trkpt lat="44.25528" lon="7.74447">
        <ele>1457.98</ele>
        <time>2021-02-05T12:19:58Z</time>
      </trkpt>
      <trkpt lat="44.25532" lon="7.74452">
        <ele>1457.02</ele>
        <time>2021-02-05T12:19:59Z</time>
      </trkpt>
      <trkpt lat="44.25536" lon="7.74456">
        <ele>1456.53</ele>
        <time>2021-02-05T12:20:00Z</time>
      </trkpt>
      <trkpt lat="44.2554" lon="7.74459">
        <ele>1455.57</ele>
        <time>2021-02-05T12:20:01Z</time>
      </trkpt>
      <trkpt lat="44.25549" lon="7.7444">
        <ele>1452.69</ele>
        <time>2021-02-05T12:20:05Z</time>
      </trkpt>
      <trkpt lat="44.25553" lon="7.74437">
        <ele>1451.73</ele>
        <time>2021-02-05T12:20:06Z</time>
      </trkpt>
      <trkpt lat="44.25555" lon="7.74437">
        <ele>1451.25</ele>
        <time>2021-02-05T12:20:07Z</time>
      </trkpt>
      <trkpt lat="44.25555" lon="7.74439">
        <ele>1450.29</ele>
        <time>2021-02-05T12:20:08Z</time>
      </trkpt>
      <trkpt lat="44.25555" lon="7.74441">
        <ele>1448.36</ele>
        <time>2021-02-05T12:20:21Z</time>
      </trkpt>
      <trkpt lat="44.25556" lon="7.74442">
        <ele>1448.36</ele>
        <time>2021-02-05T12:20:39Z</time>
      </trkpt>
      <trkpt lat="44.25557" lon="7.74444">
        <ele>1447.88</ele>
        <time>2021-02-05T12:20:40Z</time>
      </trkpt>
      <trkpt lat="44.25558" lon="7.74446">
        <ele>1447.88</ele>
        <time>2021-02-05T12:20:41Z</time>
      </trkpt>
      <trkpt lat="44.2556" lon="7.74449">
        <ele>1447.88</ele>
        <time>2021-02-05T12:20:42Z</time>
      </trkpt>
      <trkpt lat="44.25563" lon="7.74451">
        <ele>1446.92</ele>
        <time>2021-02-05T12:20:43Z</time>
      </trkpt>
      <trkpt lat="44.25567" lon="7.74452">
        <ele>1445.48</ele>
        <time>2021-02-05T12:20:44Z</time>
      </trkpt>
      <trkpt lat="44.25569" lon="7.74449">
        <ele>1444.52</ele>
        <time>2021-02-05T12:20:45Z</time>
      </trkpt>
      <trkpt lat="44.25571" lon="7.74446">
        <ele>1444.04</ele>
        <time>2021-02-05T12:20:46Z</time>
      </trkpt>
      <trkpt lat="44.25574" lon="7.74443">
        <ele>1443.56</ele>
        <time>2021-02-05T12:20:47Z</time>
      </trkpt>
      <trkpt lat="44.25577" lon="7.74439">
        <ele>1442.6</ele>
        <time>2021-02-05T12:20:48Z</time>
      </trkpt>
      <trkpt lat="44.2558" lon="7.74436">
        <ele>1442.11</ele>
        <time>2021-02-05T12:20:49Z</time>
      </trkpt>
      <trkpt lat="44.25585" lon="7.74444">
        <ele>1439.71</ele>
        <time>2021-02-05T12:20:53Z</time>
      </trkpt>
      <trkpt lat="44.25581" lon="7.74472">
        <ele>1437.31</ele>
        <time>2021-02-05T12:21:02Z</time>
      </trkpt>
      <trkpt lat="44.2558" lon="7.74489">
        <ele>1434.42</ele>
        <time>2021-02-05T12:21:05Z</time>
      </trkpt>
      <trkpt lat="44.25571" lon="7.74515">
        <ele>1430.58</ele>
        <time>2021-02-05T12:21:09Z</time>
      </trkpt>
      <trkpt lat="44.25559" lon="7.7454">
        <ele>1427.7</ele>
        <time>2021-02-05T12:21:15Z</time>
      </trkpt>
      <trkpt lat="44.25546" lon="7.74577">
        <ele>1422.41</ele>
        <time>2021-02-05T12:21:22Z</time>
      </trkpt>
      <trkpt lat="44.25542" lon="7.74605">
        <ele>1420.49</ele>
        <time>2021-02-05T12:21:28Z</time>
      </trkpt>
      <trkpt lat="44.25543" lon="7.74617">
        <ele>1418.56</ele>
        <time>2021-02-05T12:21:30Z</time>
      </trkpt>
      <trkpt lat="44.2554" lon="7.74625">
        <ele>1417.12</ele>
        <time>2021-02-05T12:21:40Z</time>
      </trkpt>
      <trkpt lat="44.2554" lon="7.74627">
        <ele>1417.6</ele>
        <time>2021-02-05T12:21:53Z</time>
      </trkpt>
      <trkpt lat="44.2554" lon="7.74628">
        <ele>1417.6</ele>
        <time>2021-02-05T12:21:54Z</time>
      </trkpt>
      <trkpt lat="44.25537" lon="7.74672">
        <ele>1416.64</ele>
        <time>2021-02-05T12:22:04Z</time>
      </trkpt>
      <trkpt lat="44.25543" lon="7.74743">
        <ele>1412.31</ele>
        <time>2021-02-05T12:22:16Z</time>
      </trkpt>
      <trkpt lat="44.25547" lon="7.74813">
        <ele>1407.99</ele>
        <time>2021-02-05T12:22:26Z</time>
      </trkpt>
      <trkpt lat="44.25548" lon="7.74836">
        <ele>1406.07</ele>
        <time>2021-02-05T12:22:33Z</time>
      </trkpt>
      <trkpt lat="44.25547" lon="7.74837">
        <ele>1406.07</ele>
        <time>2021-02-05T12:22:50Z</time>
      </trkpt>
      <trkpt lat="44.25547" lon="7.74838">
        <ele>1406.07</ele>
        <time>2021-02-05T12:22:59Z</time>
      </trkpt>
      <trkpt lat="44.25556" lon="7.7486">
        <ele>1401.26</ele>
        <time>2021-02-05T12:23:06Z</time>
      </trkpt>
      <trkpt lat="44.25556" lon="7.74866">
        <ele>1400.78</ele>
        <time>2021-02-05T12:23:08Z</time>
      </trkpt>
      <trkpt lat="44.25567" lon="7.74864">
        <ele>1398.86</ele>
        <time>2021-02-05T12:23:15Z</time>
      </trkpt>
      <trkpt lat="44.25576" lon="7.74874">
        <ele>1395.01</ele>
        <time>2021-02-05T12:23:20Z</time>
      </trkpt>
      <trkpt lat="44.2558" lon="7.74871">
        <ele>1393.09</ele>
        <time>2021-02-05T12:23:25Z</time>
      </trkpt>
      <trkpt lat="44.2558" lon="7.74872">
        <ele>1392.13</ele>
        <time>2021-02-05T12:23:37Z</time>
      </trkpt>
      <trkpt lat="44.25582" lon="7.74889">
        <ele>1388.76</ele>
        <time>2021-02-05T12:23:45Z</time>
      </trkpt>
      <trkpt lat="44.2558" lon="7.74894">
        <ele>1387.8</ele>
        <time>2021-02-05T12:23:55Z</time>
      </trkpt>
      <trkpt lat="44.25599" lon="7.74894">
        <ele>1383.47</ele>
        <time>2021-02-05T12:24:02Z</time>
      </trkpt>
      <trkpt lat="44.25602" lon="7.749">
        <ele>1380.11</ele>
        <time>2021-02-05T12:24:08Z</time>
      </trkpt>
      <trkpt lat="44.25611" lon="7.74915">
        <ele>1374.82</ele>
        <time>2021-02-05T12:24:15Z</time>
      </trkpt>
      <trkpt lat="44.25616" lon="7.74922">
        <ele>1370.98</ele>
        <time>2021-02-05T12:24:21Z</time>
      </trkpt>
      <trkpt lat="44.25616" lon="7.74922">
        <ele>1370.5</ele>
        <time>2021-02-05T12:24:31Z</time>
      </trkpt>
      <trkpt lat="44.25626" lon="7.7492">
        <ele>1369.05</ele>
        <time>2021-02-05T12:24:38Z</time>
      </trkpt>
      <trkpt lat="44.25625" lon="7.7494">
        <ele>1366.17</ele>
        <time>2021-02-05T12:24:45Z</time>
      </trkpt>
      <trkpt lat="44.25627" lon="7.74942">
        <ele>1365.21</ele>
        <time>2021-02-05T12:24:46Z</time>
      </trkpt>
      <trkpt lat="44.25644" lon="7.74942">
        <ele>1357.52</ele>
        <time>2021-02-05T12:24:54Z</time>
      </trkpt>
      <trkpt lat="44.25639" lon="7.74952">
        <ele>1353.67</ele>
        <time>2021-02-05T12:25:02Z</time>
      </trkpt>
      <trkpt lat="44.25639" lon="7.74952">
        <ele>1353.67</ele>
        <time>2021-02-05T12:25:05Z</time>
      </trkpt>
      <trkpt lat="44.25654" lon="7.74956">
        <ele>1350.79</ele>
        <time>2021-02-05T12:25:11Z</time>
      </trkpt>
      <trkpt lat="44.25659" lon="7.74958">
        <ele>1348.39</ele>
        <time>2021-02-05T12:25:14Z</time>
      </trkpt>
      <trkpt lat="44.25651" lon="7.74981">
        <ele>1343.1</ele>
        <time>2021-02-05T12:25:20Z</time>
      </trkpt>
      <trkpt lat="44.25665" lon="7.7498">
        <ele>1338.29</ele>
        <time>2021-02-05T12:25:26Z</time>
      </trkpt>
      <trkpt lat="44.25674" lon="7.74976">
        <ele>1335.89</ele>
        <time>2021-02-05T12:25:29Z</time>
      </trkpt>
      <trkpt lat="44.25678" lon="7.74972">
        <ele>1334.93</ele>
        <time>2021-02-05T12:25:35Z</time>
      </trkpt>
      <trkpt lat="44.25688" lon="7.74973">
        <ele>1333.01</ele>
        <time>2021-02-05T12:25:39Z</time>
      </trkpt>
      <trkpt lat="44.25695" lon="7.74973">
        <ele>1330.12</ele>
        <time>2021-02-05T12:25:48Z</time>
      </trkpt>
      <trkpt lat="44.25695" lon="7.74976">
        <ele>1330.12</ele>
        <time>2021-02-05T12:25:49Z</time>
      </trkpt>
      <trkpt lat="44.25691" lon="7.74986">
        <ele>1328.2</ele>
        <time>2021-02-05T12:25:53Z</time>
      </trkpt>
      <trkpt lat="44.25683" lon="7.75006">
        <ele>1323.39</ele>
        <time>2021-02-05T12:26:00Z</time>
      </trkpt>
      <trkpt lat="44.25683" lon="7.75005">
        <ele>1321.47</ele>
        <time>2021-02-05T12:26:12Z</time>
      </trkpt>
      <trkpt lat="44.2568" lon="7.75017">
        <ele>1319.07</ele>
        <time>2021-02-05T12:26:17Z</time>
      </trkpt>
      <trkpt lat="44.25691" lon="7.75017">
        <ele>1316.18</ele>
        <time>2021-02-05T12:26:23Z</time>
      </trkpt>
      <trkpt lat="44.25691" lon="7.75036">
        <ele>1312.34</ele>
        <time>2021-02-05T12:26:30Z</time>
      </trkpt>
      <trkpt lat="44.2569" lon="7.75043">
        <ele>1312.34</ele>
        <time>2021-02-05T12:26:32Z</time>
      </trkpt>
      <trkpt lat="44.25702" lon="7.7504">
        <ele>1310.41</ele>
        <time>2021-02-05T12:26:37Z</time>
      </trkpt>
      <trkpt lat="44.25712" lon="7.75027">
        <ele>1308.97</ele>
        <time>2021-02-05T12:26:40Z</time>
      </trkpt>
      <trkpt lat="44.25726" lon="7.75018">
        <ele>1306.57</ele>
        <time>2021-02-05T12:26:44Z</time>
      </trkpt>
      <trkpt lat="44.25729" lon="7.75015">
        <ele>1305.61</ele>
        <time>2021-02-05T12:26:46Z</time>
      </trkpt>
      <trkpt lat="44.25727" lon="7.75024">
        <ele>1300.32</ele>
        <time>2021-02-05T12:26:55Z</time>
      </trkpt>
      <trkpt lat="44.25721" lon="7.75039">
        <ele>1298.88</ele>
        <time>2021-02-05T12:27:05Z</time>
      </trkpt>
      <trkpt lat="44.2572" lon="7.75048">
        <ele>1299.36</ele>
        <time>2021-02-05T12:27:19Z</time>
      </trkpt>
      <trkpt lat="44.25719" lon="7.75052">
        <ele>1298.4</ele>
        <time>2021-02-05T12:27:40Z</time>
      </trkpt>
      <trkpt lat="44.25718" lon="7.75068">
        <ele>1295.51</ele>
        <time>2021-02-05T12:27:47Z</time>
      </trkpt>
      <trkpt lat="44.25728" lon="7.75059">
        <ele>1295.51</ele>
        <time>2021-02-05T12:27:55Z</time>
      </trkpt>
      <trkpt lat="44.25728" lon="7.75062">
        <ele>1297.44</ele>
        <time>2021-02-05T12:28:19Z</time>
      </trkpt>
      <trkpt lat="44.25734" lon="7.75056">
        <ele>1296.96</ele>
        <time>2021-02-05T12:28:22Z</time>
      </trkpt>
      <trkpt lat="44.25744" lon="7.75041">
        <ele>1294.55</ele>
        <time>2021-02-05T12:28:27Z</time>
      </trkpt>
      <trkpt lat="44.25747" lon="7.75055">
        <ele>1289.27</ele>
        <time>2021-02-05T12:28:31Z</time>
      </trkpt>
      <trkpt lat="44.25757" lon="7.75057">
        <ele>1285.9</ele>
        <time>2021-02-05T12:28:35Z</time>
      </trkpt>
      <trkpt lat="44.25772" lon="7.75033">
        <ele>1283.02</ele>
        <time>2021-02-05T12:28:41Z</time>
      </trkpt>
      <trkpt lat="44.25779" lon="7.75042">
        <ele>1279.17</ele>
        <time>2021-02-05T12:28:47Z</time>
      </trkpt>
      <trkpt lat="44.25788" lon="7.75044">
        <ele>1275.81</ele>
        <time>2021-02-05T12:28:53Z</time>
      </trkpt>
      <trkpt lat="44.25791" lon="7.75041">
        <ele>1275.33</ele>
        <time>2021-02-05T12:28:54Z</time>
      </trkpt>
      <trkpt lat="44.258" lon="7.75047">
        <ele>1269.56</ele>
        <time>2021-02-05T12:29:01Z</time>
      </trkpt>
      <trkpt lat="44.25809" lon="7.75033">
        <ele>1266.19</ele>
        <time>2021-02-05T12:29:06Z</time>
      </trkpt>
      <trkpt lat="44.25812" lon="7.75042">
        <ele>1263.31</ele>
        <time>2021-02-05T12:29:09Z</time>
      </trkpt>
      <trkpt lat="44.25811" lon="7.75052">
        <ele>1262.35</ele>
        <time>2021-02-05T12:29:11Z</time>
      </trkpt>
      <trkpt lat="44.25824" lon="7.75035">
        <ele>1258.5</ele>
        <time>2021-02-05T12:29:17Z</time>
      </trkpt>
      <trkpt lat="44.25834" lon="7.75004">
        <ele>1252.25</ele>
        <time>2021-02-05T12:29:26Z</time>
      </trkpt>
      <trkpt lat="44.25834" lon="7.75004">
        <ele>1251.77</ele>
        <time>2021-02-05T12:29:27Z</time>
      </trkpt>
      <trkpt lat="44.2584" lon="7.75011">
        <ele>1246.97</ele>
        <time>2021-02-05T12:29:31Z</time>
      </trkpt>
      <trkpt lat="44.2584" lon="7.7503">
        <ele>1243.6</ele>
        <time>2021-02-05T12:29:42Z</time>
      </trkpt>
      <trkpt lat="44.25839" lon="7.75033">
        <ele>1245.04</ele>
        <time>2021-02-05T12:30:03Z</time>
      </trkpt>
      <trkpt lat="44.2584" lon="7.75042">
        <ele>1243.12</ele>
        <time>2021-02-05T12:30:06Z</time>
      </trkpt>
      <trkpt lat="44.25846" lon="7.75034">
        <ele>1240.24</ele>
        <time>2021-02-05T12:30:12Z</time>
      </trkpt>
      <trkpt lat="44.25849" lon="7.75026">
        <ele>1238.32</ele>
        <time>2021-02-05T12:30:17Z</time>
      </trkpt>
      <trkpt lat="44.25856" lon="7.75011">
        <ele>1236.87</ele>
        <time>2021-02-05T12:30:21Z</time>
      </trkpt>
      <trkpt lat="44.25857" lon="7.75003">
        <ele>1236.87</ele>
        <time>2021-02-05T12:30:23Z</time>
      </trkpt>
      <trkpt lat="44.25869" lon="7.75006">
        <ele>1232.07</ele>
        <time>2021-02-05T12:30:29Z</time>
      </trkpt>
      <trkpt lat="44.2588" lon="7.75015">
        <ele>1227.74</ele>
        <time>2021-02-05T12:30:34Z</time>
      </trkpt>
      <trkpt lat="44.25883" lon="7.75006">
        <ele>1226.78</ele>
        <time>2021-02-05T12:30:36Z</time>
      </trkpt>
      <trkpt lat="44.25885" lon="7.75001">
        <ele>1225.82</ele>
        <time>2021-02-05T12:30:37Z</time>
      </trkpt>
      <trkpt lat="44.25888" lon="7.74982">
        <ele>1222.93</ele>
        <time>2021-02-05T12:30:43Z</time>
      </trkpt>
      <trkpt lat="44.2589" lon="7.74986">
        <ele>1223.42</ele>
        <time>2021-02-05T12:30:45Z</time>
      </trkpt>
      <trkpt lat="44.25895" lon="7.75015">
        <ele>1221.49</ele>
        <time>2021-02-05T12:30:56Z</time>
      </trkpt>
      <trkpt lat="44.259" lon="7.75029">
        <ele>1221.49</ele>
        <time>2021-02-05T12:31:10Z</time>
      </trkpt>
      <trkpt lat="44.25901" lon="7.75029">
        <ele>1221.01</ele>
        <time>2021-02-05T12:31:11Z</time>
      </trkpt>
      <trkpt lat="44.25902" lon="7.75026">
        <ele>1220.05</ele>
        <time>2021-02-05T12:31:12Z</time>
      </trkpt>
      <trkpt lat="44.25903" lon="7.75022">
        <ele>1219.09</ele>
        <time>2021-02-05T12:31:13Z</time>
      </trkpt>
      <trkpt lat="44.25904" lon="7.75017">
        <ele>1218.61</ele>
        <time>2021-02-05T12:31:14Z</time>
      </trkpt>
      <trkpt lat="44.25905" lon="7.75012">
        <ele>1217.65</ele>
        <time>2021-02-05T12:31:15Z</time>
      </trkpt>
      <trkpt lat="44.25907" lon="7.75001">
        <ele>1215.72</ele>
        <time>2021-02-05T12:31:22Z</time>
      </trkpt>
      <trkpt lat="44.25908" lon="7.75">
        <ele>1215.24</ele>
        <time>2021-02-05T12:31:23Z</time>
      </trkpt>
      <trkpt lat="44.2592" lon="7.75018">
        <ele>1211.88</ele>
        <time>2021-02-05T12:31:28Z</time>
      </trkpt>
      <trkpt lat="44.25934" lon="7.75028">
        <ele>1209.48</ele>
        <time>2021-02-05T12:31:37Z</time>
      </trkpt>
      <trkpt lat="44.25932" lon="7.75028">
        <ele>1210.44</ele>
        <time>2021-02-05T12:31:55Z</time>
      </trkpt>
      <trkpt lat="44.25932" lon="7.75028">
        <ele>1213.32</ele>
        <time>2021-02-05T12:32:25Z</time>
      </trkpt>
      <trkpt lat="44.25932" lon="7.7503">
        <ele>1214.28</ele>
        <time>2021-02-05T12:32:43Z</time>
      </trkpt>
      <trkpt lat="44.25933" lon="7.75029">
        <ele>1214.76</ele>
        <time>2021-02-05T12:32:51Z</time>
      </trkpt>
      <trkpt lat="44.25934" lon="7.75022">
        <ele>1213.8</ele>
        <time>2021-02-05T12:32:53Z</time>
      </trkpt>
      <trkpt lat="44.25938" lon="7.75012">
        <ele>1211.4</ele>
        <time>2021-02-05T12:32:55Z</time>
      </trkpt>
      <trkpt lat="44.25948" lon="7.74984">
        <ele>1202.75</ele>
        <time>2021-02-05T12:33:02Z</time>
      </trkpt>
      <trkpt lat="44.25961" lon="7.74973">
        <ele>1197.46</ele>
        <time>2021-02-05T12:33:07Z</time>
      </trkpt>
      <trkpt lat="44.25971" lon="7.74958">
        <ele>1190.73</ele>
        <time>2021-02-05T12:33:13Z</time>
      </trkpt>
      <trkpt lat="44.25981" lon="7.74945">
        <ele>1184.48</ele>
        <time>2021-02-05T12:33:18Z</time>
      </trkpt>
      <trkpt lat="44.25991" lon="7.7494">
        <ele>1178.71</ele>
        <time>2021-02-05T12:33:24Z</time>
      </trkpt>
      <trkpt lat="44.25992" lon="7.74941">
        <ele>1177.75</ele>
        <time>2021-02-05T12:33:37Z</time>
      </trkpt>
      <trkpt lat="44.25993" lon="7.74943">
        <ele>1179.19</ele>
        <time>2021-02-05T12:33:53Z</time>
      </trkpt>
      <trkpt lat="44.25991" lon="7.74941">
        <ele>1179.19</ele>
        <time>2021-02-05T12:34:21Z</time>
      </trkpt>
      <trkpt lat="44.25992" lon="7.74941">
        <ele>1181.12</ele>
        <time>2021-02-05T12:34:48Z</time>
      </trkpt>
      <trkpt lat="44.25992" lon="7.74941">
        <ele>1181.6</ele>
        <time>2021-02-05T12:34:53Z</time>
      </trkpt>
      <trkpt lat="44.25997" lon="7.74924">
        <ele>1176.31</ele>
        <time>2021-02-05T12:34:59Z</time>
      </trkpt>
      <trkpt lat="44.26008" lon="7.7491">
        <ele>1171.02</ele>
        <time>2021-02-05T12:35:04Z</time>
      </trkpt>
      <trkpt lat="44.26026" lon="7.74905">
        <ele>1164.29</ele>
        <time>2021-02-05T12:35:09Z</time>
      </trkpt>
      <trkpt lat="44.26043" lon="7.74895">
        <ele>1158.53</ele>
        <time>2021-02-05T12:35:14Z</time>
      </trkpt>
      <trkpt lat="44.26063" lon="7.74882">
        <ele>1148.43</ele>
        <time>2021-02-05T12:35:19Z</time>
      </trkpt>
      <trkpt lat="44.26067" lon="7.74879">
        <ele>1146.99</ele>
        <time>2021-02-05T12:35:20Z</time>
      </trkpt>
      <trkpt lat="44.26093" lon="7.74864">
        <ele>1137.38</ele>
        <time>2021-02-05T12:35:27Z</time>
      </trkpt>
      <trkpt lat="44.26111" lon="7.74854">
        <ele>1130.17</ele>
        <time>2021-02-05T12:35:32Z</time>
      </trkpt>
      <trkpt lat="44.26115" lon="7.74852">
        <ele>1127.28</ele>
        <time>2021-02-05T12:35:38Z</time>
      </trkpt>
      <trkpt lat="44.26114" lon="7.74853">
        <ele>1128.24</ele>
        <time>2021-02-05T12:35:54Z</time>
      </trkpt>
      <trkpt lat="44.26115" lon="7.74855">
        <ele>1128.73</ele>
        <time>2021-02-05T12:36:09Z</time>
      </trkpt>
      <trkpt lat="44.26114" lon="7.74855">
        <ele>1129.21</ele>
        <time>2021-02-05T12:36:29Z</time>
      </trkpt>
      <trkpt lat="44.26113" lon="7.74857">
        <ele>1129.21</ele>
        <time>2021-02-05T12:36:54Z</time>
      </trkpt>
      <trkpt lat="44.26113" lon="7.74857">
        <ele>1129.21</ele>
        <time>2021-02-05T12:37:16Z</time>
      </trkpt>
      <trkpt lat="44.26115" lon="7.74855">
        <ele>1127.28</ele>
        <time>2021-02-05T12:37:38Z</time>
      </trkpt>
      <trkpt lat="44.26115" lon="7.74856">
        <ele>1127.76</ele>
        <time>2021-02-05T12:38:00Z</time>
      </trkpt>
      <trkpt lat="44.26115" lon="7.74855">
        <ele>1128.24</ele>
        <time>2021-02-05T12:38:24Z</time>
      </trkpt>
      <trkpt lat="44.26116" lon="7.74856">
        <ele>1127.76</ele>
        <time>2021-02-05T12:38:41Z</time>
      </trkpt>
      <trkpt lat="44.26116" lon="7.74856">
        <ele>1127.28</ele>
        <time>2021-02-05T12:38:59Z</time>
      </trkpt>
      <trkpt lat="44.26116" lon="7.74856">
        <ele>1127.28</ele>
        <time>2021-02-05T12:39:14Z</time>
      </trkpt>
      <trkpt lat="44.26116" lon="7.74855">
        <ele>1126.8</ele>
        <time>2021-02-05T12:39:30Z</time>
      </trkpt>
      <trkpt lat="44.26116" lon="7.74856">
        <ele>1128.24</ele>
        <time>2021-02-05T12:39:52Z</time>
      </trkpt>
      <trkpt lat="44.26116" lon="7.74856">
        <ele>1127.76</ele>
        <time>2021-02-05T12:39:56Z</time>
      </trkpt>
      <trkpt lat="44.2613" lon="7.74847">
        <ele>1124.4</ele>
        <time>2021-02-05T12:40:03Z</time>
      </trkpt>
      <trkpt lat="44.26134" lon="7.74849">
        <ele>1123.44</ele>
        <time>2021-02-05T12:40:04Z</time>
      </trkpt>
      <trkpt lat="44.26138" lon="7.7485">
        <ele>1122.96</ele>
        <time>2021-02-05T12:40:05Z</time>
      </trkpt>
      <trkpt lat="44.26141" lon="7.74847">
        <ele>1122</ele>
        <time>2021-02-05T12:40:06Z</time>
      </trkpt>
      <trkpt lat="44.26144" lon="7.74842">
        <ele>1121.03</ele>
        <time>2021-02-05T12:40:07Z</time>
      </trkpt>
      <trkpt lat="44.26149" lon="7.74839">
        <ele>1120.07</ele>
        <time>2021-02-05T12:40:08Z</time>
      </trkpt>
      <trkpt lat="44.26154" lon="7.74839">
        <ele>1118.63</ele>
        <time>2021-02-05T12:40:09Z</time>
      </trkpt>
      <trkpt lat="44.26158" lon="7.74839">
        <ele>1117.67</ele>
        <time>2021-02-05T12:40:10Z</time>
      </trkpt>
      <trkpt lat="44.26162" lon="7.74836">
        <ele>1116.71</ele>
        <time>2021-02-05T12:40:11Z</time>
      </trkpt>
      <trkpt lat="44.26165" lon="7.74831">
        <ele>1115.27</ele>
        <time>2021-02-05T12:40:12Z</time>
      </trkpt>
      <trkpt lat="44.26169" lon="7.7483">
        <ele>1114.31</ele>
        <time>2021-02-05T12:40:13Z</time>
      </trkpt>
      <trkpt lat="44.26173" lon="7.74831">
        <ele>1113.34</ele>
        <time>2021-02-05T12:40:14Z</time>
      </trkpt>
      <trkpt lat="44.26176" lon="7.74829">
        <ele>1111.9</ele>
        <time>2021-02-05T12:40:15Z</time>
      </trkpt>
      <trkpt lat="44.26179" lon="7.74824">
        <ele>1110.46</ele>
        <time>2021-02-05T12:40:16Z</time>
      </trkpt>
      <trkpt lat="44.26183" lon="7.74821">
        <ele>1109.5</ele>
        <time>2021-02-05T12:40:17Z</time>
      </trkpt>
      <trkpt lat="44.26187" lon="7.74821">
        <ele>1108.06</ele>
        <time>2021-02-05T12:40:18Z</time>
      </trkpt>
      <trkpt lat="44.26191" lon="7.74821">
        <ele>1107.1</ele>
        <time>2021-02-05T12:40:19Z</time>
      </trkpt>
      <trkpt lat="44.26195" lon="7.74819">
        <ele>1106.13</ele>
        <time>2021-02-05T12:40:20Z</time>
      </trkpt>
      <trkpt lat="44.26197" lon="7.74815">
        <ele>1105.17</ele>
        <time>2021-02-05T12:40:21Z</time>
      </trkpt>
      <trkpt lat="44.26197" lon="7.74813">
        <ele>1104.21</ele>
        <time>2021-02-05T12:40:22Z</time>
      </trkpt>
      <trkpt lat="44.26198" lon="7.7481">
        <ele>1103.25</ele>
        <time>2021-02-05T12:40:23Z</time>
      </trkpt>
      <trkpt lat="44.26201" lon="7.74809">
        <ele>1102.29</ele>
        <time>2021-02-05T12:40:24Z</time>
      </trkpt>
      <trkpt lat="44.26204" lon="7.7481">
        <ele>1101.33</ele>
        <time>2021-02-05T12:40:25Z</time>
      </trkpt>
      <trkpt lat="44.26206" lon="7.74812">
        <ele>1100.37</ele>
        <time>2021-02-05T12:40:26Z</time>
      </trkpt>
      <trkpt lat="44.26208" lon="7.74811">
        <ele>1099.4</ele>
        <time>2021-02-05T12:40:27Z</time>
      </trkpt>
      <trkpt lat="44.2621" lon="7.74807">
        <ele>1098.44</ele>
        <time>2021-02-05T12:40:28Z</time>
      </trkpt>
      <trkpt lat="44.26211" lon="7.74806">
        <ele>1097.48</ele>
        <time>2021-02-05T12:40:29Z</time>
      </trkpt>
      <trkpt lat="44.26214" lon="7.74808">
        <ele>1096.52</ele>
        <time>2021-02-05T12:40:30Z</time>
      </trkpt>
      <trkpt lat="44.26213" lon="7.74811">
        <ele>1093.64</ele>
        <time>2021-02-05T12:40:40Z</time>
      </trkpt>
      <trkpt lat="44.26215" lon="7.7481">
        <ele>1095.08</ele>
        <time>2021-02-05T12:40:57Z</time>
      </trkpt>
      <trkpt lat="44.26217" lon="7.74809">
        <ele>1094.6</ele>
        <time>2021-02-05T12:41:08Z</time>
      </trkpt>
      <trkpt lat="44.26217" lon="7.74809">
        <ele>1095.56</ele>
        <time>2021-02-05T12:41:25Z</time>
      </trkpt>
      <trkpt lat="44.26217" lon="7.7481">
        <ele>1097.96</ele>
        <time>2021-02-05T12:41:35Z</time>
      </trkpt>
      <trkpt lat="44.26217" lon="7.74812">
        <ele>1099.4</ele>
        <time>2021-02-05T12:41:57Z</time>
      </trkpt>
      <trkpt lat="44.26219" lon="7.74812">
        <ele>1098.44</ele>
        <time>2021-02-05T12:42:14Z</time>
      </trkpt>
      <trkpt lat="44.26221" lon="7.74806">
        <ele>1098.44</ele>
        <time>2021-02-05T12:42:16Z</time>
      </trkpt>
      <trkpt lat="44.26221" lon="7.74803">
        <ele>1097.96</ele>
        <time>2021-02-05T12:42:17Z</time>
      </trkpt>
      <trkpt lat="44.26223" lon="7.74802">
        <ele>1097.96</ele>
        <time>2021-02-05T12:42:18Z</time>
      </trkpt>
      <trkpt lat="44.26226" lon="7.74802">
        <ele>1097.48</ele>
        <time>2021-02-05T12:42:19Z</time>
      </trkpt>
      <trkpt lat="44.26228" lon="7.74801">
        <ele>1096.52</ele>
        <time>2021-02-05T12:42:20Z</time>
      </trkpt>
      <trkpt lat="44.26231" lon="7.74797">
        <ele>1096.04</ele>
        <time>2021-02-05T12:42:21Z</time>
      </trkpt>
      <trkpt lat="44.26234" lon="7.74796">
        <ele>1095.56</ele>
        <time>2021-02-05T12:42:22Z</time>
      </trkpt>
      <trkpt lat="44.26237" lon="7.74797">
        <ele>1094.6</ele>
        <time>2021-02-05T12:42:23Z</time>
      </trkpt>
      <trkpt lat="44.26241" lon="7.74796">
        <ele>1094.12</ele>
        <time>2021-02-05T12:42:24Z</time>
      </trkpt>
      <trkpt lat="44.26245" lon="7.74794">
        <ele>1093.16</ele>
        <time>2021-02-05T12:42:25Z</time>
      </trkpt>
      <trkpt lat="44.26249" lon="7.74793">
        <ele>1092.2</ele>
        <time>2021-02-05T12:42:26Z</time>
      </trkpt>
      <trkpt lat="44.26253" lon="7.74793">
        <ele>1091.23</ele>
        <time>2021-02-05T12:42:27Z</time>
      </trkpt>
      <trkpt lat="44.26257" lon="7.74792">
        <ele>1090.27</ele>
        <time>2021-02-05T12:42:28Z</time>
      </trkpt>
      <trkpt lat="44.2626" lon="7.7479">
        <ele>1089.31</ele>
        <time>2021-02-05T12:42:29Z</time>
      </trkpt>
      <trkpt lat="44.26264" lon="7.7479">
        <ele>1087.87</ele>
        <time>2021-02-05T12:42:30Z</time>
      </trkpt>
      <trkpt lat="44.26268" lon="7.74789">
        <ele>1086.91</ele>
        <time>2021-02-05T12:42:31Z</time>
      </trkpt>
      <trkpt lat="44.26271" lon="7.74787">
        <ele>1085.47</ele>
        <time>2021-02-05T12:42:32Z</time>
      </trkpt>
      <trkpt lat="44.26274" lon="7.74787">
        <ele>1084.5</ele>
        <time>2021-02-05T12:42:33Z</time>
      </trkpt>
      <trkpt lat="44.26278" lon="7.7479">
        <ele>1083.06</ele>
        <time>2021-02-05T12:42:34Z</time>
      </trkpt>
      <trkpt lat="44.26282" lon="7.7479">
        <ele>1082.1</ele>
        <time>2021-02-05T12:42:35Z</time>
      </trkpt>
      <trkpt lat="44.26285" lon="7.74787">
        <ele>1081.14</ele>
        <time>2021-02-05T12:42:36Z</time>
      </trkpt>
      <trkpt lat="44.26288" lon="7.74787">
        <ele>1079.7</ele>
        <time>2021-02-05T12:42:37Z</time>
      </trkpt>
      <trkpt lat="44.26291" lon="7.74789">
        <ele>1078.74</ele>
        <time>2021-02-05T12:42:38Z</time>
      </trkpt>
      <trkpt lat="44.26295" lon="7.74791">
        <ele>1077.78</ele>
        <time>2021-02-05T12:42:39Z</time>
      </trkpt>
      <trkpt lat="44.26299" lon="7.74789">
        <ele>1076.81</ele>
        <time>2021-02-05T12:42:40Z</time>
      </trkpt>
      <trkpt lat="44.26302" lon="7.74787">
        <ele>1075.85</ele>
        <time>2021-02-05T12:42:41Z</time>
      </trkpt>
      <trkpt lat="44.26304" lon="7.74789">
        <ele>1074.89</ele>
        <time>2021-02-05T12:42:42Z</time>
      </trkpt>
      <trkpt lat="44.26305" lon="7.74792">
        <ele>1074.41</ele>
        <time>2021-02-05T12:42:43Z</time>
      </trkpt>
      <trkpt lat="44.26306" lon="7.74791">
        <ele>1072.01</ele>
        <time>2021-02-05T12:42:54Z</time>
      </trkpt>
      <trkpt lat="44.26307" lon="7.74792">
        <ele>1072.01</ele>
        <time>2021-02-05T12:42:55Z</time>
      </trkpt>
      <trkpt lat="44.26308" lon="7.74792">
        <ele>1071.05</ele>
        <time>2021-02-05T12:43:07Z</time>
      </trkpt>
      <trkpt lat="44.26308" lon="7.74793">
        <ele>1071.05</ele>
        <time>2021-02-05T12:43:29Z</time>
      </trkpt>
      <trkpt lat="44.26308" lon="7.74792">
        <ele>1070.57</ele>
        <time>2021-02-05T12:43:46Z</time>
      </trkpt>
      <trkpt lat="44.26308" lon="7.74794">
        <ele>1071.53</ele>
        <time>2021-02-05T12:44:09Z</time>
      </trkpt>
      <trkpt lat="44.2631" lon="7.74793">
        <ele>1074.41</ele>
        <time>2021-02-05T12:44:27Z</time>
      </trkpt>
      <trkpt lat="44.26309" lon="7.74793">
        <ele>1072.01</ele>
        <time>2021-02-05T12:44:52Z</time>
      </trkpt>
      <trkpt lat="44.26308" lon="7.74793">
        <ele>1072.49</ele>
        <time>2021-02-05T12:45:15Z</time>
      </trkpt>
      <trkpt lat="44.26307" lon="7.74792">
        <ele>1072.01</ele>
        <time>2021-02-05T12:45:40Z</time>
      </trkpt>
      <trkpt lat="44.26311" lon="7.7479">
        <ele>1070.57</ele>
        <time>2021-02-05T12:46:00Z</time>
      </trkpt>
      <trkpt lat="44.2631" lon="7.74793">
        <ele>1069.6</ele>
        <time>2021-02-05T12:46:17Z</time>
      </trkpt>
      <trkpt lat="44.2631" lon="7.74791">
        <ele>1069.6</ele>
        <time>2021-02-05T12:46:39Z</time>
      </trkpt>
      <trkpt lat="44.26311" lon="7.74791">
        <ele>1069.6</ele>
        <time>2021-02-05T12:46:42Z</time>
      </trkpt>
      <trkpt lat="44.26313" lon="7.74791">
        <ele>1069.12</ele>
        <time>2021-02-05T12:46:43Z</time>
      </trkpt>
      <trkpt lat="44.26316" lon="7.7479">
        <ele>1068.64</ele>
        <time>2021-02-05T12:46:44Z</time>
      </trkpt>
      <trkpt lat="44.2632" lon="7.74791">
        <ele>1067.68</ele>
        <time>2021-02-05T12:46:45Z</time>
      </trkpt>
      <trkpt lat="44.26323" lon="7.74794">
        <ele>1066.72</ele>
        <time>2021-02-05T12:46:46Z</time>
      </trkpt>
      <trkpt lat="44.26328" lon="7.74795">
        <ele>1065.76</ele>
        <time>2021-02-05T12:46:47Z</time>
      </trkpt>
      <trkpt lat="44.26332" lon="7.74796">
        <ele>1064.32</ele>
        <time>2021-02-05T12:46:48Z</time>
      </trkpt>
      <trkpt lat="44.26336" lon="7.748">
        <ele>1063.36</ele>
        <time>2021-02-05T12:46:49Z</time>
      </trkpt>
      <trkpt lat="44.26341" lon="7.74801">
        <ele>1061.91</ele>
        <time>2021-02-05T12:46:50Z</time>
      </trkpt>
      <trkpt lat="44.26345" lon="7.74801">
        <ele>1060.95</ele>
        <time>2021-02-05T12:46:51Z</time>
      </trkpt>
      <trkpt lat="44.26349" lon="7.74803">
        <ele>1059.99</ele>
        <time>2021-02-05T12:46:52Z</time>
      </trkpt>
      <trkpt lat="44.26354" lon="7.74806">
        <ele>1058.55</ele>
        <time>2021-02-05T12:46:53Z</time>
      </trkpt>
      <trkpt lat="44.26359" lon="7.74807">
        <ele>1057.59</ele>
        <time>2021-02-05T12:46:54Z</time>
      </trkpt>
      <trkpt lat="44.26363" lon="7.74809">
        <ele>1056.63</ele>
        <time>2021-02-05T12:46:55Z</time>
      </trkpt>
      <trkpt lat="44.26368" lon="7.74813">
        <ele>1055.67</ele>
        <time>2021-02-05T12:46:56Z</time>
      </trkpt>
      <trkpt lat="44.26372" lon="7.74813">
        <ele>1054.7</ele>
        <time>2021-02-05T12:46:57Z</time>
      </trkpt>
      <trkpt lat="44.26376" lon="7.74813">
        <ele>1053.26</ele>
        <time>2021-02-05T12:46:58Z</time>
      </trkpt>
      <trkpt lat="44.26381" lon="7.74816">
        <ele>1052.3</ele>
        <time>2021-02-05T12:46:59Z</time>
      </trkpt>
      <trkpt lat="44.26386" lon="7.74817">
        <ele>1051.34</ele>
        <time>2021-02-05T12:47:00Z</time>
      </trkpt>
      <trkpt lat="44.26392" lon="7.74816">
        <ele>1049.9</ele>
        <time>2021-02-05T12:47:01Z</time>
      </trkpt>
      <trkpt lat="44.26398" lon="7.74818">
        <ele>1048.94</ele>
        <time>2021-02-05T12:47:02Z</time>
      </trkpt>
      <trkpt lat="44.26404" lon="7.74819">
        <ele>1047.49</ele>
        <time>2021-02-05T12:47:03Z</time>
      </trkpt>
      <trkpt lat="44.26409" lon="7.74817">
        <ele>1046.05</ele>
        <time>2021-02-05T12:47:04Z</time>
      </trkpt>
      <trkpt lat="44.26415" lon="7.74817">
        <ele>1044.61</ele>
        <time>2021-02-05T12:47:05Z</time>
      </trkpt>
      <trkpt lat="44.2642" lon="7.74817">
        <ele>1043.65</ele>
        <time>2021-02-05T12:47:06Z</time>
      </trkpt>
      <trkpt lat="44.26426" lon="7.74815">
        <ele>1042.69</ele>
        <time>2021-02-05T12:47:07Z</time>
      </trkpt>
      <trkpt lat="44.26431" lon="7.74814">
        <ele>1041.73</ele>
        <time>2021-02-05T12:47:08Z</time>
      </trkpt>
      <trkpt lat="44.26437" lon="7.74815">
        <ele>1040.28</ele>
        <time>2021-02-05T12:47:09Z</time>
      </trkpt>
      <trkpt lat="44.26443" lon="7.74813">
        <ele>1038.36</ele>
        <time>2021-02-05T12:47:10Z</time>
      </trkpt>
      <trkpt lat="44.26447" lon="7.7481">
        <ele>1037.4</ele>
        <time>2021-02-05T12:47:11Z</time>
      </trkpt>
      <trkpt lat="44.26452" lon="7.74807">
        <ele>1035.96</ele>
        <time>2021-02-05T12:47:12Z</time>
      </trkpt>
      <trkpt lat="44.26457" lon="7.74803">
        <ele>1035</ele>
        <time>2021-02-05T12:47:13Z</time>
      </trkpt>
      <trkpt lat="44.26461" lon="7.74799">
        <ele>1033.55</ele>
        <time>2021-02-05T12:47:14Z</time>
      </trkpt>
      <trkpt lat="44.26465" lon="7.74796">
        <ele>1032.59</ele>
        <time>2021-02-05T12:47:15Z</time>
      </trkpt>
      <trkpt lat="44.26469" lon="7.74791">
        <ele>1031.15</ele>
        <time>2021-02-05T12:47:16Z</time>
      </trkpt>
      <trkpt lat="44.26473" lon="7.74787">
        <ele>1030.19</ele>
        <time>2021-02-05T12:47:17Z</time>
      </trkpt>
      <trkpt lat="44.26477" lon="7.74784">
        <ele>1029.23</ele>
        <time>2021-02-05T12:47:18Z</time>
      </trkpt>
      <trkpt lat="44.2648" lon="7.7478">
        <ele>1028.27</ele>
        <time>2021-02-05T12:47:19Z</time>
      </trkpt>
      <trkpt lat="44.26484" lon="7.74776">
        <ele>1027.31</ele>
        <time>2021-02-05T12:47:20Z</time>
      </trkpt>
      <trkpt lat="44.26489" lon="7.74772">
        <ele>1025.86</ele>
        <time>2021-02-05T12:47:21Z</time>
      </trkpt>
      <trkpt lat="44.26492" lon="7.74768">
        <ele>1024.42</ele>
        <time>2021-02-05T12:47:22Z</time>
      </trkpt>
      <trkpt lat="44.26497" lon="7.74762">
        <ele>1019.62</ele>
        <time>2021-02-05T12:47:28Z</time>
      </trkpt>
      <trkpt lat="44.26496" lon="7.74759">
        <ele>1018.65</ele>
        <time>2021-02-05T12:47:43Z</time>
      </trkpt>
      <trkpt lat="44.26495" lon="7.74757">
        <ele>1018.17</ele>
        <time>2021-02-05T12:48:00Z</time>
      </trkpt>
      <trkpt lat="44.26496" lon="7.74757">
        <ele>1017.69</ele>
        <time>2021-02-05T12:48:20Z</time>
      </trkpt>
      <trkpt lat="44.26496" lon="7.74758">
        <ele>1018.17</ele>
        <time>2021-02-05T12:48:37Z</time>
      </trkpt>
      <trkpt lat="44.26496" lon="7.74758">
        <ele>1018.65</ele>
        <time>2021-02-05T12:48:55Z</time>
      </trkpt>
      <trkpt lat="44.26496" lon="7.74758">
        <ele>1018.65</ele>
        <time>2021-02-05T12:49:12Z</time>
      </trkpt>
      <trkpt lat="44.265" lon="7.74754">
        <ele>1018.17</ele>
        <time>2021-02-05T12:49:16Z</time>
      </trkpt>
      <trkpt lat="44.26502" lon="7.74751">
        <ele>1017.69</ele>
        <time>2021-02-05T12:49:17Z</time>
      </trkpt>
      <trkpt lat="44.26503" lon="7.74748">
        <ele>1017.21</ele>
        <time>2021-02-05T12:49:18Z</time>
      </trkpt>
      <trkpt lat="44.26505" lon="7.74745">
        <ele>1016.25</ele>
        <time>2021-02-05T12:49:19Z</time>
      </trkpt>
      <trkpt lat="44.26507" lon="7.74742">
        <ele>1015.29</ele>
        <time>2021-02-05T12:49:20Z</time>
      </trkpt>
      <trkpt lat="44.26509" lon="7.74738">
        <ele>1014.33</ele>
        <time>2021-02-05T12:49:21Z</time>
      </trkpt>
      <trkpt lat="44.26511" lon="7.74733">
        <ele>1013.37</ele>
        <time>2021-02-05T12:49:22Z</time>
      </trkpt>
      <trkpt lat="44.26514" lon="7.74729">
        <ele>1012.41</ele>
        <time>2021-02-05T12:49:23Z</time>
      </trkpt>
      <trkpt lat="44.26516" lon="7.74725">
        <ele>1011.44</ele>
        <time>2021-02-05T12:49:24Z</time>
      </trkpt>
      <trkpt lat="44.26518" lon="7.74723">
        <ele>1010.48</ele>
        <time>2021-02-05T12:49:25Z</time>
      </trkpt>
      <trkpt lat="44.2652" lon="7.74721">
        <ele>1010</ele>
        <time>2021-02-05T12:49:26Z</time>
      </trkpt>
      <trkpt lat="44.26523" lon="7.74719">
        <ele>1009.52</ele>
        <time>2021-02-05T12:49:27Z</time>
      </trkpt>
      <trkpt lat="44.26526" lon="7.74716">
        <ele>1008.08</ele>
        <time>2021-02-05T12:49:28Z</time>
      </trkpt>
      <trkpt lat="44.26529" lon="7.74714">
        <ele>1007.12</ele>
        <time>2021-02-05T12:49:29Z</time>
      </trkpt>
      <trkpt lat="44.26533" lon="7.74711">
        <ele>1006.16</ele>
        <time>2021-02-05T12:49:30Z</time>
      </trkpt>
      <trkpt lat="44.26536" lon="7.74708">
        <ele>1005.2</ele>
        <time>2021-02-05T12:49:31Z</time>
      </trkpt>
      <trkpt lat="44.26539" lon="7.74706">
        <ele>1004.23</ele>
        <time>2021-02-05T12:49:32Z</time>
      </trkpt>
      <trkpt lat="44.26543" lon="7.74704">
        <ele>1003.27</ele>
        <time>2021-02-05T12:49:33Z</time>
      </trkpt>
      <trkpt lat="44.26547" lon="7.74701">
        <ele>1002.79</ele>
        <time>2021-02-05T12:49:34Z</time>
      </trkpt>
      <trkpt lat="44.26551" lon="7.74699">
        <ele>1001.83</ele>
        <time>2021-02-05T12:49:35Z</time>
      </trkpt>
      <trkpt lat="44.26556" lon="7.74697">
        <ele>1001.35</ele>
        <time>2021-02-05T12:49:36Z</time>
      </trkpt>
      <trkpt lat="44.2656" lon="7.74693">
        <ele>1000.87</ele>
        <time>2021-02-05T12:49:37Z</time>
      </trkpt>
      <trkpt lat="44.26563" lon="7.74688">
        <ele>1000.39</ele>
        <time>2021-02-05T12:49:38Z</time>
      </trkpt>
      <trkpt lat="44.26567" lon="7.74686">
        <ele>999.91</ele>
        <time>2021-02-05T12:49:39Z</time>
      </trkpt>
      <trkpt lat="44.2657" lon="7.74684">
        <ele>998.95</ele>
        <time>2021-02-05T12:49:40Z</time>
      </trkpt>
      <trkpt lat="44.26572" lon="7.74681">
        <ele>998.47</ele>
        <time>2021-02-05T12:49:41Z</time>
      </trkpt>
      <trkpt lat="44.26576" lon="7.74679">
        <ele>997.51</ele>
        <time>2021-02-05T12:49:42Z</time>
      </trkpt>
      <trkpt lat="44.26579" lon="7.74676">
        <ele>997.02</ele>
        <time>2021-02-05T12:49:43Z</time>
      </trkpt>
      <trkpt lat="44.26582" lon="7.74673">
        <ele>996.06</ele>
        <time>2021-02-05T12:49:44Z</time>
      </trkpt>
      <trkpt lat="44.26586" lon="7.74671">
        <ele>995.58</ele>
        <time>2021-02-05T12:49:45Z</time>
      </trkpt>
      <trkpt lat="44.26591" lon="7.74667">
        <ele>994.62</ele>
        <time>2021-02-05T12:49:46Z</time>
      </trkpt>
      <trkpt lat="44.26595" lon="7.74665">
        <ele>993.66</ele>
        <time>2021-02-05T12:49:47Z</time>
      </trkpt>
      <trkpt lat="44.26599" lon="7.74663">
        <ele>992.7</ele>
        <time>2021-02-05T12:49:48Z</time>
      </trkpt>
      <trkpt lat="44.26604" lon="7.74661">
        <ele>992.22</ele>
        <time>2021-02-05T12:49:49Z</time>
      </trkpt>
      <trkpt lat="44.26608" lon="7.74659">
        <ele>991.26</ele>
        <time>2021-02-05T12:49:50Z</time>
      </trkpt>
      <trkpt lat="44.26611" lon="7.74655">
        <ele>989.81</ele>
        <time>2021-02-05T12:49:51Z</time>
      </trkpt>
      <trkpt lat="44.26615" lon="7.74653">
        <ele>988.85</ele>
        <time>2021-02-05T12:49:52Z</time>
      </trkpt>
      <trkpt lat="44.26619" lon="7.74649">
        <ele>987.89</ele>
        <time>2021-02-05T12:49:53Z</time>
      </trkpt>
      <trkpt lat="44.26622" lon="7.74645">
        <ele>986.93</ele>
        <time>2021-02-05T12:49:54Z</time>
      </trkpt>
      <trkpt lat="44.26626" lon="7.74642">
        <ele>985.49</ele>
        <time>2021-02-05T12:49:55Z</time>
      </trkpt>
      <trkpt lat="44.26629" lon="7.74638">
        <ele>984.53</ele>
        <time>2021-02-05T12:49:56Z</time>
      </trkpt>
      <trkpt lat="44.26631" lon="7.74635">
        <ele>983.57</ele>
        <time>2021-02-05T12:49:57Z</time>
      </trkpt>
      <trkpt lat="44.26635" lon="7.74633">
        <ele>982.6</ele>
        <time>2021-02-05T12:49:58Z</time>
      </trkpt>
      <trkpt lat="44.26638" lon="7.7463">
        <ele>982.12</ele>
        <time>2021-02-05T12:49:59Z</time>
      </trkpt>
      <trkpt lat="44.26641" lon="7.74625">
        <ele>981.16</ele>
        <time>2021-02-05T12:50:00Z</time>
      </trkpt>
      <trkpt lat="44.26644" lon="7.74621">
        <ele>980.68</ele>
        <time>2021-02-05T12:50:01Z</time>
      </trkpt>
      <trkpt lat="44.26647" lon="7.74615">
        <ele>979.24</ele>
        <time>2021-02-05T12:50:02Z</time>
      </trkpt>
      <trkpt lat="44.26649" lon="7.74609">
        <ele>978.28</ele>
        <time>2021-02-05T12:50:03Z</time>
      </trkpt>
      <trkpt lat="44.26651" lon="7.74603">
        <ele>977.32</ele>
        <time>2021-02-05T12:50:04Z</time>
      </trkpt>
      <trkpt lat="44.26653" lon="7.74597">
        <ele>976.36</ele>
        <time>2021-02-05T12:50:05Z</time>
      </trkpt>
      <trkpt lat="44.26655" lon="7.74591">
        <ele>975.39</ele>
        <time>2021-02-05T12:50:06Z</time>
      </trkpt>
      <trkpt lat="44.26656" lon="7.74585">
        <ele>974.91</ele>
        <time>2021-02-05T12:50:07Z</time>
      </trkpt>
      <trkpt lat="44.26656" lon="7.74579">
        <ele>973.95</ele>
        <time>2021-02-05T12:50:08Z</time>
      </trkpt>
      <trkpt lat="44.26654" lon="7.74576">
        <ele>973.47</ele>
        <time>2021-02-05T12:50:09Z</time>
      </trkpt>
      <trkpt lat="44.26652" lon="7.74575">
        <ele>973.47</ele>
        <time>2021-02-05T12:50:10Z</time>
      </trkpt>
      <trkpt lat="44.26652" lon="7.74576">
        <ele>972.51</ele>
        <time>2021-02-05T12:50:21Z</time>
      </trkpt>
      <trkpt lat="44.26652" lon="7.74576">
        <ele>972.99</ele>
        <time>2021-02-05T12:50:37Z</time>
      </trkpt>
      <trkpt lat="44.26652" lon="7.74579">
        <ele>971.55</ele>
        <time>2021-02-05T12:50:54Z</time>
      </trkpt>
      <trkpt lat="44.26651" lon="7.7458">
        <ele>972.51</ele>
        <time>2021-02-05T12:51:16Z</time>
      </trkpt>
      <trkpt lat="44.26653" lon="7.74578">
        <ele>972.99</ele>
        <time>2021-02-05T12:51:21Z</time>
      </trkpt>
      <trkpt lat="44.26655" lon="7.74576">
        <ele>972.51</ele>
        <time>2021-02-05T12:51:23Z</time>
      </trkpt>
      <trkpt lat="44.26656" lon="7.74574">
        <ele>972.03</ele>
        <time>2021-02-05T12:51:24Z</time>
      </trkpt>
      <trkpt lat="44.26655" lon="7.74571">
        <ele>972.03</ele>
        <time>2021-02-05T12:51:25Z</time>
      </trkpt>
      <trkpt lat="44.26655" lon="7.74568">
        <ele>971.55</ele>
        <time>2021-02-05T12:51:26Z</time>
      </trkpt>
      <trkpt lat="44.26655" lon="7.74563">
        <ele>971.07</ele>
        <time>2021-02-05T12:51:27Z</time>
      </trkpt>
      <trkpt lat="44.26657" lon="7.74554">
        <ele>970.59</ele>
        <time>2021-02-05T12:51:29Z</time>
      </trkpt>
      <trkpt lat="44.26659" lon="7.74549">
        <ele>970.11</ele>
        <time>2021-02-05T12:51:30Z</time>
      </trkpt>
      <trkpt lat="44.26661" lon="7.74544">
        <ele>969.63</ele>
        <time>2021-02-05T12:51:31Z</time>
      </trkpt>
      <trkpt lat="44.26664" lon="7.7454">
        <ele>968.67</ele>
        <time>2021-02-05T12:51:32Z</time>
      </trkpt>
      <trkpt lat="44.26666" lon="7.74535">
        <ele>967.7</ele>
        <time>2021-02-05T12:51:33Z</time>
      </trkpt>
      <trkpt lat="44.26668" lon="7.7453">
        <ele>966.26</ele>
        <time>2021-02-05T12:51:34Z</time>
      </trkpt>
      <trkpt lat="44.26669" lon="7.74524">
        <ele>965.78</ele>
        <time>2021-02-05T12:51:35Z</time>
      </trkpt>
      <trkpt lat="44.26671" lon="7.74519">
        <ele>964.82</ele>
        <time>2021-02-05T12:51:36Z</time>
      </trkpt>
      <trkpt lat="44.26673" lon="7.74514">
        <ele>963.86</ele>
        <time>2021-02-05T12:51:37Z</time>
      </trkpt>
      <trkpt lat="44.26676" lon="7.7451">
        <ele>962.9</ele>
        <time>2021-02-05T12:51:38Z</time>
      </trkpt>
      <trkpt lat="44.26679" lon="7.74505">
        <ele>961.94</ele>
        <time>2021-02-05T12:51:39Z</time>
      </trkpt>
      <trkpt lat="44.26682" lon="7.74502">
        <ele>960.98</ele>
        <time>2021-02-05T12:51:40Z</time>
      </trkpt>
      <trkpt lat="44.26685" lon="7.74498">
        <ele>960.01</ele>
        <time>2021-02-05T12:51:41Z</time>
      </trkpt>
      <trkpt lat="44.26689" lon="7.74494">
        <ele>959.05</ele>
        <time>2021-02-05T12:51:42Z</time>
      </trkpt>
      <trkpt lat="44.26692" lon="7.7449">
        <ele>957.61</ele>
        <time>2021-02-05T12:51:43Z</time>
      </trkpt>
      <trkpt lat="44.26696" lon="7.74485">
        <ele>956.17</ele>
        <time>2021-02-05T12:51:44Z</time>
      </trkpt>
      <trkpt lat="44.26701" lon="7.7448">
        <ele>954.73</ele>
        <time>2021-02-05T12:51:45Z</time>
      </trkpt>
      <trkpt lat="44.26714" lon="7.74473">
        <ele>951.36</ele>
        <time>2021-02-05T12:51:48Z</time>
      </trkpt>
      <trkpt lat="44.26718" lon="7.74474">
        <ele>950.4</ele>
        <time>2021-02-05T12:51:49Z</time>
      </trkpt>
      <trkpt lat="44.26721" lon="7.74472">
        <ele>949.92</ele>
        <time>2021-02-05T12:51:50Z</time>
      </trkpt>
      <trkpt lat="44.26723" lon="7.74469">
        <ele>948.96</ele>
        <time>2021-02-05T12:51:51Z</time>
      </trkpt>
      <trkpt lat="44.26726" lon="7.74466">
        <ele>948</ele>
        <time>2021-02-05T12:51:52Z</time>
      </trkpt>
      <trkpt lat="44.26729" lon="7.74463">
        <ele>947.04</ele>
        <time>2021-02-05T12:51:53Z</time>
      </trkpt>
      <trkpt lat="44.26732" lon="7.7446">
        <ele>946.07</ele>
        <time>2021-02-05T12:51:54Z</time>
      </trkpt>
      <trkpt lat="44.26736" lon="7.74455">
        <ele>945.11</ele>
        <time>2021-02-05T12:51:55Z</time>
      </trkpt>
      <trkpt lat="44.26738" lon="7.7445">
        <ele>943.67</ele>
        <time>2021-02-05T12:51:56Z</time>
      </trkpt>
      <trkpt lat="44.26741" lon="7.74446">
        <ele>942.23</ele>
        <time>2021-02-05T12:51:57Z</time>
      </trkpt>
      <trkpt lat="44.26744" lon="7.74442">
        <ele>940.79</ele>
        <time>2021-02-05T12:51:58Z</time>
      </trkpt>
      <trkpt lat="44.26745" lon="7.74437">
        <ele>939.35</ele>
        <time>2021-02-05T12:51:59Z</time>
      </trkpt>
      <trkpt lat="44.26748" lon="7.74436">
        <ele>937.9</ele>
        <time>2021-02-05T12:52:00Z</time>
      </trkpt>
      <trkpt lat="44.26755" lon="7.74442">
        <ele>935.02</ele>
        <time>2021-02-05T12:52:10Z</time>
      </trkpt>
      <trkpt lat="44.26759" lon="7.74445">
        <ele>936.94</ele>
        <time>2021-02-05T12:52:29Z</time>
      </trkpt>
      <trkpt lat="44.26758" lon="7.74445">
        <ele>936.94</ele>
        <time>2021-02-05T12:52:46Z</time>
      </trkpt>
      <trkpt lat="44.26759" lon="7.74444">
        <ele>936.46</ele>
        <time>2021-02-05T12:53:06Z</time>
      </trkpt>
      <trkpt lat="44.26759" lon="7.74443">
        <ele>937.9</ele>
        <time>2021-02-05T12:53:24Z</time>
      </trkpt>
      <trkpt lat="44.26758" lon="7.74441">
        <ele>939.83</ele>
        <time>2021-02-05T12:53:45Z</time>
      </trkpt>
      <trkpt lat="44.26757" lon="7.7444">
        <ele>940.79</ele>
        <time>2021-02-05T12:54:10Z</time>
      </trkpt>
      <trkpt lat="44.26758" lon="7.74439">
        <ele>942.23</ele>
        <time>2021-02-05T12:54:31Z</time>
      </trkpt>
      <trkpt lat="44.2676" lon="7.74438">
        <ele>943.19</ele>
        <time>2021-02-05T12:54:48Z</time>
      </trkpt>
      <trkpt lat="44.26759" lon="7.74436">
        <ele>946.07</ele>
        <time>2021-02-05T12:55:12Z</time>
      </trkpt>
      <trkpt lat="44.2676" lon="7.74434">
        <ele>946.56</ele>
        <time>2021-02-05T12:55:29Z</time>
      </trkpt>
      <trkpt lat="44.26761" lon="7.7443">
        <ele>950.4</ele>
        <time>2021-02-05T12:55:48Z</time>
      </trkpt>
      <trkpt lat="44.2676" lon="7.74428">
        <ele>949.44</ele>
        <time>2021-02-05T12:56:02Z</time>
      </trkpt>
      <trkpt lat="44.26761" lon="7.74425">
        <ele>949.44</ele>
        <time>2021-02-05T12:56:03Z</time>
      </trkpt>
      <trkpt lat="44.26762" lon="7.7442">
        <ele>948.48</ele>
        <time>2021-02-05T12:56:04Z</time>
      </trkpt>
      <trkpt lat="44.26764" lon="7.74417">
        <ele>947.52</ele>
        <time>2021-02-05T12:56:05Z</time>
      </trkpt>
      <trkpt lat="44.26766" lon="7.74412">
        <ele>946.07</ele>
        <time>2021-02-05T12:56:06Z</time>
      </trkpt>
      <trkpt lat="44.26768" lon="7.74406">
        <ele>944.63</ele>
        <time>2021-02-05T12:56:07Z</time>
      </trkpt>
      <trkpt lat="44.26771" lon="7.74401">
        <ele>943.19</ele>
        <time>2021-02-05T12:56:08Z</time>
      </trkpt>
      <trkpt lat="44.26773" lon="7.74396">
        <ele>941.75</ele>
        <time>2021-02-05T12:56:09Z</time>
      </trkpt>
      <trkpt lat="44.26775" lon="7.74391">
        <ele>940.31</ele>
        <time>2021-02-05T12:56:10Z</time>
      </trkpt>
      <trkpt lat="44.26778" lon="7.74386">
        <ele>938.86</ele>
        <time>2021-02-05T12:56:11Z</time>
      </trkpt>
      <trkpt lat="44.26782" lon="7.74382">
        <ele>936.94</ele>
        <time>2021-02-05T12:56:12Z</time>
      </trkpt>
      <trkpt lat="44.26784" lon="7.74377">
        <ele>935.5</ele>
        <time>2021-02-05T12:56:13Z</time>
      </trkpt>
      <trkpt lat="44.26789" lon="7.74374">
        <ele>935.02</ele>
        <time>2021-02-05T12:56:14Z</time>
      </trkpt>
      <trkpt lat="44.26793" lon="7.7437">
        <ele>934.06</ele>
        <time>2021-02-05T12:56:15Z</time>
      </trkpt>
      <trkpt lat="44.26797" lon="7.74365">
        <ele>932.62</ele>
        <time>2021-02-05T12:56:16Z</time>
      </trkpt>
      <trkpt lat="44.26801" lon="7.74361">
        <ele>931.65</ele>
        <time>2021-02-05T12:56:17Z</time>
      </trkpt>
      <trkpt lat="44.26805" lon="7.74357">
        <ele>930.69</ele>
        <time>2021-02-05T12:56:18Z</time>
      </trkpt>
      <trkpt lat="44.2681" lon="7.74353">
        <ele>929.73</ele>
        <time>2021-02-05T12:56:19Z</time>
      </trkpt>
      <trkpt lat="44.26815" lon="7.7435">
        <ele>927.81</ele>
        <time>2021-02-05T12:56:20Z</time>
      </trkpt>
      <trkpt lat="44.26819" lon="7.74347">
        <ele>926.37</ele>
        <time>2021-02-05T12:56:21Z</time>
      </trkpt>
      <trkpt lat="44.26823" lon="7.74345">
        <ele>925.41</ele>
        <time>2021-02-05T12:56:22Z</time>
      </trkpt>
      <trkpt lat="44.26831" lon="7.74342">
        <ele>923</ele>
        <time>2021-02-05T12:56:24Z</time>
      </trkpt>
      <trkpt lat="44.26833" lon="7.7434">
        <ele>922.04</ele>
        <time>2021-02-05T12:56:25Z</time>
      </trkpt>
      <trkpt lat="44.26835" lon="7.74336">
        <ele>921.08</ele>
        <time>2021-02-05T12:56:26Z</time>
      </trkpt>
      <trkpt lat="44.26838" lon="7.74332">
        <ele>920.12</ele>
        <time>2021-02-05T12:56:27Z</time>
      </trkpt>
      <trkpt lat="44.26842" lon="7.74328">
        <ele>919.16</ele>
        <time>2021-02-05T12:56:28Z</time>
      </trkpt>
      <trkpt lat="44.26846" lon="7.74322">
        <ele>918.2</ele>
        <time>2021-02-05T12:56:29Z</time>
      </trkpt>
      <trkpt lat="44.2685" lon="7.7431">
        <ele>916.75</ele>
        <time>2021-02-05T12:56:31Z</time>
      </trkpt>
      <trkpt lat="44.26851" lon="7.74305">
        <ele>915.31</ele>
        <time>2021-02-05T12:56:32Z</time>
      </trkpt>
      <trkpt lat="44.26855" lon="7.74294">
        <ele>912.43</ele>
        <time>2021-02-05T12:56:34Z</time>
      </trkpt>
      <trkpt lat="44.26857" lon="7.74289">
        <ele>910.99</ele>
        <time>2021-02-05T12:56:35Z</time>
      </trkpt>
      <trkpt lat="44.26869" lon="7.74266">
        <ele>907.62</ele>
        <time>2021-02-05T12:56:39Z</time>
      </trkpt>
      <trkpt lat="44.26872" lon="7.7426">
        <ele>906.66</ele>
        <time>2021-02-05T12:56:40Z</time>
      </trkpt>
      <trkpt lat="44.26876" lon="7.74255">
        <ele>906.18</ele>
        <time>2021-02-05T12:56:41Z</time>
      </trkpt>
      <trkpt lat="44.26889" lon="7.74234">
        <ele>903.3</ele>
        <time>2021-02-05T12:56:45Z</time>
      </trkpt>
      <trkpt lat="44.26891" lon="7.74229">
        <ele>902.82</ele>
        <time>2021-02-05T12:56:46Z</time>
      </trkpt>
      <trkpt lat="44.26898" lon="7.74214">
        <ele>902.33</ele>
        <time>2021-02-05T12:56:54Z</time>
      </trkpt>
      <trkpt lat="44.26902" lon="7.74208">
        <ele>901.37</ele>
        <time>2021-02-05T12:57:10Z</time>
      </trkpt>
      <trkpt lat="44.2691" lon="7.74194">
        <ele>898.49</ele>
        <time>2021-02-05T12:57:13Z</time>
      </trkpt>
      <trkpt lat="44.26912" lon="7.74189">
        <ele>897.53</ele>
        <time>2021-02-05T12:57:14Z</time>
      </trkpt>
      <trkpt lat="44.26915" lon="7.74185">
        <ele>896.57</ele>
        <time>2021-02-05T12:57:15Z</time>
      </trkpt>
      <trkpt lat="44.26919" lon="7.74183">
        <ele>895.12</ele>
        <time>2021-02-05T12:57:16Z</time>
      </trkpt>
      <trkpt lat="44.26922" lon="7.74179">
        <ele>893.68</ele>
        <time>2021-02-05T12:57:17Z</time>
      </trkpt>
      <trkpt lat="44.26925" lon="7.74174">
        <ele>891.76</ele>
        <time>2021-02-05T12:57:18Z</time>
      </trkpt>
      <trkpt lat="44.26942" lon="7.74153">
        <ele>883.59</ele>
        <time>2021-02-05T12:57:24Z</time>
      </trkpt>
      <trkpt lat="44.26961" lon="7.74143">
        <ele>875.9</ele>
        <time>2021-02-05T12:57:30Z</time>
      </trkpt>
      <trkpt lat="44.26964" lon="7.7414">
        <ele>874.94</ele>
        <time>2021-02-05T12:57:31Z</time>
      </trkpt>
      <trkpt lat="44.26969" lon="7.74138">
        <ele>872.53</ele>
        <time>2021-02-05T12:57:33Z</time>
      </trkpt>
      <trkpt lat="44.26975" lon="7.74133">
        <ele>870.13</ele>
        <time>2021-02-05T12:57:35Z</time>
      </trkpt>
      <trkpt lat="44.26976" lon="7.7413">
        <ele>869.17</ele>
        <time>2021-02-05T12:57:36Z</time>
      </trkpt>
      <trkpt lat="44.26976" lon="7.74129">
        <ele>869.17</ele>
        <time>2021-02-05T12:57:47Z</time>
      </trkpt>
      <trkpt lat="44.26977" lon="7.7413">
        <ele>868.69</ele>
        <time>2021-02-05T12:58:06Z</time>
      </trkpt>
      <trkpt lat="44.26977" lon="7.7413">
        <ele>867.73</ele>
        <time>2021-02-05T12:58:16Z</time>
      </trkpt>
      <trkpt lat="44.26981" lon="7.74131">
        <ele>867.25</ele>
        <time>2021-02-05T12:58:18Z</time>
      </trkpt>
      <trkpt lat="44.26985" lon="7.74125">
        <ele>866.29</ele>
        <time>2021-02-05T12:58:20Z</time>
      </trkpt>
      <trkpt lat="44.26988" lon="7.74123">
        <ele>865.32</ele>
        <time>2021-02-05T12:58:21Z</time>
      </trkpt>
      <trkpt lat="44.26995" lon="7.74116">
        <ele>862.44</ele>
        <time>2021-02-05T12:58:23Z</time>
      </trkpt>
      <trkpt lat="44.26996" lon="7.74111">
        <ele>861</ele>
        <time>2021-02-05T12:58:24Z</time>
      </trkpt>
      <trkpt lat="44.26997" lon="7.74108">
        <ele>859.08</ele>
        <time>2021-02-05T12:58:25Z</time>
      </trkpt>
      <trkpt lat="44.27003" lon="7.74103">
        <ele>856.19</ele>
        <time>2021-02-05T12:58:27Z</time>
      </trkpt>
      <trkpt lat="44.27003" lon="7.74097">
        <ele>854.27</ele>
        <time>2021-02-05T12:58:28Z</time>
      </trkpt>
      <trkpt lat="44.27001" lon="7.74092">
        <ele>852.35</ele>
        <time>2021-02-05T12:58:29Z</time>
      </trkpt>
      <trkpt lat="44.26999" lon="7.74087">
        <ele>850.9</ele>
        <time>2021-02-05T12:58:30Z</time>
      </trkpt>
      <trkpt lat="44.26996" lon="7.7408">
        <ele>849.46</ele>
        <time>2021-02-05T12:58:31Z</time>
      </trkpt>
      <trkpt lat="44.26993" lon="7.74073">
        <ele>848.5</ele>
        <time>2021-02-05T12:58:32Z</time>
      </trkpt>
      <trkpt lat="44.2696" lon="7.74018">
        <ele>842.73</ele>
        <time>2021-02-05T12:58:43Z</time>
      </trkpt>
      <trkpt lat="44.2695" lon="7.73992">
        <ele>839.85</ele>
        <time>2021-02-05T12:58:49Z</time>
      </trkpt>
      <trkpt lat="44.26947" lon="7.73987">
        <ele>838.89</ele>
        <time>2021-02-05T12:58:50Z</time>
      </trkpt>
      <trkpt lat="44.26944" lon="7.73982">
        <ele>837.93</ele>
        <time>2021-02-05T12:58:51Z</time>
      </trkpt>
      <trkpt lat="44.26941" lon="7.73977">
        <ele>836.96</ele>
        <time>2021-02-05T12:58:52Z</time>
      </trkpt>
      <trkpt lat="44.26937" lon="7.73971">
        <ele>836</ele>
        <time>2021-02-05T12:58:53Z</time>
      </trkpt>
      <trkpt lat="44.26883" lon="7.73906">
        <ele>828.79</ele>
        <time>2021-02-05T12:59:04Z</time>
      </trkpt>
      <trkpt lat="44.26856" lon="7.73871">
        <ele>827.35</ele>
        <time>2021-02-05T12:59:15Z</time>
      </trkpt>
      <trkpt lat="44.26824" lon="7.73843">
        <ele>826.39</ele>
        <time>2021-02-05T12:59:26Z</time>
      </trkpt>
      <trkpt lat="44.26788" lon="7.73813">
        <ele>824.47</ele>
        <time>2021-02-05T12:59:37Z</time>
      </trkpt>
      <trkpt lat="44.26767" lon="7.73787">
        <ele>824.95</ele>
        <time>2021-02-05T12:59:46Z</time>
      </trkpt>
      <trkpt lat="44.26747" lon="7.73767">
        <ele>825.43</ele>
        <time>2021-02-05T12:59:57Z</time>
      </trkpt>
      <trkpt lat="44.26745" lon="7.73765">
        <ele>825.43</ele>
        <time>2021-02-05T12:59:58Z</time>
      </trkpt>
      <trkpt lat="44.26743" lon="7.73763">
        <ele>825.43</ele>
        <time>2021-02-05T12:59:59Z</time>
      </trkpt>
      <trkpt lat="44.26741" lon="7.73762">
        <ele>825.43</ele>
        <time>2021-02-05T13:00:00Z</time>
      </trkpt>
      <trkpt lat="44.26732" lon="7.7375">
        <ele>825.43</ele>
        <time>2021-02-05T13:00:07Z</time>
      </trkpt>
      <trkpt lat="44.26729" lon="7.73747">
        <ele>824.95</ele>
        <time>2021-02-05T13:00:09Z</time>
      </trkpt>
      <trkpt lat="44.26728" lon="7.73745">
        <ele>824.47</ele>
        <time>2021-02-05T13:00:10Z</time>
      </trkpt>
      <trkpt lat="44.26728" lon="7.73745">
        <ele>823.99</ele>
        <time>2021-02-05T13:00:11Z</time>
      </trkpt>
      <trkpt lat="44.26727" lon="7.73744">
        <ele>823.99</ele>
        <time>2021-02-05T13:00:12Z</time>
      </trkpt>
      <trkpt lat="44.26725" lon="7.73743">
        <ele>823.51</ele>
        <time>2021-02-05T13:00:13Z</time>
      </trkpt>
      <trkpt lat="44.26724" lon="7.73741">
        <ele>823.51</ele>
        <time>2021-02-05T13:00:14Z</time>
      </trkpt>
      <trkpt lat="44.26723" lon="7.7374">
        <ele>823.99</ele>
        <time>2021-02-05T13:00:15Z</time>
      </trkpt>
      <trkpt lat="44.26721" lon="7.73739">
        <ele>823.99</ele>
        <time>2021-02-05T13:00:16Z</time>
      </trkpt>
      <trkpt lat="44.26719" lon="7.73735">
        <ele>823.03</ele>
        <time>2021-02-05T13:00:19Z</time>
      </trkpt>
      <trkpt lat="44.26717" lon="7.73731">
        <ele>822.06</ele>
        <time>2021-02-05T13:00:21Z</time>
      </trkpt>
      <trkpt lat="44.26717" lon="7.73728">
        <ele>821.58</ele>
        <time>2021-02-05T13:00:22Z</time>
      </trkpt>
      <trkpt lat="44.26716" lon="7.73726">
        <ele>821.1</ele>
        <time>2021-02-05T13:00:23Z</time>
      </trkpt>
      <trkpt lat="44.26715" lon="7.73724">
        <ele>820.62</ele>
        <time>2021-02-05T13:00:24Z</time>
      </trkpt>
      <trkpt lat="44.26715" lon="7.73721">
        <ele>820.62</ele>
        <time>2021-02-05T13:00:25Z</time>
      </trkpt>
      <trkpt lat="44.26711" lon="7.73705">
        <ele>818.7</ele>
        <time>2021-02-05T13:00:29Z</time>
      </trkpt>
      <trkpt lat="44.26708" lon="7.73694">
        <ele>817.26</ele>
        <time>2021-02-05T13:00:32Z</time>
      </trkpt>
      <trkpt lat="44.26708" lon="7.73691">
        <ele>817.26</ele>
        <time>2021-02-05T13:00:33Z</time>
      </trkpt>
      <trkpt lat="44.26709" lon="7.73686">
        <ele>816.78</ele>
        <time>2021-02-05T13:00:34Z</time>
      </trkpt>
      <trkpt lat="44.26711" lon="7.73679">
        <ele>816.78</ele>
        <time>2021-02-05T13:00:35Z</time>
      </trkpt>
      <trkpt lat="44.26716" lon="7.73663">
        <ele>817.26</ele>
        <time>2021-02-05T13:00:38Z</time>
      </trkpt>
      <trkpt lat="44.26718" lon="7.73662">
        <ele>818.22</ele>
        <time>2021-02-05T13:00:47Z</time>
      </trkpt>
      <trkpt lat="44.26717" lon="7.73659">
        <ele>818.22</ele>
        <time>2021-02-05T13:00:59Z</time>
      </trkpt>
      <trkpt lat="44.26714" lon="7.73656">
        <ele>818.22</ele>
        <time>2021-02-05T13:01:02Z</time>
      </trkpt>
      <trkpt lat="44.26709" lon="7.73653">
        <ele>818.22</ele>
        <time>2021-02-05T13:01:11Z</time>
      </trkpt>
      <trkpt lat="44.26707" lon="7.73649">
        <ele>819.18</ele>
        <time>2021-02-05T13:01:22Z</time>
      </trkpt>
      <trkpt lat="44.26707" lon="7.73641">
        <ele>818.7</ele>
        <time>2021-02-05T13:01:33Z</time>
      </trkpt>
      <trkpt lat="44.26705" lon="7.73635">
        <ele>818.22</ele>
        <time>2021-02-05T13:01:45Z</time>
      </trkpt>
      <trkpt lat="44.26704" lon="7.7363">
        <ele>817.26</ele>
        <time>2021-02-05T13:01:58Z</time>
      </trkpt>
      <trkpt lat="44.26703" lon="7.73628">
        <ele>816.3</ele>
        <time>2021-02-05T13:02:09Z</time>
      </trkpt>
      <trkpt lat="44.26702" lon="7.73627">
        <ele>815.82</ele>
        <time>2021-02-05T13:02:28Z</time>
      </trkpt>
      <trkpt lat="44.26702" lon="7.73629">
        <ele>815.82</ele>
        <time>2021-02-05T13:02:41Z</time>
      </trkpt>
      <trkpt lat="44.26699" lon="7.73609">
        <ele>816.78</ele>
        <time>2021-02-05T13:02:55Z</time>
      </trkpt>
      <trkpt lat="44.26697" lon="7.73597">
        <ele>817.26</ele>
        <time>2021-02-05T13:03:02Z</time>
      </trkpt>
      <trkpt lat="44.26697" lon="7.73584">
        <ele>818.22</ele>
        <time>2021-02-05T13:03:17Z</time>
      </trkpt>
      <trkpt lat="44.26698" lon="7.73585">
        <ele>820.14</ele>
        <time>2021-02-05T13:03:33Z</time>
      </trkpt>
      <trkpt lat="44.26701" lon="7.73587">
        <ele>821.1</ele>
        <time>2021-02-05T13:03:47Z</time>
      </trkpt>
      <trkpt lat="44.26704" lon="7.73582">
        <ele>819.66</ele>
        <time>2021-02-05T13:03:56Z</time>
      </trkpt>
      <trkpt lat="44.26704" lon="7.73581">
        <ele>818.7</ele>
        <time>2021-02-05T13:04:05Z</time>
      </trkpt>
      <trkpt lat="44.26708" lon="7.73583">
        <ele>817.26</ele>
        <time>2021-02-05T13:04:16Z</time>
      </trkpt>
      <trkpt lat="44.2671" lon="7.73582">
        <ele>816.3</ele>
        <time>2021-02-05T13:04:27Z</time>
      </trkpt>
      <trkpt lat="44.26711" lon="7.73583">
        <ele>815.82</ele>
        <time>2021-02-05T13:04:32Z</time>
      </trkpt>
      <trkpt lat="44.26711" lon="7.73582">
        <ele>814.85</ele>
        <time>2021-02-05T13:04:41Z</time>
      </trkpt>
      <trkpt lat="44.26709" lon="7.73582">
        <ele>811.49</ele>
        <time>2021-02-05T13:05:11Z</time>
      </trkpt>
      <trkpt lat="44.26709" lon="7.73584">
        <ele>814.85</ele>
        <time>2021-02-05T13:05:46Z</time>
      </trkpt>
      <trkpt lat="44.26706" lon="7.73586">
        <ele>814.37</ele>
        <time>2021-02-05T13:06:15Z</time>
      </trkpt>
      <trkpt lat="44.26707" lon="7.73585">
        <ele>814.85</ele>
        <time>2021-02-05T13:06:42Z</time>
      </trkpt>
      <trkpt lat="44.26709" lon="7.73583">
        <ele>815.34</ele>
        <time>2021-02-05T13:07:13Z</time>
      </trkpt>
      <trkpt lat="44.26709" lon="7.73584">
        <ele>813.89</ele>
        <time>2021-02-05T13:07:38Z</time>
      </trkpt>
      <trkpt lat="44.2671" lon="7.73582">
        <ele>811.01</ele>
        <time>2021-02-05T13:08:12Z</time>
      </trkpt>
      <trkpt lat="44.2671" lon="7.73581">
        <ele>813.89</ele>
        <time>2021-02-05T13:08:39Z</time>
      </trkpt>
      <trkpt lat="44.26708" lon="7.73582">
        <ele>813.41</ele>
        <time>2021-02-05T13:09:10Z</time>
      </trkpt>
      <trkpt lat="44.26709" lon="7.73582">
        <ele>815.34</ele>
        <time>2021-02-05T13:09:39Z</time>
      </trkpt>
      <trkpt lat="44.26712" lon="7.7358">
        <ele>814.85</ele>
        <time>2021-02-05T13:10:12Z</time>
      </trkpt>
      <trkpt lat="44.26709" lon="7.73581">
        <ele>813.89</ele>
        <time>2021-02-05T13:10:35Z</time>
      </trkpt>
      <trkpt lat="44.26709" lon="7.73579">
        <ele>813.89</ele>
        <time>2021-02-05T13:10:41Z</time>
      </trkpt>
    </trkseg>
  </trk>
</gpx>